[[{"header":{"parameterUnit":"m.s-1","parameterCategory":1,"la1":31.0,"la2":29.5877,"lo1":-88.7671,"lo2":-86.6584,"dx":0.0162,"dy":0.0185,"nx":115,"ny":88,"refTime":"2023-01-29T18:00:00:Z","depth":0,"parameterNumber":2,"parameterNumberName":"U-component_of_WINDS"},"data":[0.0,0.0,0.0,0.0,0.0,0.0,0.0,0.0,0.0,0.0,0.0,0.0,0.0,0.0,0.0,0.0,0.0,0.0,0.0,0.0,0.0,0.0,0.0,0.0,0.0,0.0,0.0,0.0,0.0,0.0,0.0,0.0,0.0,0.0,0.0,0.0,0.0,0.0,0.0,0.0,0.0,0.0,0.0,0.0,0.0,0.0,0.0,0.0,0.0,0.0,0.0,0.0,0.0,0.0,0.0,0.0,0.0,0.0,0.0,0.0,0.0,0.0,0.0,0.0,0.0,0.0,0.0,0.0,0.0,0.0,0.0,0.0,0.0,0.0,0.0,0.0,0.0,0.0,0.0,0.0,0.0,0.0,0.0,0.0,0.0,0.0,0.0,0.0,0.0,0.0,0.0,0.0,0.0,0.0,0.0,0.0,0.0,0.0,0.0,0.0,0.0,0.0,0.0,0.0,0.0,0.0,0.0,0.0,0.0,0.0,0.0,0.0,0.0,0.0,0.0,0.0,0.0,0.0,0.0,0.0,0.0,0.0,0.0,0.0,0.0,0.0,0.0,0.0,0.0,0.0,0.0,0.0,0.0,0.0,0.0,0.0,0.0,0.0,0.0,0.0,0.0,0.0,0.0,0.0,0.0,0.0,0.0,0.0,0.0,0.0,0.0,0.0,0.0,0.0,0.0,0.0,0.0,0.0,0.0,0.0,0.0,0.0,0.0,0.0,0.0,0.0,0.0,0.0,0.0,0.0,0.0,0.0,0.0,0.0,0.0,0.0,0.0,0.0,0.0,0.0,0.0,0.0,0.0,0.0,0.0,0.0,0.0,0.0,0.0,0.0,0.0,0.0,0.0,0.0,0.0,0.0,0.0,0.0,0.0,0.0,0.0,0.0,0.0,0.0,0.0,0.0,0.0,0.0,0.0,0.0,0.0,0.0,0.0,0.0,0.0,0.0,0.0,0.0,0.0,0.0,0.0,0.0,0.0,0.0,0.0,0.0,0.0,0.0,0.0,0.0,0.0,0.0,0.0,0.0,0.0,0.0,0.0,0.0,0.0,0.0,0.0,0.0,0.0,0.0,0.0,0.0,0.0,0.0,0.0,0.0,0.0,0.0,0.0,0.0,0.0,0.0,0.0,0.0,0.0,0.0,0.0,0.0,0.0,0.0,0.0,0.0,0.0,0.0,0.0,0.0,0.0,0.0,0.0,0.0,0.0,0.0,0.0,0.0,0.0,0.0,0.0,0.0,0.0,0.0,0.0,0.0,0.0,0.0,0.0,0.0,0.0,0.0,0.0,0.0,0.0,0.0,0.0,0.0,0.0,0.0,0.0,0.0,0.0,0.0,0.0,0.0,0.0,0.0,0.0,0.0,0.0,0.0,0.0,0.0,0.0,0.0,0.0,0.0,0.0,0.0,0.0,0.0,0.0,0.0,0.0,0.0,0.0,0.0,0.0,0.0,0.0,0.0,0.0,0.0,0.0,0.0,0.0,0.0,0.0,0.0,0.0,0.0,0.0,0.0,0.0,0.0,0.0,0.0,0.0,0.0,0.0,0.0,0.0,0.0,0.0,0.0,0.0,0.0,0.0,0.0,0.0,0.0,0.0,0.0,0.0,0.0,0.0,0.0,0.0,0.0,0.0,0.0,0.0,0.0,0.0,0.0,0.0,0.0,0.0,0.0,0.0,0.0,0.0,0.0,0.0,0.0,0.0,0.0,0.0,0.0,0.0,0.0,0.0,0.0,0.0,0.0,0.0,0.0,0.0,0.0,0.0,0.0,0.0,0.0,0.0,0.0,0.0,0.0,0.0,0.0,0.0,0.0,0.0,0.0,0.0,0.0,0.0,0.0,0.0,0.0,0.0,0.0,0.0,0.0,0.0,0.0,0.0,0.0,0.0,0.0,0.0,0.0,0.0,0.0,0.0,0.0,0.0,0.0,0.0,0.0,0.0,0.0,0.0,0.0,0.0,0.0,0.0,0.0,0.0,0.0,0.0,0.0,0.0,0.0,0.0,0.0,0.0,0.0,0.0,0.0,0.0,0.0,0.0,0.0,0.0,0.0,0.0,0.0,0.0,0.0,0.0,0.0,0.0,0.0,0.0,0.0,0.0,0.0,0.0,0.0,0.0,0.0,0.0,0.0,0.0,0.0,0.0,0.0,0.0,0.0,0.0,0.0,0.0,0.0,0.0,0.0,0.0,0.0,0.0,0.0,0.0,0.0,0.0,0.0,0.0,0.0,0.0,0.0,0.0,0.0,0.0,0.0,0.0,0.0,0.0,0.0,0.0,0.0,0.0,0.0,0.0,0.0,0.0,0.0,0.0,0.0,0.0,0.0,0.0,0.0,0.0,0.0,0.0,0.0,0.0,0.0,0.0,0.0,0.0,0.0,0.0,0.0,0.0,0.0,0.0,0.0,0.0,0.0,0.0,0.0,0.0,0.0,0.0,0.0,0.0,0.0,0.0,0.0,0.0,0.0,0.0,0.0,0.0,0.0,0.0,0.0,0.0,0.0,0.0,0.0,0.0,0.0,0.0,0.0,0.0,0.0,0.0,0.0,0.0,0.0,0.0,0.0,0.0,0.0,0.0,0.0,0.0,0.0,0.0,0.0,0.0,0.0,0.0,0.0,0.0,0.0,0.0,0.0,0.0,0.0,0.0,0.0,0.0,0.0,0.0,0.0,0.0,0.0,0.0,0.0,0.0,0.0,0.0,0.0,0.0,0.0,0.0,0.0,0.0,0.0,0.0,0.0,0.0,0.0,0.0,0.0,0.0,0.0,0.0,0.0,0.0,0.0,0.0,0.0,0.0,0.0,0.0,0.0,0.0,0.0,0.0,0.0,0.0,0.0,0.0,0.0,0.0,0.0,0.0,0.0,0.0,0.0,0.0,0.0,0.0,0.0,0.0,0.0,0.0,0.0,0.0,0.0,0.0,0.0,0.0,0.0,0.0,0.0,0.0,0.0,0.0,0.0,0.0,0.0,0.0,0.0,0.0,0.0,0.0,0.0,0.0,0.0,0.0,0.0,0.0,0.0,0.0,0.0,0.0,0.0,0.0,0.0,0.0,0.0,0.0,0.0,0.0,0.0,0.0,0.0,0.0,0.0,0.0,0.0,0.0,0.0,0.0,0.0,0.0,0.0,0.0,0.0,0.0,0.0,0.0,0.0,0.0,0.0,0.0,0.0,0.0,0.0,0.0,0.0,0.0,0.0,0.0,0.0,0.0,0.0,0.0,0.0,0.0,0.0,0.0,0.0,0.0,0.0,0.0,0.0,0.0,0.0,0.0,0.0,0.0,0.0,0.0,0.0,0.0,0.0,0.0,0.0,0.0,0.0,0.0,0.0,0.0,0.0,0.0,0.0,0.0,0.0,0.0,0.0,0.0,0.0,0.0,0.0,0.0,0.0,0.0,0.0,0.0,0.0,0.0,0.0,0.0,0.0,0.0,0.0,0.0,0.0,0.0,0.0,0.0,0.0,0.0,0.0,0.0,0.0,0.0,0.0,0.0,0.0,0.0,0.0,0.0,0.0,0.0,0.0,0.0,0.0,0.0,0.0,0.0,0.0,0.0,0.0,0.0,0.0,0.0,0.0,0.0,0.0,0.0,0.0,0.0,0.0,0.0,0.0,0.0,0.0,0.0,0.0,0.0,0.0,0.0,0.0,0.0,0.0,0.0,0.0,0.0,0.0,0.0,0.0,0.0,0.0,0.0,0.0,0.0,0.0,0.0,0.0,0.0,0.0,0.0,0.0,0.0,0.0,0.0,0.0,0.0,0.0,0.0,0.0,0.0,0.0,0.0,0.0,0.0,0.0,0.0,0.0,0.0,0.0,0.0,0.0,0.0,0.0,0.0,0.0,0.0,0.0,0.0,0.0,0.0,0.0,0.0,0.0,0.0,0.0,0.0,0.0,0.0,0.0,0.0,0.0,0.0,0.0,0.0,0.0,0.0,0.0,0.0,0.0,0.0,0.0,0.0,0.0,0.0,0.0,0.0,0.0,0.0,0.0,0.0,0.0,0.0,0.0,0.0,0.0,0.0,0.0,0.0,0.0,0.0,0.0,0.0,0.0,0.0,0.0,0.0,0.0,0.0,0.0,0.0,0.0,0.0,0.0,0.0,0.0,0.0,0.0,0.0,0.0,0.0,0.0,0.0,0.0,0.0,0.0,0.0,0.0,0.0,0.0,0.0,0.0,0.0,0.0,0.0,0.0,0.0,0.0,0.0,0.0,0.0,0.0,0.0,0.0,0.0,0.0,0.0,0.0,0.0,0.0,6.5897,0.0,0.0,0.0,0.0,0.0,0.0,0.0,0.0,0.0,0.0,0.0,0.0,0.0,0.0,0.0,0.0,0.0,0.0,0.0,0.0,0.0,0.0,0.0,0.0,0.0,0.0,0.0,0.0,0.0,0.0,0.0,0.0,0.0,0.0,0.0,0.0,0.0,0.0,0.0,0.0,0.0,0.0,0.0,0.0,0.0,0.0,0.0,0.0,0.0,0.0,0.0,0.0,0.0,0.0,0.0,0.0,0.0,0.0,0.0,0.0,0.0,0.0,0.0,0.0,0.0,0.0,0.0,0.0,0.0,0.0,0.0,0.0,0.0,0.0,0.0,0.0,0.0,0.0,0.0,0.0,0.0,0.0,0.0,0.0,0.0,0.0,0.0,0.0,0.0,0.0,0.0,0.0,0.0,0.0,0.0,0.0,0.0,0.0,0.0,0.0,0.0,0.0,0.0,0.0,0.0,0.0,0.0,0.0,0.0,0.0,6.7256,6.7256,6.7256,6.7039,6.6577,0.0,0.0,0.0,0.0,0.0,0.0,0.0,0.0,0.0,0.0,0.0,0.0,0.0,0.0,0.0,0.0,0.0,0.0,0.0,0.0,0.0,0.0,0.0,0.0,0.0,0.0,0.0,0.0,0.0,0.0,0.0,0.0,0.0,0.0,0.0,0.0,0.0,0.0,0.0,0.0,0.0,0.0,0.0,0.0,0.0,0.0,0.0,0.0,0.0,0.0,0.0,0.0,0.0,0.0,0.0,0.0,0.0,0.0,0.0,0.0,0.0,0.0,0.0,0.0,0.0,0.0,0.0,0.0,0.0,0.0,0.0,0.0,0.0,0.0,0.0,0.0,0.0,0.0,0.0,0.0,0.0,0.0,0.0,0.0,0.0,0.0,0.0,0.0,0.0,0.0,0.0,0.0,0.0,0.0,0.0,0.0,0.0,0.0,0.0,0.0,0.0,0.0,0.0,0.0,0.0,0.0,0.0,0.0,0.0,0.0,0.0,0.0,6.8411,6.8103,6.741,0.0,0.0,0.0,0.0,0.0,0.0,0.0,0.0,0.0,0.0,0.0,0.0,0.0,0.0,0.0,0.0,0.0,0.0,0.0,0.0,0.0,0.0,0.0,0.0,0.0,0.0,0.0,0.0,0.0,0.0,0.0,0.0,0.0,0.0,0.0,0.0,0.0,0.0,0.0,0.0,0.0,0.0,0.0,0.0,0.0,0.0,0.0,0.0,0.0,0.0,0.0,0.0,0.0,0.0,0.0,0.0,0.0,0.0,0.0,0.0,0.0,0.0,0.0,0.0,0.0,0.0,0.0,0.0,0.0,0.0,0.0,0.0,0.0,0.0,0.0,0.0,0.0,0.0,0.0,0.0,0.0,0.0,0.0,0.0,0.0,0.0,0.0,0.0,0.0,0.0,0.0,0.0,0.0,0.0,0.0,0.0,0.0,0.0,0.0,0.0,0.0,0.0,0.0,0.0,0.0,0.0,0.0,0.0,0.0,0.0,6.8383,6.8383,6.8421,0.0,6.8321,0.0,0.0,0.0,0.0,0.0,0.0,0.0,0.0,0.0,0.0,0.0,0.0,0.0,0.0,0.0,0.0,0.0,0.0,0.0,0.0,0.0,0.0,0.0,0.0,0.0,0.0,0.0,0.0,0.0,0.0,0.0,0.0,0.0,0.0,0.0,0.0,0.0,0.0,0.0,0.0,0.0,0.0,0.0,0.0,0.0,0.0,0.0,0.0,0.0,0.0,0.0,0.0,0.0,0.0,0.0,0.0,0.0,0.0,0.0,0.0,0.0,0.0,0.0,0.0,0.0,0.0,0.0,0.0,0.0,0.0,0.0,0.0,0.0,0.0,0.0,0.0,0.0,0.0,0.0,0.0,0.0,0.0,0.0,0.0,0.0,0.0,0.0,0.0,0.0,0.0,0.0,0.0,0.0,0.0,0.0,0.0,0.0,0.0,0.0,0.0,0.0,0.0,0.0,0.0,0.0,0.0,0.0,0.0,0.0,0.0,6.991,6.9871,6.9421,6.9179,0.0,0.0,0.0,0.0,0.0,0.0,0.0,0.0,0.0,0.0,0.0,0.0,0.0,0.0,0.0,0.0,0.0,0.0,0.0,0.0,0.0,0.0,0.0,0.0,0.0,0.0,0.0,0.0,0.0,0.0,0.0,0.0,0.0,0.0,0.0,0.0,0.0,0.0,0.0,0.0,0.0,0.0,0.0,0.0,0.0,0.0,0.0,0.0,0.0,0.0,0.0,0.0,0.0,0.0,0.0,0.0,0.0,0.0,0.0,0.0,0.0,0.0,0.0,0.0,0.0,0.0,0.0,0.0,0.0,0.0,0.0,0.0,0.0,0.0,0.0,0.0,0.0,0.0,0.0,0.0,0.0,0.0,0.0,0.0,0.0,0.0,0.0,0.0,0.0,0.0,0.0,0.0,0.0,0.0,0.0,0.0,0.0,0.0,0.0,0.0,0.0,0.0,0.0,0.0,0.0,0.0,0.0,0.0,0.0,0.0,7.0898,7.0898,7.086,7.0333,7.0025,7.0025,0.0,0.0,0.0,0.0,0.0,0.0,0.0,0.0,0.0,0.0,0.0,0.0,0.0,0.0,0.0,0.0,0.0,0.0,0.0,0.0,0.0,0.0,0.0,0.0,0.0,0.0,0.0,0.0,0.0,0.0,0.0,0.0,0.0,0.0,0.0,0.0,0.0,0.0,0.0,0.0,0.0,0.0,0.0,0.0,0.0,0.0,0.0,0.0,0.0,0.0,0.0,0.0,0.0,0.0,0.0,0.0,0.0,0.0,0.0,0.0,0.0,0.0,0.0,0.0,0.0,0.0,0.0,0.0,0.0,0.0,0.0,0.0,0.0,0.0,0.0,0.0,0.0,0.0,0.0,0.0,0.0,0.0,0.0,0.0,0.0,0.0,0.0,0.0,0.0,0.0,0.0,0.0,0.0,0.0,0.0,0.0,0.0,0.0,0.0,0.0,0.0,0.0,0.0,0.0,0.0,0.0,0.0,0.0,7.0898,7.0898,7.0898,7.0898,7.086,7.086,0.0,0.0,0.0,0.0,0.0,0.0,0.0,0.0,0.0,0.0,0.0,0.0,0.0,0.0,0.0,0.0,0.0,0.0,0.0,0.0,0.0,0.0,0.0,0.0,0.0,0.0,0.0,0.0,0.0,0.0,0.0,0.0,0.0,0.0,0.0,0.0,0.0,0.0,0.0,0.0,0.0,0.0,0.0,0.0,0.0,0.0,0.0,0.0,0.0,0.0,0.0,0.0,0.0,0.0,0.0,0.0,0.0,0.0,0.0,0.0,0.0,0.0,0.0,0.0,0.0,0.0,0.0,0.0,0.0,0.0,0.0,0.0,0.0,0.0,0.0,0.0,0.0,0.0,0.0,0.0,0.0,0.0,0.0,0.0,0.0,0.0,0.0,0.0,0.0,0.0,0.0,0.0,0.0,0.0,0.0,0.0,0.0,0.0,0.0,0.0,0.0,0.0,0.0,0.0,0.0,0.0,0.0,0.0,0.0,7.0898,7.0898,7.0898,7.0898,7.0898,7.0898,0.0,0.0,0.0,0.0,0.0,0.0,0.0,0.0,0.0,0.0,0.0,0.0,0.0,0.0,0.0,0.0,0.0,0.0,0.0,0.0,0.0,0.0,0.0,0.0,0.0,0.0,0.0,0.0,0.0,0.0,0.0,0.0,0.0,0.0,0.0,0.0,0.0,0.0,0.0,0.0,0.0,0.0,0.0,0.0,0.0,0.0,0.0,0.0,0.0,0.0,0.0,0.0,0.0,0.0,0.0,0.0,0.0,0.0,0.0,0.0,0.0,0.0,0.0,0.0,0.0,0.0,0.0,0.0,0.0,0.0,0.0,0.0,0.0,0.0,0.0,0.0,0.0,0.0,0.0,0.0,0.0,0.0,0.0,0.0,0.0,0.0,0.0,0.0,0.0,0.0,0.0,0.0,0.0,0.0,0.0,0.0,0.0,0.0,0.0,0.0,0.0,0.0,0.0,0.0,0.0,0.0,0.0,0.0,0.0,7.0975,0.0,7.1052,7.1014,7.1014,7.0975,0.0,0.0,0.0,0.0,0.0,0.0,0.0,0.0,0.0,0.0,0.0,0.0,0.0,0.0,0.0,0.0,0.0,0.0,0.0,0.0,0.0,0.0,0.0,0.0,0.0,0.0,0.0,0.0,0.0,0.0,0.0,0.0,0.0,0.0,0.0,0.0,0.0,0.0,0.0,0.0,0.0,0.0,0.0,0.0,0.0,0.0,0.0,0.0,0.0,0.0,0.0,0.0,0.0,0.0,0.0,0.0,0.0,0.0,0.0,0.0,0.0,0.0,0.0,0.0,0.0,0.0,0.0,0.0,0.0,0.0,0.0,0.0,0.0,0.0,0.0,0.0,0.0,0.0,0.0,0.0,0.0,0.0,0.0,0.0,0.0,0.0,0.0,0.0,0.0,0.0,0.0,0.0,0.0,0.0,0.0,0.0,0.0,0.0,0.0,0.0,0.0,0.0,0.0,0.0,0.0,0.0,0.0,0.0,7.1002,7.1183,7.1402,7.139,7.1195,7.1195,7.1091,0.0,0.0,0.0,0.0,0.0,0.0,0.0,0.0,0.0,0.0,0.0,0.0,0.0,0.0,0.0,0.0,0.0,0.0,0.0,0.0,0.0,0.0,0.0,0.0,0.0,0.0,0.0,0.0,0.0,0.0,0.0,0.0,0.0,0.0,0.0,0.0,0.0,0.0,0.0,0.0,0.0,0.0,0.0,0.0,0.0,0.0,0.0,0.0,0.0,0.0,0.0,0.0,0.0,0.0,0.0,0.0,0.0,0.0,0.0,0.0,0.0,0.0,0.0,0.0,0.0,0.0,0.0,0.0,0.0,0.0,0.0,0.0,0.0,0.0,0.0,0.0,0.0,0.0,0.0,0.0,0.0,0.0,0.0,0.0,0.0,0.0,0.0,0.0,0.0,0.0,0.0,0.0,0.0,0.0,0.0,0.0,0.0,0.0,0.0,0.0,0.0,0.0,0.0,0.0,0.0,0.0,0.0,0.0,0.0,7.1213,7.1417,7.1456,7.1408,7.1278,7.1168,0.0,0.0,0.0,0.0,0.0,0.0,0.0,0.0,0.0,0.0,0.0,0.0,0.0,0.0,0.0,0.0,0.0,0.0,0.0,0.0,0.0,0.0,0.0,0.0,0.0,0.0,0.0,0.0,0.0,0.0,0.0,0.0,0.0,0.0,0.0,0.0,0.0,0.0,0.0,0.0,0.0,0.0,0.0,0.0,0.0,0.0,0.0,0.0,0.0,0.0,0.0,0.0,0.0,0.0,0.0,0.0,0.0,0.0,0.0,0.0,0.0,0.0,0.0,0.0,0.0,0.0,0.0,0.0,0.0,0.0,0.0,0.0,0.0,0.0,0.0,0.0,0.0,0.0,0.0,0.0,0.0,0.0,0.0,0.0,0.0,0.0,0.0,0.0,0.0,0.0,0.0,0.0,0.0,0.0,0.0,0.0,0.0,0.0,0.0,0.0,0.0,0.0,0.0,0.0,0.0,0.0,0.0,0.0,0.0,7.1406,7.1601,7.164,7.1562,7.1455,7.1337,7.1195,0.0,0.0,0.0,0.0,0.0,0.0,0.0,0.0,0.0,0.0,0.0,0.0,0.0,0.0,0.0,0.0,0.0,0.0,0.0,0.0,0.0,0.0,0.0,0.0,0.0,0.0,0.0,0.0,0.0,0.0,0.0,0.0,0.0,0.0,0.0,0.0,0.0,0.0,0.0,0.0,0.0,0.0,0.0,0.0,0.0,0.0,0.0,0.0,0.0,0.0,0.0,0.0,0.0,0.0,0.0,0.0,0.0,0.0,0.0,0.0,0.0,0.0,0.0,0.0,0.0,0.0,0.0,0.0,0.0,0.0,0.0,0.0,0.0,0.0,0.0,0.0,0.0,0.0,0.0,0.0,0.0,0.0,0.0,0.0,0.0,0.0,0.0,0.0,0.0,0.0,0.0,0.0,0.0,0.0,0.0,0.0,0.0,0.0,0.0,0.0,0.0,0.0,0.0,0.0,0.0,0.0,0.0,0.0,7.1679,7.1875,7.1914,7.1719,7.1719,7.1542,0.0,0.0,0.0,0.0,0.0,0.0,0.0,0.0,0.0,0.0,0.0,0.0,0.0,0.0,0.0,0.0,0.0,0.0,0.0,0.0,0.0,0.0,0.0,0.0,0.0,0.0,0.0,0.0,0.0,0.0,0.0,0.0,0.0,0.0,0.0,0.0,0.0,0.0,0.0,0.0,0.0,0.0,0.0,0.0,0.0,0.0,0.0,0.0,0.0,0.0,0.0,0.0,0.0,0.0,0.0,0.0,0.0,0.0,0.0,0.0,0.0,0.0,0.0,0.0,0.0,0.0,0.0,0.0,0.0,0.0,0.0,0.0,0.0,0.0,0.0,0.0,0.0,0.0,0.0,0.0,0.0,0.0,0.0,0.0,0.0,0.0,0.0,0.0,0.0,0.0,0.0,0.0,0.0,0.0,0.0,0.0,0.0,0.0,0.0,0.0,0.0,0.0,0.0,0.0,0.0,0.0,0.0,0.0,0.0,7.1719,7.1875,7.1992,7.1914,7.1758,7.1634,0.0,0.0,0.0,0.0,0.0,0.0,0.0,0.0,0.0,0.0,0.0,0.0,0.0,0.0,0.0,0.0,0.0,0.0,0.0,0.0,0.0,0.0,0.0,0.0,0.0,0.0,0.0,0.0,0.0,0.0,0.0,0.0,0.0,0.0,0.0,0.0,0.0,0.0,0.0,0.0,0.0,0.0,0.0,0.0,0.0,0.0,0.0,0.0,0.0,0.0,0.0,0.0,0.0,0.0,0.0,0.0,0.0,0.0,0.0,0.0,0.0,0.0,0.0,0.0,0.0,0.0,0.0,0.0,0.0,0.0,0.0,0.0,0.0,0.0,0.0,0.0,0.0,0.0,0.0,0.0,0.0,0.0,0.0,0.0,0.0,0.0,0.0,0.0,0.0,0.0,0.0,0.0,0.0,0.0,0.0,0.0,0.0,0.0,0.0,0.0,0.0,0.0,0.0,0.0,0.0,0.0,0.0,0.0,7.1866,7.2344,7.2148,7.1992,7.1992,7.1914,7.1797,0.0,0.0,0.0,0.0,0.0,0.0,0.0,0.0,0.0,0.0,0.0,0.0,0.0,0.0,0.0,0.0,0.0,0.0,0.0,0.0,0.0,0.0,0.0,0.0,0.0,0.0,0.0,0.0,0.0,0.0,0.0,0.0,0.0,0.0,0.0,0.0,0.0,0.0,0.0,0.0,0.0,0.0,0.0,0.0,0.0,0.0,0.0,0.0,0.0,0.0,0.0,0.0,0.0,0.0,0.0,0.0,0.0,0.0,0.0,0.0,0.0,0.0,0.0,0.0,0.0,0.0,0.0,0.0,0.0,0.0,0.0,0.0,0.0,0.0,0.0,0.0,0.0,0.0,0.0,0.0,0.0,0.0,0.0,0.0,0.0,0.0,0.0,0.0,0.0,0.0,0.0,0.0,0.0,0.0,0.0,0.0,0.0,0.0,0.0,0.0,0.0,0.0,0.0,0.0,0.0,0.0,0.0,0.0,7.2265,7.3125,7.2422,7.1992,7.1992,7.207,7.2031,0.0,0.0,0.0,0.0,0.0,0.0,0.0,0.0,0.0,0.0,0.0,0.0,0.0,0.0,0.0,0.0,0.0,0.0,0.0,0.0,0.0,0.0,0.0,0.0,0.0,0.0,0.0,0.0,0.0,0.0,0.0,0.0,0.0,0.0,0.0,0.0,0.0,0.0,0.0,0.0,0.0,0.0,0.0,0.0,0.0,0.0,0.0,0.0,0.0,0.0,0.0,0.0,0.0,0.0,0.0,0.0,0.0,0.0,0.0,0.0,0.0,0.0,0.0,0.0,0.0,0.0,0.0,0.0,0.0,0.0,0.0,0.0,0.0,0.0,0.0,0.0,0.0,0.0,0.0,0.0,0.0,0.0,0.0,0.0,0.0,0.0,0.0,0.0,0.0,0.0,0.0,0.0,0.0,0.0,0.0,0.0,0.0,0.0,0.0,0.0,0.0,0.0,0.0,0.0,0.0,0.0,0.0,0.0,7.2578,7.2265,7.2109,7.1992,7.1992,7.2656,7.3008,0.0,0.0,0.0,0.0,0.0,0.0,0.0,0.0,0.0,0.0,0.0,0.0,0.0,0.0,0.0,0.0,0.0,0.0,0.0,0.0,0.0,0.0,0.0,0.0,0.0,0.0,0.0,0.0,0.0,0.0,0.0,0.0,0.0,0.0,0.0,0.0,0.0,0.0,0.0,0.0,0.0,0.0,0.0,0.0,0.0,0.0,0.0,0.0,7.5101,0.0,0.0,0.0,0.0,0.0,0.0,0.0,0.0,0.0,0.0,0.0,0.0,0.0,0.0,0.0,0.0,0.0,0.0,0.0,0.0,0.0,0.0,0.0,0.0,0.0,0.0,0.0,0.0,0.0,0.0,0.0,0.0,0.0,0.0,0.0,0.0,0.0,0.0,0.0,0.0,0.0,0.0,0.0,0.0,0.0,0.0,0.0,0.0,0.0,0.0,0.0,0.0,0.0,0.0,0.0,0.0,0.0,0.0,0.0,7.2969,7.2617,7.2226,7.1992,7.2031,7.2851,7.332,0.0,0.0,0.0,0.0,0.0,0.0,0.0,0.0,0.0,0.0,0.0,0.0,0.0,0.0,0.0,0.0,0.0,0.0,0.0,0.0,0.0,0.0,0.0,0.0,0.0,0.0,0.0,0.0,0.0,0.0,0.0,0.0,0.0,0.0,0.0,0.0,0.0,0.0,0.0,0.0,0.0,0.0,0.0,0.0,0.0,0.0,0.0,0.0,0.0,0.0,0.0,0.0,0.0,0.0,0.0,0.0,0.0,0.0,0.0,0.0,0.0,0.0,0.0,0.0,0.0,0.0,0.0,0.0,0.0,0.0,0.0,0.0,0.0,0.0,0.0,0.0,0.0,0.0,0.0,0.0,0.0,0.0,0.0,0.0,0.0,0.0,0.0,0.0,0.0,0.0,0.0,0.0,0.0,0.0,0.0,0.0,0.0,0.0,0.0,0.0,0.0,0.0,0.0,0.0,0.0,0.0,0.0,7.3789,7.3359,7.3086,7.2383,7.1992,7.2031,7.2851,7.3359,7.3515,0.0,0.0,0.0,0.0,0.0,0.0,0.0,0.0,0.0,0.0,0.0,0.0,0.0,0.0,0.0,0.0,0.0,0.0,0.0,0.0,0.0,0.0,0.0,0.0,0.0,0.0,0.0,0.0,0.0,0.0,0.0,0.0,0.0,0.0,0.0,0.0,0.0,0.0,7.5822,7.5938,0.0,0.0,0.0,0.0,0.0,0.0,0.0,0.0,7.5361,0.0,0.0,0.0,0.0,0.0,0.0,0.0,0.0,0.0,0.0,0.0,0.0,0.0,0.0,0.0,0.0,0.0,0.0,0.0,0.0,0.0,0.0,0.0,0.0,0.0,0.0,0.0,0.0,0.0,0.0,0.0,0.0,0.0,0.0,0.0,0.0,0.0,0.0,0.0,0.0,0.0,0.0,0.0,0.0,0.0,0.0,0.0,0.0,0.0,0.0,0.0,0.0,0.0,0.0,0.0,0.0,7.457,7.4453,7.3672,7.2265,7.207,7.1992,7.2031,7.2851,7.3633,7.4375,0.0,0.0,0.0,0.0,0.0,0.0,0.0,0.0,0.0,0.0,0.0,0.0,0.0,0.0,0.0,0.0,0.0,0.0,0.0,0.0,0.0,0.0,0.0,0.0,0.0,0.0,0.0,0.0,0.0,0.0,0.0,0.0,0.0,0.0,0.0,0.0,0.0,0.0,0.0,7.5553,7.5707,0.0,0.0,0.0,0.0,0.0,0.0,0.0,0.0,7.478,0.0,0.0,0.0,0.0,0.0,0.0,0.0,0.0,0.0,0.0,0.0,0.0,0.0,0.0,0.0,0.0,0.0,0.0,0.0,0.0,0.0,0.0,0.0,0.0,0.0,0.0,0.0,0.0,0.0,0.0,0.0,0.0,0.0,0.0,0.0,0.0,0.0,0.0,0.0,0.0,0.0,0.0,0.0,0.0,0.0,0.0,0.0,0.0,0.0,0.0,0.0,0.0,0.0,0.0,0.0,7.5273,7.4844,7.418,7.3398,7.3359,7.3359,7.3359,7.375,7.4375,0.0,0.0,0.0,0.0,0.0,0.0,0.0,0.0,0.0,0.0,0.0,0.0,0.0,0.0,0.0,0.0,0.0,0.0,0.0,0.0,0.0,0.0,0.0,0.0,0.0,0.0,0.0,0.0,0.0,0.0,0.0,0.0,0.0,0.0,0.0,0.0,0.0,0.0,0.0,0.0,7.5053,7.5014,7.4207,0.0,0.0,0.0,0.0,0.0,0.0,7.4629,7.4757,0.0,0.0,0.0,0.0,0.0,0.0,0.0,0.0,0.0,0.0,0.0,0.0,0.0,0.0,0.0,0.0,0.0,0.0,0.0,0.0,0.0,0.0,0.0,0.0,0.0,0.0,0.0,0.0,0.0,0.0,0.0,0.0,0.0,0.0,0.0,0.0,0.0,0.0,0.0,0.0,0.0,0.0,0.0,0.0,0.0,0.0,0.0,0.0,0.0,0.0,0.0,0.0,0.0,0.0,0.0,7.5898,7.5195,7.4765,7.4609,7.457,7.457,7.4609,7.4765,7.5195,0.0,0.0,0.0,0.0,0.0,0.0,0.0,0.0,0.0,0.0,0.0,0.0,0.0,0.0,0.0,0.0,0.0,0.0,0.0,0.0,0.0,0.0,0.0,0.0,0.0,0.0,0.0,0.0,0.0,0.0,0.0,0.0,0.0,0.0,0.0,0.0,0.0,0.0,0.0,0.0,0.0,7.4591,7.3658,7.4322,0.0,0.0,0.0,0.0,7.4672,7.4562,0.0,0.0,0.0,0.0,0.0,0.0,0.0,0.0,0.0,0.0,0.0,0.0,0.0,0.0,0.0,0.0,0.0,0.0,0.0,0.0,0.0,0.0,0.0,0.0,0.0,0.0,0.0,0.0,0.0,0.0,0.0,0.0,0.0,0.0,0.0,0.0,0.0,0.0,0.0,0.0,0.0,0.0,0.0,0.0,0.0,0.0,0.0,0.0,0.0,0.0,0.0,0.0,0.0,0.0,0.0,0.0,7.5937,7.5781,7.5351,7.4648,7.4609,7.457,7.4609,7.5351,7.5781,0.0,0.0,0.0,0.0,0.0,0.0,0.0,0.0,0.0,0.0,0.0,0.0,0.0,0.0,0.0,0.0,0.0,0.0,0.0,0.0,0.0,0.0,0.0,0.0,0.0,0.0,0.0,0.0,0.0,0.0,0.0,0.0,0.0,0.0,0.0,0.0,0.0,0.0,0.0,0.0,0.0,7.5302,7.3793,7.4868,7.5649,0.0,0.0,7.392,7.3938,7.3373,0.0,0.0,0.0,0.0,0.0,0.0,0.0,0.0,0.0,0.0,0.0,0.0,0.0,0.0,0.0,0.0,0.0,0.0,0.0,0.0,0.0,0.0,0.0,0.0,0.0,0.0,0.0,0.0,0.0,0.0,0.0,0.0,0.0,0.0,0.0,0.0,0.0,0.0,0.0,0.0,0.0,0.0,0.0,0.0,0.0,0.0,0.0,0.0,0.0,0.0,0.0,0.0,0.0,0.0,0.0,7.6523,7.664,7.6133,7.5976,7.6094,7.6094,7.6055,7.6055,7.6445,7.664,0.0,0.0,0.0,0.0,0.0,0.0,0.0,0.0,0.0,0.0,0.0,0.0,0.0,0.0,0.0,0.0,0.0,0.0,0.0,0.0,0.0,0.0,0.0,0.0,0.0,0.0,0.0,0.0,0.0,0.0,0.0,0.0,0.0,0.0,0.0,0.0,0.0,0.0,0.0,0.0,0.0,0.0,7.3665,7.4217,0.0,0.0,0.0,7.3959,7.4363,0.0,0.0,0.0,0.0,0.0,0.0,0.0,0.0,0.0,0.0,0.0,0.0,0.0,0.0,0.0,0.0,0.0,0.0,0.0,0.0,0.0,0.0,0.0,0.0,0.0,0.0,0.0,0.0,0.0,0.0,0.0,0.0,0.0,0.0,0.0,0.0,0.0,0.0,0.0,0.0,0.0,0.0,0.0,0.0,0.0,0.0,0.0,0.0,0.0,0.0,0.0,0.0,0.0,0.0,0.0,0.0,0.0,7.7187,7.6562,7.6562,7.7148,7.7226,7.7226,7.7226,7.7226,0.0,0.0,0.0,0.0,0.0,0.0,0.0,0.0,0.0,0.0,0.0,0.0,0.0,0.0,0.0,0.0,0.0,0.0,0.0,0.0,0.0,0.0,0.0,0.0,0.0,0.0,0.0,7.5841,0.0,0.0,0.0,0.0,0.0,0.0,0.0,0.0,0.0,0.0,0.0,0.0,0.0,0.0,7.3961,7.3961,7.3961,7.3961,0.0,0.0,7.4269,7.4615,7.3627,7.3177,0.0,0.0,0.0,0.0,0.0,0.0,0.0,0.0,0.0,0.0,0.0,0.0,0.0,0.0,0.0,0.0,0.0,0.0,0.0,0.0,0.0,0.0,0.0,0.0,0.0,0.0,0.0,0.0,0.0,0.0,0.0,0.0,0.0,0.0,0.0,0.0,0.0,0.0,0.0,0.0,0.0,0.0,0.0,0.0,0.0,0.0,0.0,0.0,0.0,0.0,0.0,0.0,0.0,0.0,0.0,7.7187,7.7148,7.7148,7.7226,7.7226,7.7226,7.7226,7.7226,7.7226,0.0,0.0,0.0,0.0,0.0,0.0,0.0,0.0,0.0,0.0,0.0,0.0,0.0,0.0,0.0,0.0,0.0,0.0,0.0,0.0,0.0,0.0,0.0,0.0,0.0,0.0,0.0,0.0,0.0,0.0,0.0,0.0,0.0,0.0,0.0,0.0,0.0,0.0,0.0,0.0,0.0,7.4874,7.5079,7.4912,7.4938,0.0,7.5208,7.4899,7.4255,7.3502,7.3216,7.3751,0.0,0.0,0.0,0.0,0.0,0.0,0.0,0.0,0.0,0.0,0.0,0.0,0.0,0.0,0.0,0.0,0.0,0.0,0.0,0.0,0.0,0.0,0.0,0.0,0.0,0.0,0.0,0.0,0.0,0.0,0.0,0.0,0.0,0.0,0.0,0.0,0.0,0.0,0.0,0.0,0.0,0.0,0.0,0.0,0.0,0.0,0.0,0.0,0.0,0.0,0.0,0.0,0.0,7.7226,7.7226,7.7226,7.7226,7.7226,7.7226,7.7226,7.7226,7.7226,7.7226,0.0,0.0,0.0,0.0,0.0,0.0,0.0,0.0,0.0,0.0,0.0,0.0,0.0,0.0,0.0,0.0,0.0,0.0,0.0,0.0,0.0,0.0,0.0,0.0,0.0,0.0,0.0,0.0,7.4973,7.5039,7.4899,0.0,0.0,0.0,0.0,0.0,0.0,0.0,0.0,0.0,0.0,7.5156,7.5345,7.5333,0.0,0.0,7.5439,7.5255,7.5024,7.4237,7.3876,7.4547,7.4548,0.0,0.0,0.0,0.0,0.0,0.0,0.0,0.0,0.0,0.0,0.0,0.0,0.0,0.0,0.0,0.0,0.0,0.0,0.0,0.0,0.0,0.0,0.0,0.0,0.0,0.0,0.0,0.0,0.0,0.0,0.0,0.0,0.0,0.0,0.0,0.0,0.0,0.0,0.0,0.0,0.0,0.0,0.0,0.0,0.0,0.0,0.0,0.0,0.0,0.0,0.0,0.0,7.7226,7.7226,7.7226,7.7226,7.7226,7.7226,7.7226,7.7226,7.7226,7.7226,0.0,0.0,0.0,0.0,0.0,0.0,0.0,0.0,0.0,0.0,0.0,0.0,0.0,0.0,0.0,0.0,0.0,0.0,0.0,0.0,0.0,0.0,0.0,0.0,0.0,0.0,0.0,0.0,7.4962,7.5043,7.4938,0.0,0.0,0.0,0.0,0.0,0.0,0.0,0.0,0.0,0.0,7.5437,7.5862,7.5633,7.5521,7.5895,7.5799,7.5654,7.5446,7.4903,7.4661,7.5136,0.0,0.0,0.0,0.0,0.0,0.0,0.0,0.0,0.0,0.0,0.0,0.0,0.0,0.0,0.0,0.0,0.0,0.0,0.0,0.0,0.0,0.0,0.0,0.0,0.0,0.0,0.0,0.0,0.0,0.0,7.7226,0.0,0.0,0.0,0.0,0.0,0.0,0.0,0.0,0.0,0.0,0.0,0.0,0.0,0.0,0.0,0.0,0.0,0.0,0.0,0.0,0.0,0.0,7.7226,7.7226,7.7226,7.7226,7.7226,7.7226,7.7226,7.7226,7.7226,7.7226,7.7226,0.0,0.0,0.0,0.0,0.0,0.0,0.0,0.0,0.0,0.0,0.0,0.0,0.0,0.0,0.0,0.0,0.0,0.0,0.0,0.0,0.0,0.0,0.0,0.0,0.0,0.0,7.6245,7.544,7.4889,0.0,0.0,0.0,0.0,0.0,0.0,0.0,0.0,0.0,0.0,7.595,7.5817,7.6723,7.5932,7.5659,7.6696,7.6531,7.6052,7.5376,7.5349,7.5404,0.0,0.0,0.0,0.0,0.0,0.0,0.0,0.0,0.0,0.0,0.0,0.0,0.0,0.0,0.0,0.0,0.0,0.0,0.0,0.0,0.0,0.0,0.0,0.0,0.0,0.0,0.0,7.7226,7.7226,0.0,0.0,0.0,0.0,0.0,0.0,0.0,0.0,0.0,0.0,0.0,7.7226,7.7226,0.0,0.0,0.0,0.0,0.0,0.0,0.0,0.0,0.0,0.0,0.0,0.0,7.7226,7.7226,7.7226,7.7226,7.7226,7.7226,7.7226,7.7226,7.7226,7.7226,7.7226,0.0,0.0,0.0,0.0,0.0,0.0,0.0,0.0,0.0,0.0,0.0,0.0,0.0,0.0,0.0,0.0,0.0,0.0,0.0,0.0,0.0,0.0,0.0,0.0,0.0,7.6943,0.0,0.0,0.0,0.0,0.0,0.0,0.0,0.0,0.0,0.0,0.0,7.6582,7.6773,7.6584,7.6591,7.705,7.6763,7.6671,0.0,0.0,0.0,0.0,0.0,0.0,0.0,0.0,0.0,0.0,0.0,0.0,0.0,0.0,7.6916,7.663,7.6558,7.6494,7.648,0.0,0.0,0.0,0.0,0.0,0.0,0.0,0.0,0.0,0.0,0.0,0.0,0.0,0.0,7.7226,0.0,7.7226,0.0,0.0,0.0,0.0,0.0,0.0,0.0,0.0,7.7226,7.7226,7.7226,7.7226,7.7226,0.0,7.7226,7.7226,0.0,0.0,0.0,0.0,0.0,0.0,0.0,0.0,7.7226,7.7226,7.7226,7.7226,7.7226,7.7226,7.7226,7.7226,7.7226,7.7226,7.7226,7.7226,7.7226,0.0,0.0,0.0,0.0,0.0,0.0,0.0,0.0,0.0,0.0,0.0,0.0,0.0,0.0,0.0,0.0,0.0,0.0,0.0,0.0,0.0,0.0,0.0,7.701,0.0,0.0,0.0,0.0,0.0,0.0,0.0,0.0,0.0,7.6497,7.663,7.6766,7.6976,7.7002,7.7064,7.7183,0.0,0.0,0.0,0.0,0.0,0.0,0.0,7.7214,7.7338,7.7453,7.7492,7.757,7.775,7.7832,7.7775,0.0,0.0,7.6955,7.6731,7.6696,7.6699,7.6691,7.6723,7.671,7.6761,7.6907,0.0,0.0,0.0,0.0,0.0,0.0,0.0,0.0,7.7226,7.7226,0.0,7.7226,0.0,0.0,0.0,0.0,0.0,7.7226,0.0,0.0,7.7226,7.7226,7.7226,7.7226,7.7226,7.7226,7.7226,7.7226,7.7226,7.7226,0.0,0.0,0.0,0.0,0.0,0.0,7.7226,7.7226,7.7226,7.7226,7.7226,7.7226,7.7265,7.7305,7.7265,7.7265,7.7265,7.7226,7.7226,7.7226,7.7226,0.0,0.0,0.0,0.0,0.0,0.0,0.0,0.0,0.0,0.0,0.0,0.0,0.0,0.0,0.0,0.0,0.0,0.0,0.0,0.0,7.7031,0.0,0.0,0.0,0.0,0.0,0.0,0.0,0.0,0.0,0.0,7.6902,7.6914,7.6992,7.7148,0.0,0.0,0.0,0.0,7.6953,7.6953,7.6832,7.6745,7.6745,7.7582,7.8227,7.8227,0.0,0.0,7.9414,7.957,7.9593,7.9453,7.9468,7.918,7.7617,7.7226,7.707,7.707,7.7109,7.7031,7.7031,7.7305,7.7617,7.7226,0.0,0.0,0.0,0.0,7.7226,7.7226,7.7226,7.7226,7.7226,7.7226,7.7226,0.0,0.0,0.0,0.0,0.0,0.0,7.7226,7.7226,7.7226,7.7226,7.7226,7.7226,7.7226,7.7226,7.7226,7.7226,7.7226,7.7226,7.7226,7.7226,0.0,0.0,0.0,0.0,7.7226,7.7226,7.7226,7.7226,7.7226,7.7812,7.8398,7.8945,7.8437,7.8125,7.8125,7.7539,7.7226,7.7226,7.7226,0.0,0.0,0.0,0.0,0.0,0.0,0.0,0.0,0.0,0.0,0.0,0.0,0.0,0.0,0.0,0.0,0.0,0.0,0.0,7.7187,7.7031,7.6907,0.0,0.0,0.0,0.0,0.0,0.0,0.0,0.0,0.0,7.707,7.7109,7.7148,0.0,0.0,7.7226,7.7226,7.7695,7.8047,7.8047,7.8484,0.0,7.8815,7.8971,7.9127,7.9244,7.9512,7.9687,7.9609,7.9687,7.9683,7.9648,7.9668,7.9531,7.9101,7.8945,7.8906,7.8906,7.8906,7.8906,7.8906,7.8945,7.9023,7.7226,7.7226,7.7226,7.7226,7.7226,7.7226,7.7226,7.7226,7.7226,7.7226,7.7226,7.7226,7.7226,7.7226,7.7226,0.0,0.0,0.0,7.7226,7.7226,7.7226,7.7226,7.7226,7.7226,7.7226,7.7226,7.7226,7.7226,7.7226,7.7539,7.7695,7.7695,0.0,0.0,7.7695,7.7734,7.789,7.8164,7.8203,7.8203,7.8203,7.8711,7.9219,7.9648,7.9219,7.8984,7.8984,7.8476,7.8203,7.8203,7.789,7.7695,0.0,0.0,0.0,0.0,0.0,0.0,0.0,0.0,0.0,0.0,0.0,7.7148,7.7031,0.0,0.0,0.0,7.7128,7.7226,7.7226,7.707,0.0,0.0,0.0,0.0,0.0,0.0,0.0,7.7026,7.7309,7.7578,7.7695,7.8008,7.8086,7.7773,7.8008,7.8203,7.8203,0.0,7.8984,7.8984,7.9375,7.9726,7.9726,7.9883,8.0195,8.0664,8.0742,8.0742,8.0742,8.0742,8.0742,8.0742,8.0742,8.0742,8.0742,8.0742,8.0469,7.9844,7.9726,7.9726,7.9726,7.9726,7.9805,7.7226,7.7226,7.7226,7.7226,7.7226,7.7226,7.7226,7.7226,7.7226,7.7226,7.7226,7.7226,7.7226,7.7226,7.7226,0.0,7.7226,7.7226,7.7226,7.7226,7.7226,7.7226,7.7226,7.7265,7.7305,7.7305,7.7383,7.7383,7.7461,7.8203,7.8594,7.8555,7.7773,7.7812,7.8555,7.8594,7.8945,7.9687,7.9687,7.9726,7.9805,7.9805,7.9844,7.9922,7.9844,7.9805,7.9805,7.9726,7.9726,7.9687,7.8984,7.8594,7.8594,0.0,0.0,0.0,0.0,0.0,0.0,0.0,0.0,0.0,0.0,0.0,0.0,0.0,0.0,0.0,7.7189,0.0,7.7226,7.7226,0.0,0.0,0.0,7.7031,7.7265,7.7148,7.7109,7.7383,0.0,0.0,7.8594,7.9297,7.9531,7.8789,7.9297,7.9726,7.9726,7.9726,7.9805,7.9805,7.9883,7.9922,8.0117,8.0625,8.1289,8.1992,8.2304,8.2226,8.2187,8.2226,8.2265,8.2187,8.2304,8.2265,8.2304,8.2187,8.1797,8.0273,7.9961,7.9961,8.0039,8.0078,8.0273,7.7226,7.7226,7.7226,7.7226,7.7226,7.7226,7.7226,7.7226,7.7226,7.7226,7.7226,7.7226,7.7226,7.7226,7.7226,7.7226,7.7226,7.7226,7.7226,7.7226,7.7226,7.7226,7.7226,7.789,7.8203,7.8242,7.8828,7.9101,7.9101,7.9297,7.9414,7.9414,7.918,7.9219,7.9414,7.9414,7.9492,7.9687,7.9726,8.0039,8.0664,8.0664,8.1015,8.1679,8.1015,8.0703,8.0703,8.0039,7.9726,7.9687,7.9531,7.9414,7.9414,7.9219,0.0,0.0,0.0,0.0,0.0,0.0,0.0,0.0,0.0,7.7226,7.7226,0.0,7.7144,0.0,7.7217,7.7226,7.7226,7.7226,0.0,0.0,7.7148,7.7422,7.8086,7.8125,7.8359,7.9023,7.9297,7.9414,7.9414,8.0156,8.0625,8.0429,8.0,7.9726,7.9726,8.0273,8.0703,8.0742,8.1211,8.1679,8.164,8.1836,8.207,8.2265,8.2304,8.2304,8.2304,8.2304,8.2304,8.2304,8.2304,8.2304,8.2304,8.2304,8.2187,8.1758,8.1679,8.1679,8.1679,8.1679,8.1719,7.7226,7.7226,7.7226,7.7226,7.7226,7.7226,7.7226,7.7226,7.7226,7.7226,7.7226,7.7226,7.7226,7.7226,7.7226,7.7422,7.7773,7.7773,7.7969,7.832,7.832,7.832,7.832,7.8789,7.9023,7.9062,7.9492,7.9726,7.9726,8.0078,8.0273,8.0273,8.0664,8.0859,8.082,8.0469,8.0469,8.082,8.0859,8.1094,8.1562,8.1562,8.1797,8.2265,8.1836,8.1601,8.1562,8.1133,8.0859,8.0859,8.0469,8.0273,8.0273,7.9922,7.9492,0.0,0.0,0.0,0.0,0.0,0.0,0.0,0.0,0.0,0.0,0.0,7.7226,7.7226,7.7226,7.7344,7.7734,7.7773,7.793,7.8281,7.832,7.8515,7.8984,7.9062,7.9219,7.9648,8.0039,8.0273,8.0273,8.1054,8.1562,8.1601,8.1172,8.0859,8.0898,8.1289,8.1562,8.1601,8.1992,8.2304,8.2304,8.2304,8.2304,8.2304,8.2304,8.2304,8.2304,8.2304,8.2304,8.2304,8.2304,8.2304,8.2304,8.2304,8.2304,8.2304,8.2304,8.2304,8.2304,8.2304,8.2304,7.7539,7.7539,7.75,7.75,7.75,7.7539,7.7461,7.7383,7.75,7.7539,7.7539,7.75,7.75,7.7539,7.7539,7.793,7.8633,7.8672,7.9023,7.9687,7.9726,7.9726,7.9726,7.9805,7.9844,7.9883,7.9961,8.0039,8.0039,8.0781,8.1172,8.1211,8.1914,8.2304,8.2265,8.1523,8.1523,8.2304,8.2304,8.2304,8.2304,8.2304,8.2304,8.2304,8.2304,8.2304,8.2304,8.2304,8.2304,8.2265,8.1562,8.1172,8.1172,8.0429,8.0,0.0,7.9883,0.0,0.0,0.0,0.0,0.0,0.0,0.0,0.0,7.75,7.75,7.7539,7.75,7.7812,7.8594,7.8672,7.8945,7.9609,7.9726,7.9726,7.9844,7.9883,7.9922,8.0,8.0703,8.1172,8.1172,8.1836,8.2304,8.2265,8.2187,8.2148,8.2265,8.2226,8.2226,8.2304,8.2304,8.2304,8.2304,8.2304,8.2304,8.2304,8.2304,8.2304,8.2304,8.2304,8.2304,8.2304,8.2422,8.25,8.2461,8.2578,8.2695,8.2773,8.2773,8.2656,8.2383,8.2304,8.2304,7.9219,7.9219,7.9219,7.9219,7.9219,7.9219,7.8867,7.832,7.8945,7.9219,7.9219,7.9219,7.9219,7.9219,7.9219,7.9297,7.9492,7.9453,7.957,7.9726,7.9726,7.9726,7.9765,8.0429,8.0742,8.0781,8.1484,8.1797,8.1797,8.1992,8.2031,8.207,8.2226,8.2304,8.2304,0.0,0.0,0.0,8.2304,8.2304,8.2304,8.2304,8.2304,8.2304,8.2304,0.0,8.2304,8.2304,8.2304,8.2304,8.2148,0.0,0.0,0.0,0.0,0.0,0.0,0.0,0.0,0.0,0.0,0.0,7.9414,7.9219,7.9219,7.9219,7.9219,7.9219,7.9219,7.9297,7.9453,7.9453,7.9531,7.9687,7.9726,7.9961,8.0625,8.0781,8.1015,8.1719,8.1953,8.2031,8.2031,8.2226,8.2304,8.2304,8.2304,8.2304,8.2344,8.2344,8.2304,8.2304,8.2422,8.2344,8.2304,8.2383,8.2461,8.2304,8.2304,8.2344,8.2383,8.2383,8.2344,8.2383,8.289,8.3359,8.3359,8.3906,8.4297,8.4414,8.4375,8.3984,8.2617,8.2304,8.2304,7.9726,0.0,7.9726,7.9726,0.0,8.0156,8.0117,7.9726,7.9726,7.9726,7.9726,7.9726,7.9726,7.9726,7.9726,7.9922,8.0351,8.0351,8.0586,8.0976,8.0976,8.0976,8.0976,8.1445,8.164,8.164,8.207,8.2304,8.2304,8.2304,8.2304,8.2304,8.2304,8.25,8.2929,8.3359,8.3164,8.2304,8.2304,8.2304,8.2304,8.2304,8.2304,8.2304,8.2304,0.0,0.0,0.0,0.0,0.0,0.0,0.0,0.0,8.2304,0.0,8.1679,8.164,8.1445,8.1015,8.1015,8.0976,8.0976,8.0976,8.0625,7.9765,7.9726,7.9726,7.9726,7.9726,7.9883,8.0312,8.0351,8.0508,8.0937,8.0976,8.1172,8.1562,8.164,8.1797,8.2187,8.2304,8.2304,8.2304,8.2304,8.2304,8.2344,8.2695,8.2929,8.289,8.2578,8.2422,8.2851,8.3359,8.3594,8.3594,8.3594,8.3554,8.3594,8.3594,8.3554,8.3594,8.3554,8.3554,8.3633,8.3945,8.4219,8.4258,8.4609,8.4883,8.4883,8.4883,8.4687,8.375,8.3594,8.3594,8.0156,8.0156,8.0156,8.0156,8.0234,8.0937,8.125,8.1172,0.0,0.0,0.0,8.0156,8.0156,8.0156,8.0156,8.0547,8.1211,8.125,8.1601,8.2304,8.2304,8.2304,8.2304,8.2304,8.2304,8.2304,8.2461,8.2539,8.2539,8.2695,8.2734,8.2773,8.2773,8.3125,8.3828,8.4531,8.4179,8.2851,8.2734,8.2773,8.2773,8.2773,8.2734,8.2773,8.2773,8.2695,8.2539,8.2539,8.2461,8.2304,8.2304,8.2304,8.2304,8.2304,8.2304,8.2304,8.2304,8.2304,8.2304,8.2304,8.2304,8.2304,8.2304,8.1679,8.0234,8.0156,8.0156,8.0156,8.0156,8.0469,8.1172,8.1211,8.1523,8.2226,8.2304,8.2304,8.2304,8.2304,8.2265,8.2304,8.2304,8.2383,8.2539,8.2578,8.2617,8.2812,8.3437,8.3828,8.375,8.3281,8.3125,8.375,8.4297,8.4804,8.4883,8.4804,8.4883,8.4765,8.4804,8.4883,8.4883,8.4883,8.4883,8.4765,8.5,8.5117,8.5117,8.5351,8.5351,8.5351,8.5351,8.5351,8.5351,8.5351,8.5234,8.1914,8.1953,8.1953,8.1953,8.1953,8.207,8.2109,8.2109,8.1992,8.1914,8.1914,8.1914,8.1914,8.1953,8.1953,8.1992,8.2109,8.2109,8.2187,8.2304,8.2304,8.2304,8.2304,8.2304,8.2304,8.2383,8.3047,8.3398,8.3476,8.4179,8.4531,8.4492,8.4531,8.4609,8.4687,8.4844,8.4765,8.4531,8.4531,8.4531,8.4531,8.4531,8.4531,8.4531,8.4531,8.4179,8.3437,8.3398,8.3047,8.2344,8.2304,8.2304,8.2304,8.2304,8.2304,8.2304,8.2304,8.2304,8.2304,8.2304,8.2304,8.2304,8.2304,8.2187,8.1992,8.1914,8.1914,8.1953,8.1875,8.1953,8.2109,8.207,8.2109,8.2265,8.2304,8.2304,8.2304,8.2344,8.2344,8.2383,8.2304,8.2695,8.3281,8.3437,8.3672,8.4297,8.4531,8.4726,8.4765,8.4609,8.457,8.4687,8.4804,8.4883,8.5078,8.4922,8.5039,8.4883,8.5039,8.5117,8.5117,8.5117,8.5117,8.4961,8.5586,8.5976,8.6015,8.664,8.6875,8.6914,8.6914,8.6953,8.6914,8.6953,8.6601,8.2304,8.2304,8.2304,8.2304,8.2304,8.2304,8.2304,8.2344,8.2812,8.2734,8.2304,8.2304,8.2304,8.2304,8.2304,8.2304,8.2304,8.2304,8.2304,8.2344,8.2773,8.3008,8.3047,8.3476,8.3711,8.375,8.4101,8.4297,8.4336,8.4726,8.4883,8.4922,8.5351,8.5586,8.5625,8.6094,8.6328,8.6289,8.539,8.4883,8.4883,8.4883,8.4883,8.4883,8.4883,8.4726,8.4336,8.4297,8.414,8.3711,8.3242,8.3008,8.3008,8.2539,8.2304,8.2304,8.2304,8.2304,8.2304,8.2304,8.2304,8.2304,8.2304,8.2304,8.2304,8.2304,8.2304,8.2304,8.2304,8.2304,8.2304,8.2304,8.2304,8.2304,8.2304,8.2304,8.2383,8.2734,8.3008,8.3047,8.3437,8.3867,8.4258,8.4297,8.4414,8.4883,8.5234,8.5742,8.6211,8.6289,8.6133,8.5742,8.5976,8.6289,8.6289,8.6328,8.6328,8.6328,8.6328,8.6328,8.6328,8.6289,8.6289,8.6289,8.664,8.6875,8.6914,8.7187,8.7461,8.75,8.75,8.75,8.75,8.75,8.7187,8.2456,8.2242,8.2732,8.289,8.289,8.289,8.289,8.2969,8.3594,8.3515,8.2929,8.289,8.289,8.289,8.289,8.289,8.289,8.289,8.289,8.2969,8.3554,8.3906,8.3945,8.4609,8.4883,8.4922,8.5078,8.5195,8.5234,8.539,8.5469,8.5547,8.6172,8.6562,8.6758,8.7422,8.7851,8.7969,8.6758,8.5976,8.5742,8.5742,8.5859,8.6054,8.6094,8.5976,8.5781,8.5586,8.539,8.5156,8.4336,8.3867,8.3867,8.3242,8.289,8.289,8.289,8.2812,8.2578,8.2422,8.2383,8.2578,8.2578,8.2656,8.2851,8.289,8.2695,8.2383,8.2304,8.2383,8.2578,8.2617,8.2656,8.2851,8.289,8.2969,8.2969,8.3476,8.3867,8.3984,8.4492,8.4922,8.5117,8.5195,8.5312,8.5625,8.6094,8.6758,8.7344,8.75,8.7187,8.6875,8.707,8.7383,8.75,8.7422,8.7422,8.75,8.7422,8.7344,8.7344,8.7422,8.7461,8.7344,8.7422,8.7422,8.75,8.7695,8.7812,8.7851,8.8047,8.8164,8.8203,8.8203,8.789,8.2872,8.2426,8.3833,8.4648,8.457,8.457,8.4531,8.4609,8.4765,8.4726,8.4609,8.4687,8.4648,8.4648,8.4609,8.457,8.457,8.4648,8.4609,8.4609,8.4726,8.4804,8.4804,8.4883,8.4922,8.5039,8.5703,8.6054,8.6133,8.6797,8.7226,8.7265,8.7344,8.7734,8.8398,8.8554,8.8984,8.9726,8.9609,8.914,8.8398,8.8359,8.875,8.9531,8.9492,8.914,8.8281,8.7656,8.6875,8.6094,8.5273,8.4804,8.4765,8.4687,8.4648,8.4609,8.4609,8.4336,8.3554,8.2734,8.2695,8.3359,8.3476,8.3789,8.4492,8.4609,8.3945,8.2812,8.2383,8.2734,8.3359,8.3476,8.375,8.4336,8.4492,8.4648,8.457,8.4726,8.4765,8.4765,8.4961,8.5195,8.5937,8.6054,8.6367,8.6914,8.707,8.7344,8.7578,8.7617,8.7656,8.7461,8.7539,8.7578,8.7578,8.75,8.7656,8.7617,8.7578,8.7695,8.7773,8.7734,8.7539,8.8008,8.7695,8.7734,8.7851,8.8008,8.8594,8.8672,8.9062,8.9648,8.9765,8.9609,8.914,8.244,8.2201,8.2948,8.3575,8.3984,8.3476,8.3867,8.4883,8.4883,8.5156,8.5703,8.6211,8.5859,8.4922,8.4883,8.4883,8.4883,8.4883,8.4883,8.4961,8.5429,8.5664,8.5703,8.6211,8.6445,8.6445,8.6797,8.6953,8.7031,8.7344,8.7734,8.8164,8.8203,8.8633,8.9414,8.9453,8.9648,9.0,9.0,9.0078,9.0195,8.9726,8.9648,8.9961,9.0,8.9883,8.9492,8.914,8.8828,8.8437,8.7617,8.6914,8.6445,8.5937,8.5429,8.4961,8.4883,8.4765,8.4375,8.4023,8.3984,8.4336,8.4375,8.4531,8.4844,8.4883,8.4531,8.3984,8.3828,8.4023,8.4336,8.4375,8.4531,8.4844,8.4883,8.4922,8.4922,8.539,8.5664,8.5703,8.6133,8.6523,8.6875,8.6953,8.7109,8.7461,8.75,8.7656,8.8086,8.8203,8.8437,8.8867,8.8984,8.8711,8.8359,8.8203,8.8398,8.8789,8.8984,8.8984,8.8906,8.8984,8.8984,8.8945,8.8867,8.8867,8.9062,8.914,8.9453,8.9609,8.9609,9.0,9.0,9.0,8.9609,8.2941,8.2786,8.298,8.3636,8.4424,8.3787,8.4253,8.5444,8.5465,8.5859,8.6523,8.7148,8.6752,8.5639,8.5582,8.5625,8.5625,8.5586,8.5625,8.5664,8.6289,8.6562,8.664,8.7187,8.75,8.75,8.7461,8.7578,8.7812,8.8125,8.8515,8.8984,8.9062,8.9492,9.0273,9.0351,9.0469,9.0703,9.0703,9.1015,9.1484,9.1015,9.0703,9.0703,9.0703,9.0703,9.0703,9.0469,9.0351,9.0312,8.9531,8.8789,8.8242,8.7578,8.6953,8.6367,8.6054,8.582,8.5625,8.539,8.5273,8.5234,8.5273,8.5351,8.5547,8.5625,8.5625,8.5625,8.5625,8.5547,8.5273,8.5273,8.5351,8.5547,8.5625,8.5625,8.5703,8.6211,8.6562,8.664,8.6992,8.75,8.75,8.7461,8.7539,8.7812,8.7851,8.8125,8.8828,8.9062,8.9297,8.9883,8.9961,8.9726,8.9179,8.9062,8.9414,8.9687,8.9883,8.9844,9.0,9.0,8.9961,8.9531,8.9883,8.9961,8.9765,8.9922,9.0508,9.0664,9.0703,9.0703,9.0937,9.0781,9.0742,8.5117,8.4456,8.5253,8.599,8.6955,8.6762,8.6893,8.6927,8.699,8.707,8.707,8.7187,8.7166,8.7033,8.7141,8.7344,8.7344,8.7226,8.7226,8.7226,8.7344,8.7422,8.7461,8.75,8.7539,8.7617,8.7734,8.8008,8.8672,8.9414,8.9922,8.9922,8.9922,9.039,9.1133,9.125,9.164,9.2226,9.2304,9.2422,9.2461,9.2461,9.2344,9.2344,9.2422,9.2344,9.2304,9.164,9.125,9.125,9.0469,8.9961,8.9883,8.9765,8.9609,8.9531,8.8906,8.8164,8.7383,8.6719,8.6289,8.625,8.6367,8.6523,8.7304,8.7383,8.7344,8.7344,8.7265,8.6992,8.6289,8.6133,8.6445,8.707,8.7265,8.7226,8.7304,8.7187,8.7422,8.7383,8.75,8.7695,8.7617,8.75,8.7969,8.8437,8.8672,8.8984,8.9687,8.9961,9.0039,9.0156,9.0195,9.0039,8.9961,8.9961,8.9961,9.0351,9.0586,9.0195,9.0039,9.0,9.0078,9.0156,9.0351,9.0429,9.0273,9.0664,9.1445,9.1836,9.2031,9.2109,9.1836,9.2265,9.2187,8.4709,8.4418,8.4767,8.5447,8.6223,8.5648,8.6086,8.7117,8.6568,8.6637,8.7105,8.7196,8.7215,8.7273,8.7347,8.7386,8.7383,8.7383,8.7422,8.75,8.75,8.75,8.7539,8.8008,8.8281,8.832,8.8828,8.9258,8.9492,8.9883,9.0312,9.0781,9.0859,9.1289,9.1992,9.2109,9.2304,9.2578,9.2578,9.2578,9.2578,9.2578,9.2578,9.2578,9.2578,9.2578,9.2578,9.2304,9.2109,9.2109,9.1797,9.1406,9.0859,9.0312,9.0,8.9961,8.9726,8.9414,8.9101,8.8828,8.8633,8.8633,8.8633,8.8633,8.9023,8.9062,8.8867,8.8398,8.8281,8.789,8.7265,8.7031,8.7148,8.7422,8.75,8.7539,8.75,8.75,8.75,8.7578,8.789,8.8476,8.8867,8.9101,8.9219,8.9453,8.9531,8.9922,9.0586,9.0859,9.0976,9.1484,9.1679,9.1679,9.1679,9.1133,9.0976,9.1484,9.1719,9.1679,9.1601,9.1445,9.1523,9.1406,9.1406,9.1367,9.1406,9.1523,9.2265,9.2344,9.2578,9.2578,9.2578,9.2578,9.2578,8.5253,8.5233,8.5233,8.5583,8.6049,8.5505,8.5972,8.702,8.6477,8.671,8.7468,8.7584,8.7779,8.805,8.8089,8.811,8.8039,8.7656,8.7539,8.789,8.789,8.8047,8.8359,8.8867,8.9101,8.9258,9.0,9.0429,9.0469,9.0703,9.1133,9.1679,9.1719,9.1992,9.25,9.2578,9.2578,9.2578,9.2578,9.2578,9.2578,9.2578,9.2578,9.2578,9.2578,9.2578,9.2578,9.2578,9.2578,9.2578,9.2578,9.2344,9.1719,9.1172,9.082,9.0859,9.0859,9.0703,9.0469,9.039,9.0273,9.0,9.0,9.0,9.0,9.0,8.9687,8.9258,8.9101,8.8867,8.8476,8.832,8.8203,8.7969,8.789,8.8008,8.8281,8.8359,8.8359,8.8476,8.8828,8.9375,8.9844,8.9961,9.0117,9.0351,9.0429,9.0781,9.1484,9.1758,9.1875,9.2461,9.2461,9.2422,9.2344,9.1914,9.1679,9.2148,9.2265,9.25,9.2578,9.2578,9.2578,9.2578,9.2578,9.2578,9.2578,9.2578,9.2578,9.2578,9.2578,9.2578,9.2578,9.2578,9.2578,8.6943,8.6943,8.6982,8.6982,8.7098,8.702,8.702,8.7176,8.7137,8.7623,8.8322,8.84,8.8826,8.9508,8.9488,8.9683,8.9411,8.8305,8.8086,8.8672,8.8711,8.9101,8.9765,8.9922,9.0078,9.0195,9.0898,9.1289,9.1328,9.1992,9.2422,9.2539,9.2461,9.2461,9.2578,9.2578,9.2578,9.2578,9.2578,9.2578,9.2578,9.2578,9.2578,9.2578,9.2578,9.2578,9.2578,9.2578,9.2578,9.2578,9.2578,9.2578,9.25,9.2383,9.25,9.2383,9.25,9.2109,9.1445,9.1328,9.0937,9.0469,9.0156,9.0312,9.0351,9.0312,9.0195,9.0039,9.0,8.9922,8.9844,8.9765,8.9492,8.8867,8.8711,8.9023,8.9609,8.9922,9.0,8.9922,9.0,9.0039,9.0078,9.0312,9.0625,9.1133,9.1328,9.1562,9.2226,9.2383,9.2539,9.2578,9.2578,9.2578,9.2578,9.2578,9.2539,9.2578,9.2539,9.2578,9.2578,9.2578,9.2578,9.2578,9.2578,9.2578,9.2578,9.2578,9.2578,9.2578,9.2578,9.2578,9.2578,9.2578,9.2578,8.7331,8.7875,8.7875,8.8225,8.8672,8.8711,8.8711,8.8711,8.8711,8.8866,8.9137,8.9174,8.9376,8.9683,8.974,8.9778,8.9781,8.93,8.9281,8.957,8.9609,8.9765,9.0117,9.0625,9.1211,9.1758,9.2031,9.2187,9.2226,9.2461,9.2578,9.2578,9.2578,9.2578,9.2578,9.2578,9.2578,9.2578,9.2578,9.2578,9.2578,9.2578,9.2578,9.2578,9.2578,9.2578,9.2578,9.2578,9.2578,9.2578,9.2578,9.2578,9.2578,9.2578,9.2578,9.2578,9.2578,9.2539,9.2265,9.2187,9.2031,9.1797,9.1758,9.1797,9.1797,9.1719,9.1484,9.1015,9.0859,9.0703,9.0156,9.0,8.9922,8.9609,8.9609,8.9687,9.0078,9.0078,9.0312,9.0781,9.0898,9.1133,9.1601,9.1719,9.1758,9.1992,9.2148,9.2344,9.25,9.2578,9.2578,9.2578,9.2578,9.2578,9.2578,9.2578,9.2578,9.2578,9.2578,9.2578,9.2578,9.2578,9.2578,9.2578,9.2578,9.2578,9.2578,9.2578,9.2578,9.2578,9.2578,9.2578,9.2578,9.2578,9.2578,8.8225,8.873,8.873,8.9002,8.9488,8.9527,8.9527,8.9507,8.9507,8.9701,8.9954,9.0027,9.0288,9.0596,9.0651,9.0693,9.0711,9.0732,9.0758,9.0797,9.0543,9.0625,9.0937,9.1484,9.1992,9.2461,9.2578,9.2578,9.2578,9.2578,9.2578,9.2578,9.2578,9.2578,9.2578,9.2578,9.2578,9.2578,9.2578,9.2578,9.2578,9.2578,9.2578,9.2578,9.2578,9.2578,9.2578,9.2578,9.2578,9.2578,9.2578,9.2578,9.2578,9.2578,9.2578,9.2578,9.2578,9.2578,9.2578,9.2539,9.2578,9.2578,9.2578,9.2578,9.2578,9.2578,9.2304,9.1914,9.1797,9.1562,9.1094,9.0976,9.0937,9.0976,9.0664,9.0664,9.0859,9.0976,9.1172,9.1679,9.1758,9.207,9.2422,9.2578,9.2578,9.2578,9.2578,9.2578,9.2578,9.2578,9.2578,9.2578,9.2578,9.2578,9.2578,9.2578,9.2578,9.2578,9.2578,9.2578,9.2578,9.2578,9.2578,9.2578,9.2578,9.2578,9.2578,9.2578,9.2578,9.2578,9.2578,9.2578,9.2578,9.2578,9.2578,8.9507,8.9584,8.9584,8.9662,8.9779,8.9779,8.9856,8.9758,8.9758,9.0263,9.0828,9.0927,9.1374,9.2071,9.1954,9.1975,9.2226,9.2053,9.2014,9.1887,9.1592,9.1601,9.2226,9.2344,9.2422,9.25,9.2539,9.2578,9.2578,9.2578,9.2578,9.2578,9.2578,9.2578,9.2578,9.2578,9.2578,9.2578,9.2578,9.2578,9.2578,9.2578,9.2578,9.2578,9.2578,9.2578,9.2578,9.2578,9.2578,9.2578,9.2578,9.2578,9.2578,9.2578,9.2578,9.2578,9.2578,9.2578,9.2578,9.2578,9.2578,9.2578,9.2578,9.2578,9.2578,9.2578,9.2539,9.2461,9.2461,9.25,9.2422,9.2383,9.2383,9.2422,9.1758,9.1719,9.2422,9.2461,9.2344,9.2422,9.2578,9.2578,9.2578,9.2578,9.2578,9.2578,9.2578,9.2578,9.2578,9.2578,9.2578,9.2578,9.2578,9.2578,9.2578,9.2578,9.2578,9.2578,9.2578,9.2578,9.2578,9.2578,9.2578,9.2578,9.2578,9.2578,9.2578,9.2578,9.2578,9.2578,9.2578,9.2578,9.2578,9.2578,9.2578,8.9874,9.0439,9.0478,9.0828,9.1371,9.141,9.141,9.141,9.135,9.1449,9.176,9.1799,9.1877,9.2148,9.2148,9.2148,9.2187,9.2148,9.2187,9.2208,9.2052,9.2091,9.2322,9.2373,9.2432,9.2489,9.2432,9.2422,9.25,9.2461,9.2422,9.25,9.2539,9.2578,9.2578,9.2578,9.2578,9.2578,9.2578,9.2578,9.2578,9.2578,9.2578,9.2578,9.2578,9.2578,9.2578,9.2578,9.2578,9.2578,9.2578,9.2578,9.2578,9.2578,9.2578,9.2578,9.2578,9.2578,9.2578,9.2578,9.2578,9.2578,9.2578,9.2578,9.2578,9.2578,9.2578,9.2578,9.2578,9.2578,9.2578,9.2578,9.2578,9.2578,9.2304,9.2265,9.25,9.2578,9.2578,9.2578,9.2578,9.2578,9.2578,9.2578,9.2578,9.2578,9.2578,9.2578,9.2578,9.2578,9.2578,9.2578,9.2578,9.2578,9.2578,9.2578,9.2578,9.2578,9.2578,9.2578,9.2578,9.2578,9.2578,9.2578,9.2578,9.2578,9.2578,9.2578,9.2578,9.2578,9.2578,9.2578,9.2578,9.2578,9.2578,9.0884,9.1333,9.1333,9.1643,9.2071,9.211,9.211,9.211,9.211,9.211,9.211,9.211,9.211,9.211,9.211,9.211,9.211,9.211,9.211,9.2148,9.2131,9.2199,9.2237,9.2286,9.2338,9.2362,9.2321,9.237,9.2383,9.2334,9.2334,9.2383,9.2414,9.2422,9.2461,9.2539,9.2539,9.2578,9.2539,9.2539,9.2578,9.2578,9.2539,9.2578,9.2578,9.2578,9.2578,9.2578,9.2578,9.2578,9.2578,9.2578,9.2578,9.2578,9.2578,9.2578,9.2578,9.2578,9.2578,9.2578,9.2578,9.2578,9.2578,9.2578,9.2578,9.2578,9.2578,9.2578,9.2578,9.2578,9.2578,9.2578,9.2578,9.2578,9.2578,9.2578,9.2578,9.2578,9.2578,9.2578,9.2578,9.2578,9.2578,9.2578,9.2578,9.2578,9.2578,9.2578,9.2578,9.2578,9.2578,9.2578,9.2578,9.2578,9.2578,9.2578,9.2578,9.2578,9.2578,9.2578,9.2578,9.2578,9.2578,9.2578,9.2578,9.2617,9.2695,9.2695,9.2578,9.2578,9.2578,9.2656,9.2734,9.2969,9.2929,9.211,9.211,9.211,9.211,9.211,9.211,9.211,9.211,9.211,9.211,9.211,9.211,9.211,9.211,9.211,9.211,9.211,9.211,9.211,9.211,9.211,9.2132,9.2191,9.2249,9.2268,9.2229,9.2286,9.2286,9.2288,9.2249,9.2306,9.2321,9.2311,9.229,9.2344,9.2422,9.2461,9.2461,9.2461,9.2461,9.2461,9.25,9.25,9.25,9.2578,9.2578,9.2578,9.2578,9.2578,9.2578,9.2578,9.2578,9.2578,9.2578,9.2578,9.2578,9.2578,9.2578,9.2578,9.2578,9.2578,9.2578,9.2578,9.2578,9.2578,9.2578,9.2578,9.2578,9.2578,9.2578,9.2578,9.2578,9.2578,9.2578,9.2578,9.2578,9.2578,9.2578,9.2578,9.2578,9.2578,9.2578,9.2578,9.2578,9.2578,9.2578,9.2578,9.2578,9.2578,9.2578,9.2578,9.2578,9.2578,9.2578,9.2578,9.2578,9.2578,9.2578,9.2578,9.2578,9.2578,9.2578,9.2578,9.2578,9.2578,9.2773,9.3008,9.2929,9.2851,9.3164,9.3554,9.332,9.3047,9.3476,9.3594,9.211,9.211,9.211,9.211,9.211,9.211,9.211,9.211,9.211,9.211,9.211,9.211,9.211,9.211,9.211,9.211,9.211,9.211,9.211,9.211,9.211,9.211,9.211,9.2148,9.2187,9.2187,9.2148,9.2187,9.2187,9.2187,9.2187,9.2229,9.2226,9.2238,9.2293,9.2338,9.2334,9.2344,9.2344,9.2344,9.2391,9.2518,9.2617,9.2656,9.2695,9.2656,9.2617,9.2578,9.2578,9.2578,9.2578,9.2578,9.2578,9.2578,9.2578,9.2578,9.2578,9.2578,9.2578,9.2578,9.2578,9.2578,9.2578,9.2578,9.2578,9.2578,9.2578,9.2578,9.2578,9.2578,9.2578,9.2578,9.2578,9.2578,9.2578,9.2578,9.2578,9.2578,9.2578,9.2578,9.2578,9.2578,9.2578,9.2578,9.2578,9.2578,9.2578,9.2578,9.2578,9.2578,9.2578,9.2578,9.2578,9.2578,9.2578,9.2578,9.2578,9.2578,9.2578,9.2812,9.2812,9.2812,9.289,9.2773,9.2578,9.289,9.3476,9.3672,9.3711,9.414,9.4492,9.4297,9.414,9.4336,9.4297,9.211,9.211,9.211,9.211,9.211,9.211,9.211,9.211,9.211,9.211,9.211,9.211,9.211,9.211,9.211,9.211,9.211,9.211,9.211,9.211,9.211,9.211,9.211,9.211,9.211,9.2148,9.211,9.211,9.2148,9.2148,9.211,9.2148,9.2148,9.2151,9.2226,9.2226,9.2282,9.2249,9.2266,9.2274,9.2326,9.2791,9.3366,9.3672,9.3789,9.3828,9.3867,9.3437,9.3242,9.3125,9.2851,9.2617,9.2617,9.2578,9.2578,9.2578,9.2578,9.2578,9.2578,9.2578,9.2578,9.2578,9.2578,9.2578,9.2578,9.2578,9.2578,9.2578,9.2578,9.2578,9.2578,9.2578,9.2578,9.2578,9.2578,9.2578,9.2578,9.2578,9.2578,9.2578,9.2578,9.2578,9.2578,9.2578,9.2578,9.2578,9.2578,9.2578,9.2578,9.2578,9.2578,9.2578,9.2578,9.2578,9.2578,9.2578,9.2578,9.2578,9.2578,9.3008,9.332,9.3281,9.3281,9.3242,9.3281,9.3711,9.4219,9.4375,9.457,9.4765,9.4961,9.5117,9.5156,9.5,9.4922,9.211,9.211,9.211,9.211,9.211,9.211,9.211,9.211,9.211,9.211,9.211,9.211,9.211,9.211,9.211,9.211,9.211,9.211,9.211,9.211,9.211,9.211,9.211,9.211,9.211,9.211,9.211,9.211,9.211,9.211,9.211,9.211,9.211,9.211,9.211,9.2148,9.219,9.2171,9.2171,9.2191,9.2286,9.2869,9.3652,9.4453,9.4609,9.4765,9.4726,9.4453,9.4101,9.4023,9.3398,9.3047,9.2929,9.2656,9.2578,9.2578,9.2578,9.2578,9.2578,9.2578,9.2578,9.2578,9.2578,9.2578,9.2578,9.2578,9.2578,9.2578,9.2578,9.2578,9.2578,9.2578,9.2578,9.2578,9.2578,9.2578,9.2578,9.2578,9.2578,9.2578,9.2578,9.2578,9.2578,9.2578,9.2578,9.2578,9.2578,9.2578,9.2578,9.2578,9.2578,9.2578,9.2578,9.2578,9.2578,9.2695,9.2656,9.2969,9.289,9.3398,9.3906,9.4062,9.4101,9.4101,9.4258,9.4648,9.5,9.5312,9.5429,9.5429,9.5703,9.6133,9.5976,9.5625,9.5625,9.211,9.211,9.211,9.211,9.211,9.211,9.211,9.211,9.211,9.211,9.211,9.211,9.211,9.211,9.211,9.211,9.211,9.211,9.211,9.211,9.211,9.211,9.211,9.211,9.211,9.211,9.211,9.211,9.211,9.211,9.211,9.211,9.211,9.211,9.211,9.211,9.2148,9.2148,9.211,9.211,9.2226,9.254,9.3204,9.4179,9.4414,9.4726,9.5156,9.5117,9.4961,9.4961,9.4844,9.4726,9.4375,9.3398,9.2851,9.2695,9.2617,9.2578,9.2578,9.2578,9.2578,9.2578,9.2578,9.2578,9.2578,9.2578,9.2578,9.2578,9.2578,9.2578,9.2578,9.2578,9.2578,9.2578,9.2578,9.2578,9.2578,9.2578,9.2578,9.2578,9.2578,9.2578,9.2578,9.2578,9.2578,9.2578,9.2578,9.2578,9.2578,9.2578,9.2578,9.2578,9.2578,9.2578,9.2578,9.2734,9.2851,9.3476,9.3711,9.4179,9.4609,9.4883,9.5,9.5195,9.5234,9.539,9.5781,9.6172,9.6445,9.6562,9.6914,9.7187,9.6914,9.6601,9.6836,9.211,9.211,9.211,9.211,9.211,9.211,9.211,9.211,9.211,9.211,9.211,9.211,9.211,9.211,9.211,9.211,9.211,9.211,9.211,9.211,9.211,9.211,9.211,9.211,9.211,9.211,9.211,9.211,9.211,9.211,9.211,9.211,9.211,9.211,9.211,9.211,9.211,9.211,9.211,9.211,9.2187,9.2498,9.3383,9.4145,9.4804,9.5312,9.5625,9.5859,9.5859,9.5781,9.5429,9.5234,9.4961,9.4492,9.3711,9.332,9.2929,9.2617,9.2617,9.2578,9.2578,9.2578,9.2578,9.2578,9.2578,9.2578,9.2578,9.2578,9.2578,9.2578,9.2578,9.2578,9.2578,9.2578,9.2578,9.2578,9.2578,9.2578,9.2578,9.2578,9.2578,9.2578,9.2578,9.2578,9.2578,9.2578,9.2578,9.2578,9.2578,9.2578,9.2578,9.2656,9.2656,9.2773,9.2929,9.3203,9.3476,9.4023,9.4492,9.5,9.5469,9.5781,9.6211,9.6562,9.6523,9.6211,9.664,9.707,9.7383,9.7578,9.75,9.7461,9.7578,9.7656,9.7695,9.211,9.211,9.211,9.211,9.211,9.211,9.211,9.211,9.211,9.211,9.211,9.211,9.211,9.211,9.211,9.211,9.211,9.211,9.211,9.211,9.211,9.211,9.211,9.211,9.211,9.211,9.211,9.211,9.211,9.211,9.211,9.211,9.211,9.211,9.211,9.211,9.211,9.211,9.211,9.211,9.2304,9.2809,9.3685,9.4522,9.5359,9.5703,9.6133,9.6289,9.6523,9.6484,9.6211,9.5781,9.5703,9.5547,9.5117,9.4453,9.3594,9.3164,9.289,9.2929,9.289,9.2617,9.2617,9.2578,9.2578,9.2578,9.2578,9.2578,9.2578,9.2578,9.2578,9.2578,9.2578,9.2578,9.2578,9.2578,9.2578,9.2578,9.2578,9.2578,9.2578,9.2578,9.2578,9.2578,9.2578,9.2578,9.2578,9.2578,9.2578,9.2578,9.2617,9.2695,9.2812,9.2969,9.332,9.3906,9.4297,9.4922,9.5351,9.5781,9.625,9.6719,9.707,9.7265,9.7148,9.6914,9.7461,9.7695,9.7656,9.7656,9.7695,9.7695,9.7695,9.7695,9.7695,9.211,9.211,9.211,9.211,9.211,9.211,9.211,9.211,9.211,9.211,9.211,9.211,9.211,9.211,9.211,9.211,9.211,9.211,9.211,9.211,9.211,9.211,9.211,9.211,9.211,9.211,9.211,9.211,9.211,9.211,9.211,9.211,9.211,9.211,9.211,9.211,9.211,9.211,9.211,9.211,9.2148,9.2265,9.2848,9.3434,9.3977,9.4628,9.5806,9.6094,9.6484,9.7187,9.7304,9.7344,9.7304,9.6679,9.6406,9.5976,9.539,9.457,9.3906,9.375,9.3515,9.3086,9.2851,9.2656,9.2695,9.2617,9.2578,9.2578,9.2578,9.2578,9.2578,9.2578,9.2578,9.2578,9.2578,9.2578,9.2578,9.2578,9.2578,9.2578,9.2578,9.2578,9.2578,9.2578,9.2578,9.2578,9.2578,9.2617,9.2695,9.2773,9.2851,9.3008,9.3476,9.3711,9.3984,9.4531,9.5078,9.5742,9.6172,9.6523,9.6875,9.7226,9.7422,9.7539,9.7422,9.7383,9.7578,9.7695,9.7695,9.7695,9.7695,9.7695,9.7695,9.7695,9.7695,9.211,9.211,9.211,9.211,9.211,9.211,9.211,9.211,9.211,9.211,9.211,9.211,9.211,9.211,9.211,9.211,9.211,9.211,9.211,9.211,9.211,9.211,9.211,9.211,9.211,9.211,9.211,9.211,9.211,9.211,9.211,9.211,9.211,9.211,9.211,9.211,9.211,9.211,9.211,9.211,9.211,9.2148,9.2304,9.2731,9.3197,9.3973,9.4601,9.5312,9.5625,9.6211,9.6523,9.6914,9.6992,9.7031,9.7187,9.7148,9.6836,9.5976,9.4883,9.4687,9.4375,9.4179,9.3984,9.3945,9.3437,9.2929,9.2656,9.2578,9.2578,9.2617,9.2617,9.2578,9.2578,9.2617,9.2734,9.2773,9.2773,9.2617,9.2578,9.2578,9.2656,9.2851,9.2969,9.2929,9.2851,9.2617,9.2695,9.2773,9.2969,9.3203,9.332,9.3437,9.4023,9.4609,9.4922,9.5351,9.5742,9.6328,9.6875,9.7187,9.7383,9.7656,9.7695,9.7695,9.7578,9.7617,9.7695,9.7695,9.7695,9.7695,9.7695,9.7695,9.7695,9.7695,9.7695,9.211,9.211,9.211,9.211,9.211,9.211,9.211,9.211,9.211,9.211,9.211,9.211,9.211,9.211,9.211,9.211,9.211,9.211,9.211,9.211,9.211,9.211,9.211,9.211,9.211,9.211,9.211,9.211,9.211,9.211,9.211,9.211,9.211,9.211,9.211,9.211,9.211,9.211,9.211,9.211,9.211,9.211,9.211,9.2343,9.2731,9.3236,9.3551,9.4121,9.4531,9.5156,9.5586,9.6054,9.6406,9.6836,9.7304,9.7422,9.7422,9.707,9.6133,9.5703,9.5469,9.5273,9.5156,9.4726,9.4297,9.3554,9.3281,9.3476,9.3086,9.3047,9.289,9.2812,9.2812,9.289,9.3008,9.3086,9.3203,9.3359,9.3515,9.375,9.3789,9.3594,9.3633,9.3437,9.3164,9.2773,9.2734,9.2969,9.3359,9.3828,9.4023,9.4258,9.4922,9.5508,9.5742,9.6094,9.6523,9.6836,9.7344,9.7617,9.7656,9.7695,9.7695,9.7695,9.7695,9.7695,9.7695,9.7695,9.7695,9.7695,9.7695,9.7695,9.7695,9.7695,9.7695,9.211,9.211,9.211,9.211,9.211,9.211,9.211,9.211,9.211,9.211,9.211,9.211,9.211,9.211,9.211,9.211,9.211,9.211,9.211,9.211,9.211,9.211,9.211,9.211,9.2148,9.2226,9.2304,9.2265,9.2226,9.2576,9.2343,9.211,9.2382,9.2226,9.2265,9.2498,9.2498,9.2498,9.2498,9.242,9.2382,9.2343,9.2343,9.2304,9.2343,9.2576,9.3452,9.3803,9.4167,9.4846,9.5236,9.5641,9.6211,9.664,9.7148,9.7539,9.7695,9.7461,9.707,9.6601,9.6015,9.5508,9.5273,9.5351,9.5117,9.5078,9.4961,9.4687,9.4101,9.3828,9.3554,9.3281,9.3359,9.3594,9.3867,9.4062,9.4258,9.4492,9.4687,9.4922,9.4804,9.4453,9.4414,9.4258,9.3945,9.3554,9.3672,9.3867,9.4375,9.4804,9.4961,9.5273,9.5898,9.6328,9.6484,9.6797,9.7148,9.7265,9.7539,9.7656,9.7695,9.7695,9.7695,9.7695,9.7695,9.7695,9.7695,9.7695,9.7695,9.7695,9.7695,9.7695,9.7695,9.7695,9.7695,9.211,9.211,9.211,9.211,9.211,9.211,9.211,9.211,9.211,9.211,9.211,9.211,9.211,9.211,9.211,9.211,9.211,9.211,9.211,9.211,9.211,9.211,9.211,9.2226,9.2343,9.277,9.2925,9.3275,9.3741,9.3508,9.3685,9.3607,9.3159,9.2964,9.3003,9.3314,9.3568,9.3607,9.3646,9.3685,9.3724,9.3685,9.3685,9.3724,9.3724,9.384,9.4229,9.4268,9.4462,9.4812,9.5278,9.5725,9.6212,9.6646,9.7148,9.7617,9.7656,9.7695,9.7695,9.7383,9.707,9.6797,9.6367,9.6015,9.5937,9.5586,9.5273,9.5039,9.4961,9.4726,9.4609,9.4414,9.4453,9.4609,9.4804,9.4961,9.5234,9.5508,9.5547,9.5625,9.5351,9.5,9.5039,9.5078,9.4726,9.4453,9.4609,9.4844,9.5351,9.5742,9.5898,9.6054,9.664,9.6953,9.7109,9.7383,9.7695,9.7695,9.7695,9.7695,9.7695,9.7695,9.7695,9.7695,9.7695,9.7695,9.7695,9.7695,9.7695,9.7695,9.7695,9.7695,9.7695,9.7695,9.7695,9.211,9.211,9.211,9.211,9.211,9.211,9.211,9.211,9.211,9.211,9.211,9.211,9.211,9.211,9.211,9.211,9.211,9.211,9.211,9.211,9.211,9.2265,9.242,9.2653,9.3003,9.3586,9.3819,9.4169,9.4518,9.4656,9.454,9.4423,9.4363,9.413,9.3935,9.4324,9.4712,9.4674,9.4695,9.4695,9.4635,9.4596,9.4596,9.4557,9.4518,9.4518,9.4557,9.4596,9.4596,9.4868,9.5217,9.5761,9.6252,9.6746,9.7276,9.7539,9.7656,9.7695,9.7695,9.7695,9.7695,9.7422,9.7187,9.6914,9.6679,9.6289,9.6211,9.6054,9.582,9.5586,9.5547,9.5234,9.5273,9.539,9.5547,9.5781,9.6133,9.6406,9.6328,9.6289,9.6094,9.6133,9.6133,9.625,9.5859,9.5547,9.5508,9.582,9.6328,9.664,9.6797,9.6953,9.7226,9.7461,9.7656,9.7695,9.7695,9.7695,9.7695,9.7695,9.7695,9.7695,9.7695,9.7695,9.7695,9.7695,9.7695,9.7695,9.7695,9.7695,9.7695,9.7695,9.7695,9.7695,9.7695,9.211,9.211,9.211,9.211,9.211,9.211,9.211,9.211,9.211,9.211,9.211,9.211,9.211,9.211,9.211,9.211,9.211,9.211,9.2187,9.2265,9.2382,9.2653,9.312,9.3469,9.3819,9.4501,9.4712,9.4768,9.4924,9.514,9.5023,9.514,9.5412,9.5412,9.4768,9.4729,9.4768,9.4768,9.4885,9.4962,9.504,9.5079,9.5079,9.514,9.514,9.5217,9.5217,9.5217,9.5256,9.5295,9.5273,9.5761,9.631,9.641,9.6837,9.7461,9.7578,9.7617,9.7617,9.7656,9.7695,9.7695,9.7461,9.7461,9.7578,9.75,9.7304,9.6992,9.6797,9.6484,9.6211,9.5937,9.6054,9.6211,9.6406,9.6523,9.6875,9.707,9.6953,9.6875,9.7265,9.7578,9.7539,9.7461,9.7031,9.6719,9.6523,9.6758,9.7148,9.7304,9.7344,9.7422,9.7539,9.7578,9.7695,9.7695,9.7695,9.7695,9.7695,9.7695,9.7695,9.7695,9.7695,9.7695,9.7695,9.7695,9.7695,9.7695,9.7695,9.7695,9.7695,9.7695,9.7695,9.7695,9.7695,9.211,9.211,9.211,9.211,9.211,9.211,9.211,9.211,9.211,9.211,9.211,9.211,9.211,9.211,9.211,9.211,9.2148,9.2148,9.2265,9.2925,9.2964,9.3529,9.4035,9.4363,9.4712,9.5295,9.5506,9.5856,9.6422,9.6189,9.6266,9.6499,9.6422,9.6616,9.6422,9.6383,9.6383,9.6383,9.6383,9.6383,9.6344,9.6305,9.6266,9.6266,9.6228,9.6228,9.6189,9.615,9.615,9.615,9.615,9.6422,9.6771,9.6832,9.7052,9.7433,9.7564,9.7563,9.7578,9.7656,9.7695,9.7695,9.7695,9.7695,9.7695,9.7695,9.7695,9.7695,9.7422,9.7187,9.7148,9.707,9.7148,9.7187,9.7304,9.7304,9.75,9.75,9.75,9.7461,9.7695,9.7695,9.7695,9.7695,9.7422,9.7344,9.7109,9.7148,9.7461,9.7539,9.7578,9.7578,9.7656,9.7656,9.7695,9.7695,9.7695,9.7695,9.7695,9.7695,9.7695,9.7695,9.7695,9.7695,9.7695,9.7695,9.7695,9.7695,9.7695,9.7695,9.7695,9.7695,9.7695,9.7695,9.7695,9.211,9.211,9.211,9.211,9.211,9.211,9.211,9.211,9.211,9.211,9.211,9.211,9.211,9.211,9.211,9.2382,9.2498,9.2576,9.3042,9.3763,9.3858,9.4402,9.4868,9.5179,9.5606,9.6111,9.6422,9.6694,9.7005,9.716,9.7082,9.7043,9.7199,9.7082,9.7082,9.7043,9.7082,9.7005,9.6966,9.7005,9.7043,9.7082,9.7121,9.7082,9.7082,9.7121,9.716,9.7199,9.7199,9.7199,9.7199,9.7238,9.7276,9.7276,9.7315,9.7393,9.7458,9.7481,9.7539,9.7578,9.7617,9.7617,9.7656,9.7695,9.7695,9.7695,9.7695,9.7695,9.7695,9.7695,9.7656,9.7695,9.7695,9.7695,9.7695,9.7656,9.7656,9.7695,9.7695,9.7695,9.7695,9.7695,9.7695,9.7695,9.7617,9.7617,9.7656,9.7695,9.7695,9.7695,9.7695,9.7695,9.7695,9.7695,9.7695,9.7695,9.7695,9.7695,9.7695,9.7695,9.7695,9.7695,9.7695,9.7695,9.7695,9.7695,9.7695,9.7695,9.7695,9.7695,9.7695,9.7695,9.7695,9.7695,9.7695,9.211,9.211,9.211,9.211,9.211,9.211,9.211,9.211,9.211,9.211,9.211,9.211,9.211,9.2148,9.2148,9.2615,9.3236,9.3353,9.3996,9.454,9.4712,9.5295,9.5723,9.5994,9.6383,9.6849,9.7082,9.6966,9.7199,9.7199,9.7199,9.7199,9.7199,9.7199,9.7199,9.7199,9.7199,9.7199,9.7199,9.7199,9.7199,9.7199,9.7199,9.7199,9.7199,9.7199,9.7199,9.7199,9.7199,9.7199,9.7199,9.7199,9.7199,9.7199,9.7199,9.7238,9.7276,9.736,9.7447,9.7511,9.7525,9.7571,9.7656,9.7695,9.7695,9.7695,9.7695,9.7695,9.7695,9.7695,9.7695,9.7695,9.7695,9.7695,9.7695,9.7695,9.7695,9.7695,9.7695,9.7695,9.7695,9.7695,9.7695,9.7695,9.7695,9.7695,9.7695,9.7695,9.7695,9.7695,9.7695,9.7695,9.7695,9.7695,9.7695,9.7695,9.7695,9.7695,9.7695,9.7695,9.7695,9.7695,9.7695,9.7695,9.7695,9.7695,9.7695,9.7695,9.7695,9.7695,9.7695,9.7695,9.7695,9.7695,9.7695,9.211,9.211,9.211,9.211,9.211,9.211,9.211,9.211,9.211,9.211,9.211,9.211,9.2148,9.2148,9.2731,9.312,9.3586,9.4091,9.4812,9.5256,9.5606,9.615,9.6499,9.6771,9.7005,9.7121,9.7199,9.7199,9.7199,9.7199,9.7199,9.7199,9.7199,9.7199,9.7199,9.7199,9.7199,9.7199,9.7199,9.7199,9.7199,9.7199,9.7199,9.7199,9.7199,9.7199,9.7199,9.7199,9.7199,9.7199,9.7199,9.7199,9.7199,9.7199,9.7199,9.7199,9.7238,9.7302,9.7343,9.7497,9.7538,9.7535,9.7642,9.7659,9.7656,9.7656,9.7695,9.7695,9.7695,9.7695,9.7695,9.7695,9.7695,9.7695,9.7695,9.7695,9.7695,9.7695,9.7695,9.7695,9.7695,9.7695,9.7695,9.7695,9.7695,9.7695,9.7695,9.7695,9.7695,9.7695,9.7695,9.7695,9.7695,9.7695,9.7695,9.7695,9.7695,9.7695,9.7695,9.7695,9.7695,9.7695,9.7695,9.7695,9.7695,9.7695,9.7695,9.7695,9.7695,9.7695,9.7695,9.7695,9.7695,9.7695,9.7695,9.211,9.211,9.211,9.211,9.211,9.211,9.211,9.211,9.211,9.211,9.211,9.211,9.2265,9.2692,9.3197,9.3741,9.4518,9.4946,9.5628,9.6266,9.6383,9.6694,9.7082,9.7199,9.716,9.7199,9.7199,9.7199,9.7199,9.7199,9.7199,9.7199,9.7199,9.7199,9.7199,9.7199,9.7199,9.7199,9.7199,9.7199,9.7199,9.7199,9.7199,9.7199,9.7199,9.7199,9.7199,9.7199,9.7199,9.7199,9.7199,9.7199,9.7199,9.7199,9.7199,9.7199,9.7238,9.7238,9.7281,9.7337,9.744,9.746,9.7536,9.7522,9.7617,9.7656,9.7656,9.7695,9.7695,9.7695,9.7695,9.7695,9.7695,9.7695,9.7695,9.7695,9.7695,9.7695,9.7695,9.7695,9.7695,9.7695,9.7695,9.7695,9.7695,9.7695,9.7695,9.7695,9.7695,9.7695,9.7695,9.7695,9.7695,9.7695,9.7695,9.7695,9.7695,9.7695,9.7695,9.7695,9.7695,9.7695,9.7695,9.7695,9.7695,9.7695,9.7695,9.7695,9.7695,9.7695,9.7695,9.7695,9.7695,9.7695,9.7695,9.211,9.211,9.211,9.211,9.211,9.211,9.211,9.211,9.211,9.211,9.211,9.2226,9.2692,9.3236,9.378,9.4596,9.5295,9.5839,9.6305,9.716,9.7005,9.7121,9.7121,9.7199,9.7199,9.7199,9.7199,9.7199,9.7199,9.7199,9.7199,9.7199,9.7199,9.7199,9.7199,9.7199,9.7199,9.7199,9.7199,9.7199,9.7199,9.7199,9.7199,9.7199,9.7199,9.7199,9.7199,9.7199,9.7199,9.7199,9.7199,9.7199,9.7199,9.7199,9.7199,9.7199,9.7199,9.7199,9.7238,9.7276,9.7266,9.7271,9.7265,9.7405,9.7539,9.7617,9.7656,9.7695,9.7695,9.7695,9.7695,9.7695,9.7695,9.7695,9.7695,9.7695,9.7695,9.7695,9.7695,9.7695,9.7695,9.7695,9.7695,9.7695,9.7695,9.7695,9.7695,9.7695,9.7695,9.7695,9.7695,9.7695,9.7695,9.7695,9.7695,9.7695,9.7695,9.7695,9.7695,9.7695,9.7695,9.7695,9.7695,9.7695,9.7695,9.7695,9.7695,9.7695,9.7695,9.7695,9.7695,9.7695,9.7695,9.7695,9.7695,9.211,9.211,9.211,9.211,9.211,9.211,9.211,9.211,9.211,9.211,9.2226,9.277,9.3197,9.3547,9.4674,9.5528,9.5917,9.6499,9.6966,9.7121,9.7199,9.7199,9.7199,9.7199,9.7199,9.7199,9.7199,9.7199,9.7199,9.7199,9.7199,9.7199,9.7199,9.7199,9.7199,9.7199,9.7199,9.7199,9.7199,9.7199,9.7199,9.7199,9.7199,9.7199,9.7199,9.7199,9.7199,9.7199,9.7199,9.7199,9.7199,9.7199,9.7199,9.7199,9.7199,9.7199,9.7199,9.7199,9.7199,9.7238,9.7245,9.7284,9.7343,9.744,9.7539,9.7584,9.7656,9.7656,9.7695,9.7695,9.7695,9.7695,9.7695,9.7695,9.7695,9.7695,9.7695,9.7695,9.7695,9.7695,9.7695,9.7695,9.7695,9.7695,9.7695,9.7695,9.7695,9.7695,9.7695,9.7695,9.7695,9.7695,9.7695,9.7695,9.7695,9.7695,9.7695,9.7695,9.7695,9.7695,9.7695,9.7695,9.7695,9.7695,9.7695,9.7695,9.7695,9.7695,9.7695,9.7695,9.7695,9.7695,9.7695,9.7695,9.7695,9.211,9.211,9.211,9.211,9.211,9.211,9.211,9.211,9.211,9.2304,9.2692,9.3197,9.3586,9.3991,9.5351,9.6228,9.6461,9.6927,9.7121,9.7199,9.7199,9.7199,9.7199,9.7199,9.7199,9.7199,9.7199,9.7199,9.7199,9.7199,9.7199,9.7199,9.7199,9.7199,9.7199,9.7199,9.7199,9.7199,9.7199,9.7199,9.7199,9.7199,9.7199,9.7199,9.7199,9.7199,9.7199,9.7199,9.7199,9.7199,9.7199,9.7199,9.7199,9.7199,9.7199,9.7199,9.7199,9.7199,9.7199,9.7238,9.7238,9.7276,9.7276,9.7362,9.742,9.7461,9.7578,9.7617,9.7695,9.7695,9.7695,9.7695,9.7695,9.7695,9.7695,9.7695,9.7695,9.7695,9.7695,9.7695,9.7695,9.7695,9.7695,9.7695,9.7695,9.7695,9.7695,9.7695,9.7695,9.7695,9.7695,9.7695,9.7695,9.7695,9.7695,9.7695,9.7695,9.7695,9.7695,9.7695,9.7695,9.7695,9.7695,9.7695,9.7695,9.7695,9.7695,9.7695,9.7695,9.7695,9.7695,9.7695,9.7695,9.7695,9.7695,9.211,9.211,9.211,9.211,9.211,9.211,9.211,9.211,9.211,9.2576,9.3314,9.3508,9.4091,9.4885,9.57,9.6461,9.6966,9.7121,9.7199,9.7199,9.7199,9.7199,9.7199,9.7199,9.7199,9.7199,9.7199,9.7199,9.7199,9.7199,9.7199,9.7199,9.7199,9.7199,9.7199,9.7199,9.7199,9.7199,9.7199,9.7199,9.7199,9.7199,9.7199,9.7199,9.7199,9.7199,9.7199,9.7199,9.7199,9.7199,9.7199,9.7199,9.7199,9.7199,9.7199,9.7199,9.7199,9.7199,9.7199,9.7199,9.7199,9.7199,9.7199,9.7225,9.7284,9.7383,9.7461,9.7578,9.7656,9.7695,9.7695,9.7695,9.7695,9.7695,9.7695,9.7695,9.7695,9.7695,9.7695,9.7695,9.7695,9.7695,9.7695,9.7695,9.7695,9.7695,9.7695,9.7695,9.7695,9.7695,9.7695,9.7695,9.7695,9.7695,9.7695,9.7695,9.7695,9.7695,9.7695,9.7695,9.7695,9.7695,9.7695,9.7695,9.7695,9.7695,9.7695,9.7695,9.7695,9.7695,9.7695,9.7695,9.7695,9.7695,9.7695,9.211,9.211,9.211,9.211,9.211,9.211,9.211,9.211,9.2148,9.2576,9.3469,9.4246,9.4885,9.5739,9.6577,9.7121,9.7082,9.7199,9.7199,9.7199,9.7199,9.7199,9.7199,9.7199,9.7199,9.7199,9.7199,9.7199,9.7199,9.7199,9.7199,9.7199,9.7199,9.7199,9.7199,9.7199,9.7199,9.7199,9.7199,9.7199,9.7199,9.7199,9.7199,9.7199,9.7199,9.7199,9.7199,9.7199,9.7199,9.7199,9.7199,9.7199,9.7199,9.7199,9.7199,9.7199,9.7199,9.7199,9.7199,9.7199,9.7199,9.7199,9.7199,9.7199,9.7264,9.7304,9.7422,9.7539,9.7617,9.7656,9.7656,9.7695,9.7695,9.7695,9.7695,9.7695,9.7695,9.7695,9.7695,9.7695,9.7695,9.7695,9.7695,9.7695,9.7695,9.7695,9.7695,9.7695,9.7695,9.7695,9.7695,9.7695,9.7695,9.7695,9.7695,9.7695,9.7695,9.7695,9.7695,9.7695,9.7695,9.7695,9.7695,9.7695,9.7695,9.7695,9.7695,9.7695,9.7695,9.7695,9.7695,9.7695,9.7695,9.7695,9.7695]},{"header":{"parameterUnit":"m.s-1","parameterCategory":1,"la1":31.0,"la2":29.5877,"lo1":-88.7671,"lo2":-86.6584,"dx":0.0162,"dy":0.0185,"nx":115,"ny":88,"refTime":"2023-01-29T18:00:00:Z","depth":0,"parameterNumber":3,"parameterNumberName":"V-component_of_WINDS"},"data":[0.0,0.0,0.0,0.0,0.0,0.0,0.0,0.0,0.0,0.0,0.0,0.0,0.0,0.0,0.0,0.0,0.0,0.0,0.0,0.0,0.0,0.0,0.0,0.0,0.0,0.0,0.0,0.0,0.0,0.0,0.0,0.0,0.0,0.0,0.0,0.0,0.0,0.0,0.0,0.0,0.0,0.0,0.0,0.0,0.0,0.0,0.0,0.0,0.0,0.0,0.0,0.0,0.0,0.0,0.0,0.0,0.0,0.0,0.0,0.0,0.0,0.0,0.0,0.0,0.0,0.0,0.0,0.0,0.0,0.0,0.0,0.0,0.0,0.0,0.0,0.0,0.0,0.0,0.0,0.0,0.0,0.0,0.0,0.0,0.0,0.0,0.0,0.0,0.0,0.0,0.0,0.0,0.0,0.0,0.0,0.0,0.0,0.0,0.0,0.0,0.0,0.0,0.0,0.0,0.0,0.0,0.0,0.0,0.0,0.0,0.0,0.0,0.0,0.0,0.0,0.0,0.0,0.0,0.0,0.0,0.0,0.0,0.0,0.0,0.0,0.0,0.0,0.0,0.0,0.0,0.0,0.0,0.0,0.0,0.0,0.0,0.0,0.0,0.0,0.0,0.0,0.0,0.0,0.0,0.0,0.0,0.0,0.0,0.0,0.0,0.0,0.0,0.0,0.0,0.0,0.0,0.0,0.0,0.0,0.0,0.0,0.0,0.0,0.0,0.0,0.0,0.0,0.0,0.0,0.0,0.0,0.0,0.0,0.0,0.0,0.0,0.0,0.0,0.0,0.0,0.0,0.0,0.0,0.0,0.0,0.0,0.0,0.0,0.0,0.0,0.0,0.0,0.0,0.0,0.0,0.0,0.0,0.0,0.0,0.0,0.0,0.0,0.0,0.0,0.0,0.0,0.0,0.0,0.0,0.0,0.0,0.0,0.0,0.0,0.0,0.0,0.0,0.0,0.0,0.0,0.0,0.0,0.0,0.0,0.0,0.0,0.0,0.0,0.0,0.0,0.0,0.0,0.0,0.0,0.0,0.0,0.0,0.0,0.0,0.0,0.0,0.0,0.0,0.0,0.0,0.0,0.0,0.0,0.0,0.0,0.0,0.0,0.0,0.0,0.0,0.0,0.0,0.0,0.0,0.0,0.0,0.0,0.0,0.0,0.0,0.0,0.0,0.0,0.0,0.0,0.0,0.0,0.0,0.0,0.0,0.0,0.0,0.0,0.0,0.0,0.0,0.0,0.0,0.0,0.0,0.0,0.0,0.0,0.0,0.0,0.0,0.0,0.0,0.0,0.0,0.0,0.0,0.0,0.0,0.0,0.0,0.0,0.0,0.0,0.0,0.0,0.0,0.0,0.0,0.0,0.0,0.0,0.0,0.0,0.0,0.0,0.0,0.0,0.0,0.0,0.0,0.0,0.0,0.0,0.0,0.0,0.0,0.0,0.0,0.0,0.0,0.0,0.0,0.0,0.0,0.0,0.0,0.0,0.0,0.0,0.0,0.0,0.0,0.0,0.0,0.0,0.0,0.0,0.0,0.0,0.0,0.0,0.0,0.0,0.0,0.0,0.0,0.0,0.0,0.0,0.0,0.0,0.0,0.0,0.0,0.0,0.0,0.0,0.0,0.0,0.0,0.0,0.0,0.0,0.0,0.0,0.0,0.0,0.0,0.0,0.0,0.0,0.0,0.0,0.0,0.0,0.0,0.0,0.0,0.0,0.0,0.0,0.0,0.0,0.0,0.0,0.0,0.0,0.0,0.0,0.0,0.0,0.0,0.0,0.0,0.0,0.0,0.0,0.0,0.0,0.0,0.0,0.0,0.0,0.0,0.0,0.0,0.0,0.0,0.0,0.0,0.0,0.0,0.0,0.0,0.0,0.0,0.0,0.0,0.0,0.0,0.0,0.0,0.0,0.0,0.0,0.0,0.0,0.0,0.0,0.0,0.0,0.0,0.0,0.0,0.0,0.0,0.0,0.0,0.0,0.0,0.0,0.0,0.0,0.0,0.0,0.0,0.0,0.0,0.0,0.0,0.0,0.0,0.0,0.0,0.0,0.0,0.0,0.0,0.0,0.0,0.0,0.0,0.0,0.0,0.0,0.0,0.0,0.0,0.0,0.0,0.0,0.0,0.0,0.0,0.0,0.0,0.0,0.0,0.0,0.0,0.0,0.0,0.0,0.0,0.0,0.0,0.0,0.0,0.0,0.0,0.0,0.0,0.0,0.0,0.0,0.0,0.0,0.0,0.0,0.0,0.0,0.0,0.0,0.0,0.0,0.0,0.0,0.0,0.0,0.0,0.0,0.0,0.0,0.0,0.0,0.0,0.0,0.0,0.0,0.0,0.0,0.0,0.0,0.0,0.0,0.0,0.0,0.0,0.0,0.0,0.0,0.0,0.0,0.0,0.0,0.0,0.0,0.0,0.0,0.0,0.0,0.0,0.0,0.0,0.0,0.0,0.0,0.0,0.0,0.0,0.0,0.0,0.0,0.0,0.0,0.0,0.0,0.0,0.0,0.0,0.0,0.0,0.0,0.0,0.0,0.0,0.0,0.0,0.0,0.0,0.0,0.0,0.0,0.0,0.0,0.0,0.0,0.0,0.0,0.0,0.0,0.0,0.0,0.0,0.0,0.0,0.0,0.0,0.0,0.0,0.0,0.0,0.0,0.0,0.0,0.0,0.0,0.0,0.0,0.0,0.0,0.0,0.0,0.0,0.0,0.0,0.0,0.0,0.0,0.0,0.0,0.0,0.0,0.0,0.0,0.0,0.0,0.0,0.0,0.0,0.0,0.0,0.0,0.0,0.0,0.0,0.0,0.0,0.0,0.0,0.0,0.0,0.0,0.0,0.0,0.0,0.0,0.0,0.0,0.0,0.0,0.0,0.0,0.0,0.0,0.0,0.0,0.0,0.0,0.0,0.0,0.0,0.0,0.0,0.0,0.0,0.0,0.0,0.0,0.0,0.0,0.0,0.0,0.0,0.0,0.0,0.0,0.0,0.0,0.0,0.0,0.0,0.0,0.0,0.0,0.0,0.0,0.0,0.0,0.0,0.0,0.0,0.0,0.0,0.0,0.0,0.0,0.0,0.0,0.0,0.0,0.0,0.0,0.0,0.0,0.0,0.0,0.0,0.0,0.0,0.0,0.0,0.0,0.0,0.0,0.0,0.0,0.0,0.0,0.0,0.0,0.0,0.0,0.0,0.0,0.0,0.0,0.0,0.0,0.0,0.0,0.0,0.0,0.0,0.0,0.0,0.0,0.0,0.0,0.0,0.0,0.0,0.0,0.0,0.0,0.0,0.0,0.0,0.0,0.0,0.0,0.0,0.0,0.0,0.0,0.0,0.0,0.0,0.0,0.0,0.0,0.0,0.0,0.0,0.0,0.0,0.0,0.0,0.0,0.0,0.0,0.0,0.0,0.0,0.0,0.0,0.0,0.0,0.0,0.0,0.0,0.0,0.0,0.0,0.0,0.0,0.0,0.0,0.0,0.0,0.0,0.0,0.0,0.0,0.0,0.0,0.0,0.0,0.0,0.0,0.0,0.0,0.0,0.0,0.0,0.0,0.0,0.0,0.0,0.0,0.0,0.0,0.0,0.0,0.0,0.0,0.0,0.0,0.0,0.0,0.0,0.0,0.0,0.0,0.0,0.0,0.0,0.0,0.0,0.0,0.0,0.0,0.0,0.0,0.0,0.0,0.0,0.0,0.0,0.0,0.0,0.0,0.0,0.0,0.0,0.0,0.0,0.0,0.0,0.0,0.0,0.0,0.0,0.0,0.0,0.0,0.0,0.0,0.0,0.0,0.0,0.0,0.0,0.0,0.0,0.0,0.0,0.0,0.0,0.0,0.0,0.0,0.0,0.0,0.0,0.0,0.0,0.0,0.0,0.0,0.0,0.0,0.0,0.0,0.0,0.0,0.0,0.0,0.0,0.0,0.0,0.0,0.0,0.0,0.0,0.0,0.0,0.0,0.0,0.0,0.0,0.0,0.0,0.0,0.0,0.0,0.0,0.0,0.0,0.0,0.0,0.0,0.0,0.0,0.0,0.0,0.0,0.0,0.0,0.0,0.0,0.0,0.0,0.0,0.0,0.0,0.0,0.0,0.0,0.0,0.0,0.0,0.0,0.0,0.0,0.0,0.0,0.0,0.0,0.0,0.0,0.0,0.0,0.0,0.0,0.0,0.0,0.0,0.0,0.0,0.0,0.0,0.0,0.0,0.0,0.0,0.0,0.0,0.0,0.0,0.0,0.0,0.0,0.0,0.0,-1.1619,0.0,0.0,0.0,0.0,0.0,0.0,0.0,0.0,0.0,0.0,0.0,0.0,0.0,0.0,0.0,0.0,0.0,0.0,0.0,0.0,0.0,0.0,0.0,0.0,0.0,0.0,0.0,0.0,0.0,0.0,0.0,0.0,0.0,0.0,0.0,0.0,0.0,0.0,0.0,0.0,0.0,0.0,0.0,0.0,0.0,0.0,0.0,0.0,0.0,0.0,0.0,0.0,0.0,0.0,0.0,0.0,0.0,0.0,0.0,0.0,0.0,0.0,0.0,0.0,0.0,0.0,0.0,0.0,0.0,0.0,0.0,0.0,0.0,0.0,0.0,0.0,0.0,0.0,0.0,0.0,0.0,0.0,0.0,0.0,0.0,0.0,0.0,0.0,0.0,0.0,0.0,0.0,0.0,0.0,0.0,0.0,0.0,0.0,0.0,0.0,0.0,0.0,0.0,0.0,0.0,0.0,0.0,0.0,0.0,0.0,-1.1557,-1.1557,-1.1557,-1.167,-1.159,0.0,0.0,0.0,0.0,0.0,0.0,0.0,0.0,0.0,0.0,0.0,0.0,0.0,0.0,0.0,0.0,0.0,0.0,0.0,0.0,0.0,0.0,0.0,0.0,0.0,0.0,0.0,0.0,0.0,0.0,0.0,0.0,0.0,0.0,0.0,0.0,0.0,0.0,0.0,0.0,0.0,0.0,0.0,0.0,0.0,0.0,0.0,0.0,0.0,0.0,0.0,0.0,0.0,0.0,0.0,0.0,0.0,0.0,0.0,0.0,0.0,0.0,0.0,0.0,0.0,0.0,0.0,0.0,0.0,0.0,0.0,0.0,0.0,0.0,0.0,0.0,0.0,0.0,0.0,0.0,0.0,0.0,0.0,0.0,0.0,0.0,0.0,0.0,0.0,0.0,0.0,0.0,0.0,0.0,0.0,0.0,0.0,0.0,0.0,0.0,0.0,0.0,0.0,0.0,0.0,0.0,0.0,0.0,0.0,0.0,0.0,0.0,-1.1755,-1.1702,-1.1583,0.0,0.0,0.0,0.0,0.0,0.0,0.0,0.0,0.0,0.0,0.0,0.0,0.0,0.0,0.0,0.0,0.0,0.0,0.0,0.0,0.0,0.0,0.0,0.0,0.0,0.0,0.0,0.0,0.0,0.0,0.0,0.0,0.0,0.0,0.0,0.0,0.0,0.0,0.0,0.0,0.0,0.0,0.0,0.0,0.0,0.0,0.0,0.0,0.0,0.0,0.0,0.0,0.0,0.0,0.0,0.0,0.0,0.0,0.0,0.0,0.0,0.0,0.0,0.0,0.0,0.0,0.0,0.0,0.0,0.0,0.0,0.0,0.0,0.0,0.0,0.0,0.0,0.0,0.0,0.0,0.0,0.0,0.0,0.0,0.0,0.0,0.0,0.0,0.0,0.0,0.0,0.0,0.0,0.0,0.0,0.0,0.0,0.0,0.0,0.0,0.0,0.0,0.0,0.0,0.0,0.0,0.0,0.0,0.0,0.0,-1.2366,-1.2366,-1.2373,0.0,-1.1586,0.0,0.0,0.0,0.0,0.0,0.0,0.0,0.0,0.0,0.0,0.0,0.0,0.0,0.0,0.0,0.0,0.0,0.0,0.0,0.0,0.0,0.0,0.0,0.0,0.0,0.0,0.0,0.0,0.0,0.0,0.0,0.0,0.0,0.0,0.0,0.0,0.0,0.0,0.0,0.0,0.0,0.0,0.0,0.0,0.0,0.0,0.0,0.0,0.0,0.0,0.0,0.0,0.0,0.0,0.0,0.0,0.0,0.0,0.0,0.0,0.0,0.0,0.0,0.0,0.0,0.0,0.0,0.0,0.0,0.0,0.0,0.0,0.0,0.0,0.0,0.0,0.0,0.0,0.0,0.0,0.0,0.0,0.0,0.0,0.0,0.0,0.0,0.0,0.0,0.0,0.0,0.0,0.0,0.0,0.0,0.0,0.0,0.0,0.0,0.0,0.0,0.0,0.0,0.0,0.0,0.0,0.0,0.0,0.0,0.0,-1.2484,-1.2477,-1.2553,-1.2354,0.0,0.0,0.0,0.0,0.0,0.0,0.0,0.0,0.0,0.0,0.0,0.0,0.0,0.0,0.0,0.0,0.0,0.0,0.0,0.0,0.0,0.0,0.0,0.0,0.0,0.0,0.0,0.0,0.0,0.0,0.0,0.0,0.0,0.0,0.0,0.0,0.0,0.0,0.0,0.0,0.0,0.0,0.0,0.0,0.0,0.0,0.0,0.0,0.0,0.0,0.0,0.0,0.0,0.0,0.0,0.0,0.0,0.0,0.0,0.0,0.0,0.0,0.0,0.0,0.0,0.0,0.0,0.0,0.0,0.0,0.0,0.0,0.0,0.0,0.0,0.0,0.0,0.0,0.0,0.0,0.0,0.0,0.0,0.0,0.0,0.0,0.0,0.0,0.0,0.0,0.0,0.0,0.0,0.0,0.0,0.0,0.0,0.0,0.0,0.0,0.0,0.0,0.0,0.0,0.0,0.0,0.0,0.0,0.0,0.0,-1.2501,-1.2501,-1.2494,-1.256,-1.2505,-1.2505,0.0,0.0,0.0,0.0,0.0,0.0,0.0,0.0,0.0,0.0,0.0,0.0,0.0,0.0,0.0,0.0,0.0,0.0,0.0,0.0,0.0,0.0,0.0,0.0,0.0,0.0,0.0,0.0,0.0,0.0,0.0,0.0,0.0,0.0,0.0,0.0,0.0,0.0,0.0,0.0,0.0,0.0,0.0,0.0,0.0,0.0,0.0,0.0,0.0,0.0,0.0,0.0,0.0,0.0,0.0,0.0,0.0,0.0,0.0,0.0,0.0,0.0,0.0,0.0,0.0,0.0,0.0,0.0,0.0,0.0,0.0,0.0,0.0,0.0,0.0,0.0,0.0,0.0,0.0,0.0,0.0,0.0,0.0,0.0,0.0,0.0,0.0,0.0,0.0,0.0,0.0,0.0,0.0,0.0,0.0,0.0,0.0,0.0,0.0,0.0,0.0,0.0,0.0,0.0,0.0,0.0,0.0,0.0,-1.2501,-1.2501,-1.2501,-1.2501,-1.2494,-1.2494,0.0,0.0,0.0,0.0,0.0,0.0,0.0,0.0,0.0,0.0,0.0,0.0,0.0,0.0,0.0,0.0,0.0,0.0,0.0,0.0,0.0,0.0,0.0,0.0,0.0,0.0,0.0,0.0,0.0,0.0,0.0,0.0,0.0,0.0,0.0,0.0,0.0,0.0,0.0,0.0,0.0,0.0,0.0,0.0,0.0,0.0,0.0,0.0,0.0,0.0,0.0,0.0,0.0,0.0,0.0,0.0,0.0,0.0,0.0,0.0,0.0,0.0,0.0,0.0,0.0,0.0,0.0,0.0,0.0,0.0,0.0,0.0,0.0,0.0,0.0,0.0,0.0,0.0,0.0,0.0,0.0,0.0,0.0,0.0,0.0,0.0,0.0,0.0,0.0,0.0,0.0,0.0,0.0,0.0,0.0,0.0,0.0,0.0,0.0,0.0,0.0,0.0,0.0,0.0,0.0,0.0,0.0,0.0,0.0,-1.2501,-1.2501,-1.2501,-1.2501,-1.2501,-1.2501,0.0,0.0,0.0,0.0,0.0,0.0,0.0,0.0,0.0,0.0,0.0,0.0,0.0,0.0,0.0,0.0,0.0,0.0,0.0,0.0,0.0,0.0,0.0,0.0,0.0,0.0,0.0,0.0,0.0,0.0,0.0,0.0,0.0,0.0,0.0,0.0,0.0,0.0,0.0,0.0,0.0,0.0,0.0,0.0,0.0,0.0,0.0,0.0,0.0,0.0,0.0,0.0,0.0,0.0,0.0,0.0,0.0,0.0,0.0,0.0,0.0,0.0,0.0,0.0,0.0,0.0,0.0,0.0,0.0,0.0,0.0,0.0,0.0,0.0,0.0,0.0,0.0,0.0,0.0,0.0,0.0,0.0,0.0,0.0,0.0,0.0,0.0,0.0,0.0,0.0,0.0,0.0,0.0,0.0,0.0,0.0,0.0,0.0,0.0,0.0,0.0,0.0,0.0,0.0,0.0,0.0,0.0,0.0,0.0,-1.2515,0.0,-1.2528,-1.2522,-1.2522,-1.2515,0.0,0.0,0.0,0.0,0.0,0.0,0.0,0.0,0.0,0.0,0.0,0.0,0.0,0.0,0.0,0.0,0.0,0.0,0.0,0.0,0.0,0.0,0.0,0.0,0.0,0.0,0.0,0.0,0.0,0.0,0.0,0.0,0.0,0.0,0.0,0.0,0.0,0.0,0.0,0.0,0.0,0.0,0.0,0.0,0.0,0.0,0.0,0.0,0.0,0.0,0.0,0.0,0.0,0.0,0.0,0.0,0.0,0.0,0.0,0.0,0.0,0.0,0.0,0.0,0.0,0.0,0.0,0.0,0.0,0.0,0.0,0.0,0.0,0.0,0.0,0.0,0.0,0.0,0.0,0.0,0.0,0.0,0.0,0.0,0.0,0.0,0.0,0.0,0.0,0.0,0.0,0.0,0.0,0.0,0.0,0.0,0.0,0.0,0.0,0.0,0.0,0.0,0.0,0.0,0.0,0.0,0.0,0.0,-1.236,-1.2232,-1.2109,-1.1947,-1.2393,-1.2393,-1.2535,0.0,0.0,0.0,0.0,0.0,0.0,0.0,0.0,0.0,0.0,0.0,0.0,0.0,0.0,0.0,0.0,0.0,0.0,0.0,0.0,0.0,0.0,0.0,0.0,0.0,0.0,0.0,0.0,0.0,0.0,0.0,0.0,0.0,0.0,0.0,0.0,0.0,0.0,0.0,0.0,0.0,0.0,0.0,0.0,0.0,0.0,0.0,0.0,0.0,0.0,0.0,0.0,0.0,0.0,0.0,0.0,0.0,0.0,0.0,0.0,0.0,0.0,0.0,0.0,0.0,0.0,0.0,0.0,0.0,0.0,0.0,0.0,0.0,0.0,0.0,0.0,0.0,0.0,0.0,0.0,0.0,0.0,0.0,0.0,0.0,0.0,0.0,0.0,0.0,0.0,0.0,0.0,0.0,0.0,0.0,0.0,0.0,0.0,0.0,0.0,0.0,0.0,0.0,0.0,0.0,0.0,0.0,0.0,0.0,-0.4044,-0.3899,-0.3901,-0.4055,-0.9542,-1.2549,0.0,0.0,0.0,0.0,0.0,0.0,0.0,0.0,0.0,0.0,0.0,0.0,0.0,0.0,0.0,0.0,0.0,0.0,0.0,0.0,0.0,0.0,0.0,0.0,0.0,0.0,0.0,0.0,0.0,0.0,0.0,0.0,0.0,0.0,0.0,0.0,0.0,0.0,0.0,0.0,0.0,0.0,0.0,0.0,0.0,0.0,0.0,0.0,0.0,0.0,0.0,0.0,0.0,0.0,0.0,0.0,0.0,0.0,0.0,0.0,0.0,0.0,0.0,0.0,0.0,0.0,0.0,0.0,0.0,0.0,0.0,0.0,0.0,0.0,0.0,0.0,0.0,0.0,0.0,0.0,0.0,0.0,0.0,0.0,0.0,0.0,0.0,0.0,0.0,0.0,0.0,0.0,0.0,0.0,0.0,0.0,0.0,0.0,0.0,0.0,0.0,0.0,0.0,0.0,0.0,0.0,0.0,0.0,0.0,0.0,0.0,0.0,0.0,-0.5153,-0.9392,-1.2393,0.0,0.0,0.0,0.0,0.0,0.0,0.0,0.0,0.0,0.0,0.0,0.0,0.0,0.0,0.0,0.0,0.0,0.0,0.0,0.0,0.0,0.0,0.0,0.0,0.0,0.0,0.0,0.0,0.0,0.0,0.0,0.0,0.0,0.0,0.0,0.0,0.0,0.0,0.0,0.0,0.0,0.0,0.0,0.0,0.0,0.0,0.0,0.0,0.0,0.0,0.0,0.0,0.0,0.0,0.0,0.0,0.0,0.0,0.0,0.0,0.0,0.0,0.0,0.0,0.0,0.0,0.0,0.0,0.0,0.0,0.0,0.0,0.0,0.0,0.0,0.0,0.0,0.0,0.0,0.0,0.0,0.0,0.0,0.0,0.0,0.0,0.0,0.0,0.0,0.0,0.0,0.0,0.0,0.0,0.0,0.0,0.0,0.0,0.0,0.0,0.0,0.0,0.0,0.0,0.0,0.0,0.0,0.0,-0.0156,0.0,0.0,0.0,0.0,-0.3749,0.0,0.0,0.0,0.0,0.0,0.0,0.0,0.0,0.0,0.0,0.0,0.0,0.0,0.0,0.0,0.0,0.0,0.0,0.0,0.0,0.0,0.0,0.0,0.0,0.0,0.0,0.0,0.0,0.0,0.0,0.0,0.0,0.0,0.0,0.0,0.0,0.0,0.0,0.0,0.0,0.0,0.0,0.0,0.0,0.0,0.0,0.0,0.0,0.0,0.0,0.0,0.0,0.0,0.0,0.0,0.0,0.0,0.0,0.0,0.0,0.0,0.0,0.0,0.0,0.0,0.0,0.0,0.0,0.0,0.0,0.0,0.0,0.0,0.0,0.0,0.0,0.0,0.0,0.0,0.0,0.0,0.0,0.0,0.0,0.0,0.0,0.0,0.0,0.0,0.0,0.0,0.0,0.0,0.0,0.0,0.0,0.0,0.0,0.0,0.0,0.0,0.0,0.0,0.0,0.0,0.0,0.0,0.0,0.0,0.0,0.0,0.0,0.0,0.0,-0.0938,0.0,0.0,0.0,0.0,0.0,0.0,0.0,0.0,0.0,0.0,0.0,0.0,0.0,0.0,0.0,0.0,0.0,0.0,0.0,0.0,0.0,0.0,0.0,0.0,0.0,0.0,0.0,0.0,0.0,0.0,0.0,0.0,0.0,0.0,0.0,0.0,0.0,0.0,0.0,0.0,0.0,0.0,0.0,0.0,0.0,0.0,0.0,0.0,0.0,0.0,0.0,0.0,0.0,0.0,0.0,0.0,0.0,0.0,0.0,0.0,0.0,0.0,0.0,0.0,0.0,0.0,0.0,0.0,0.0,0.0,0.0,0.0,0.0,0.0,0.0,0.0,0.0,0.0,0.0,0.0,0.0,0.0,0.0,0.0,0.0,0.0,0.0,0.0,0.0,0.0,0.0,0.0,0.0,0.0,0.0,0.0,0.0,0.0,0.0,0.0,0.0,0.0,0.0,0.0,0.0,0.0,0.0,0.0,-0.4868,0.0,0.0,0.0,0.0,0.0,0.0,0.0,0.0,0.0,0.0,0.0,0.0,0.0,0.0,0.0,0.0,0.0,0.0,0.0,0.0,0.0,0.0,0.0,0.0,0.0,0.0,0.0,0.0,0.0,0.0,0.0,0.0,0.0,0.0,0.0,0.0,0.0,0.0,0.0,0.0,0.0,0.0,0.0,0.0,0.0,0.0,0.0,0.0,0.0,0.0,0.0,0.0,0.0,0.0,0.0,0.0,0.0,0.0,0.0,0.0,0.0,0.0,0.0,0.0,0.0,0.0,0.0,0.0,0.0,0.0,0.0,0.0,0.0,0.0,0.0,0.0,0.0,0.0,0.0,0.0,0.0,0.0,0.0,0.0,0.0,0.0,0.0,0.0,0.0,0.0,0.0,0.0,0.0,0.0,0.0,0.0,0.0,0.0,0.0,0.0,0.0,0.0,0.0,0.0,0.0,0.0,0.0,0.0,0.0,0.0,0.0,0.0,0.0,0.0,0.0,0.0,0.0,0.0,0.0,0.0,0.0,0.0,0.0,0.0,0.0,0.0,0.0,0.0,0.0,0.0,0.0,0.0,0.0,0.0,0.0,0.0,0.0,0.0,0.0,0.0,0.0,0.0,0.0,0.0,0.0,0.0,0.0,0.0,0.0,0.0,0.0,0.0,0.0,0.0,0.0,0.0,0.0,0.0,0.0,0.0,0.0,0.0,0.0,0.0,0.0,0.0,0.0,0.0,0.0,0.0,0.0,0.0,0.0,0.0,0.0,0.0,0.0,0.0,0.0,0.0,0.0,0.0,0.0,0.0,0.0,0.0,0.0,0.0,0.0,0.0,0.0,0.0,0.0,0.0,0.0,0.0,0.0,0.0,0.0,0.0,0.0,0.0,0.0,0.0,0.0,0.0,0.0,0.0,0.0,0.0,0.0,0.0,0.0,0.0,0.0,0.0,0.0,0.0,0.0,0.0,0.0,0.0,0.0,0.0,0.0,0.0,0.0,0.0,0.0,0.0,0.0,0.0,0.0,0.0,0.0,0.0,0.0,0.0,0.0,0.0,0.0,0.0,0.0,0.0,0.0,0.0,0.0,0.0,0.0,0.0,0.0,0.0,0.0,0.0,0.0,0.0,0.0,0.0,0.0,0.0,0.0,0.0,0.0,0.0,0.0,0.0,0.0,0.0,0.0,0.0,0.0,0.0,0.0,0.0,0.0,0.0,0.0,0.0,0.0,0.0,0.0,0.0,0.0,0.0,-1.3411,0.0,0.0,0.0,0.0,0.0,0.0,0.0,0.0,0.0,0.0,0.0,0.0,0.0,0.0,0.0,0.0,0.0,0.0,0.0,0.0,0.0,0.0,0.0,0.0,0.0,0.0,0.0,0.0,0.0,0.0,0.0,0.0,0.0,0.0,0.0,0.0,0.0,0.0,0.0,0.0,0.0,0.0,0.0,0.0,0.0,0.0,0.0,0.0,0.0,0.0,0.0,0.0,0.0,0.0,0.0,0.0,0.0,0.0,0.0,0.0,0.0,0.0,0.0,0.0,0.0,0.0,0.0,0.0,0.0,0.0,0.0,0.0,0.0,0.0,0.0,0.0,0.0,0.0,0.0,0.0,0.0,0.0,0.0,0.0,0.0,0.0,0.0,0.0,0.0,0.0,0.0,0.0,0.0,0.0,0.0,0.0,0.0,0.0,0.0,0.0,0.0,0.0,0.0,0.0,0.0,0.0,0.0,0.0,0.0,0.0,0.0,0.0,0.0,0.0,0.0,0.0,0.0,0.0,0.0,0.0,0.0,0.0,0.0,0.0,0.0,0.0,0.0,0.0,0.0,0.0,0.0,0.0,0.0,0.0,0.0,0.0,0.0,0.0,0.0,0.0,0.0,0.0,0.0,0.0,0.0,0.0,0.0,0.0,0.0,0.0,0.0,0.0,0.0,0.0,0.0,0.0,0.0,0.0,0.0,0.0,0.0,0.0,0.0,0.0,0.0,0.0,0.0,0.0,0.0,0.0,0.0,0.0,0.0,0.0,0.0,0.0,0.0,0.0,0.0,0.0,0.0,0.0,0.0,0.0,0.0,0.0,0.0,0.0,0.0,0.0,0.0,0.0,0.0,0.0,0.0,0.0,0.0,0.0,0.0,0.0,0.0,0.0,0.0,0.0,0.0,0.0,0.0,0.0,0.0,0.0,0.0,0.0,0.0,0.0,0.0,0.0,0.0,0.0,0.0,0.0,-1.337,-1.339,0.0,0.0,0.0,0.0,0.0,0.0,0.0,0.0,-1.3288,0.0,0.0,0.0,0.0,0.0,0.0,0.0,0.0,0.0,0.0,0.0,0.0,0.0,0.0,0.0,0.0,0.0,0.0,0.0,0.0,0.0,0.0,0.0,0.0,0.0,0.0,0.0,0.0,0.0,0.0,0.0,0.0,0.0,0.0,0.0,0.0,0.0,0.0,0.0,0.0,0.0,0.0,0.0,0.0,0.0,0.0,0.0,0.0,0.0,0.0,0.0,0.0,0.0,0.0,0.0,0.0,0.0,0.0,0.0,0.0,0.0,0.0,0.0,0.0,0.0,0.0,0.0,0.0,0.0,0.0,0.0,0.0,0.0,0.0,0.0,0.0,0.0,0.0,0.0,0.0,0.0,0.0,0.0,0.0,0.0,0.0,0.0,0.0,0.0,0.0,0.0,0.0,0.0,0.0,0.0,0.0,0.0,0.0,0.0,0.0,0.0,0.0,0.0,0.0,0.0,-1.3322,-1.3349,0.0,0.0,0.0,0.0,0.0,0.0,0.0,0.0,-1.2514,0.0,0.0,0.0,0.0,0.0,0.0,0.0,0.0,0.0,0.0,0.0,0.0,0.0,0.0,0.0,0.0,0.0,0.0,0.0,0.0,0.0,0.0,0.0,0.0,0.0,0.0,0.0,0.0,0.0,0.0,0.0,0.0,0.0,0.0,0.0,0.0,0.0,0.0,0.0,0.0,0.0,0.0,0.0,0.0,0.0,0.0,0.0,0.0,0.0,0.0,0.0,0.0,0.0,0.0,0.0,0.0,0.0,0.0,0.0,0.0,0.0,0.0,0.0,0.0,0.0,0.0,0.0,0.0,0.0,0.0,0.0,0.0,0.0,0.0,0.0,0.0,0.0,0.0,0.0,0.0,0.0,0.0,0.0,0.0,0.0,0.0,0.0,0.0,0.0,0.0,0.0,0.0,0.0,0.0,0.0,0.0,0.0,0.0,0.0,0.0,0.0,0.0,0.0,0.0,-1.3234,-1.3227,-1.3085,0.0,0.0,0.0,0.0,0.0,0.0,-1.1987,-1.2175,0.0,0.0,0.0,0.0,0.0,0.0,0.0,0.0,0.0,0.0,0.0,0.0,0.0,0.0,0.0,0.0,0.0,0.0,0.0,0.0,0.0,0.0,0.0,0.0,0.0,0.0,0.0,0.0,0.0,0.0,0.0,0.0,0.0,0.0,0.0,0.0,0.0,0.0,0.0,0.0,0.0,0.0,0.0,0.0,0.0,0.0,0.0,0.0,0.0,0.0,0.0,0.0,0.0,0.0,0.0,0.0,0.0,0.0,0.0,0.0,0.0,0.0,0.0,0.0,0.0,0.0,0.0,0.0,0.0,0.0,0.0,0.0,0.0,0.0,0.0,0.0,0.0,0.0,0.0,0.0,0.0,0.0,0.0,0.0,0.0,0.0,0.0,0.0,0.0,0.0,0.0,0.0,0.0,0.0,0.0,0.0,0.0,0.0,0.0,0.0,0.0,0.0,0.0,0.0,0.0,-1.3152,-1.2822,-1.3105,0.0,0.0,0.0,0.0,-1.0661,-1.1143,0.0,0.0,0.0,0.0,0.0,0.0,0.0,0.0,0.0,0.0,0.0,0.0,0.0,0.0,0.0,0.0,0.0,0.0,0.0,0.0,0.0,0.0,0.0,0.0,0.0,0.0,0.0,0.0,0.0,0.0,0.0,0.0,0.0,0.0,0.0,0.0,0.0,0.0,0.0,0.0,0.0,0.0,0.0,0.0,0.0,0.0,0.0,0.0,0.0,0.0,0.0,0.0,0.0,0.0,0.0,0.0,0.0,0.0,0.0,0.0,0.0,0.0,0.0,0.0,0.0,0.0,0.0,0.0,0.0,0.0,0.0,0.0,0.0,0.0,0.0,0.0,0.0,0.0,0.0,0.0,0.0,0.0,0.0,0.0,0.0,0.0,0.0,0.0,0.0,0.0,0.0,0.0,0.0,0.0,0.0,0.0,0.0,0.0,0.0,0.0,0.0,0.0,0.0,0.0,0.0,0.0,-1.2939,-1.2018,-1.2697,-1.2999,0.0,0.0,-1.1212,-1.0556,-1.0639,0.0,0.0,0.0,0.0,0.0,0.0,0.0,0.0,0.0,0.0,0.0,0.0,0.0,0.0,0.0,0.0,0.0,0.0,0.0,0.0,0.0,0.0,0.0,0.0,0.0,0.0,0.0,0.0,0.0,0.0,0.0,0.0,0.0,0.0,0.0,0.0,0.0,0.0,0.0,0.0,0.0,0.0,0.0,0.0,0.0,0.0,0.0,0.0,0.0,0.0,0.0,0.0,0.0,0.0,0.0,0.0,0.0,0.0,0.0,0.0,0.0,0.0,0.0,0.0,0.0,0.0,0.0,0.0,0.0,0.0,0.0,0.0,0.0,0.0,0.0,0.0,0.0,0.0,0.0,0.0,0.0,0.0,0.0,0.0,0.0,0.0,0.0,0.0,0.0,0.0,0.0,0.0,0.0,0.0,0.0,0.0,0.0,0.0,0.0,0.0,0.0,0.0,0.0,0.0,0.0,0.0,0.0,-1.1832,-1.2087,0.0,0.0,0.0,-1.1218,-1.0617,0.0,0.0,0.0,0.0,0.0,0.0,0.0,0.0,0.0,0.0,0.0,0.0,0.0,0.0,0.0,0.0,0.0,0.0,0.0,0.0,0.0,0.0,0.0,0.0,0.0,0.0,0.0,0.0,0.0,0.0,0.0,0.0,0.0,0.0,0.0,0.0,0.0,0.0,0.0,0.0,0.0,0.0,0.0,0.0,0.0,0.0,0.0,0.0,0.0,0.0,0.0,0.0,0.0,0.0,0.0,0.0,0.0,0.0,0.0,0.0,0.0,0.0,0.0,0.0,0.0,0.0,0.0,0.0,0.0,0.0,0.0,0.0,0.0,0.0,0.0,0.0,0.0,0.0,0.0,0.0,0.0,0.0,0.0,0.0,0.0,0.0,0.0,0.0,0.0,0.0,0.0,0.0,-1.3032,0.0,0.0,0.0,0.0,0.0,0.0,0.0,0.0,0.0,0.0,0.0,0.0,0.0,0.0,-1.1714,-1.1714,-1.1714,-1.1714,0.0,0.0,-1.1763,-1.1318,-0.904,-0.8176,0.0,0.0,0.0,0.0,0.0,0.0,0.0,0.0,0.0,0.0,0.0,0.0,0.0,0.0,0.0,0.0,0.0,0.0,0.0,0.0,0.0,0.0,0.0,0.0,0.0,0.0,0.0,0.0,0.0,0.0,0.0,0.0,0.0,0.0,0.0,0.0,0.0,0.0,0.0,0.0,0.0,0.0,0.0,0.0,0.0,0.0,0.0,0.0,0.0,0.0,0.0,0.0,0.0,0.0,0.0,0.0,0.0,0.0,0.0,0.0,0.0,0.0,0.0,0.0,0.0,0.0,0.0,0.0,0.0,0.0,0.0,0.0,0.0,0.0,0.0,0.0,0.0,0.0,0.0,0.0,0.0,0.0,0.0,0.0,0.0,0.0,0.0,0.0,0.0,0.0,0.0,0.0,0.0,0.0,0.0,0.0,0.0,0.0,0.0,0.0,0.0,0.0,0.0,0.0,0.0,-1.1691,-1.1388,-1.1697,-1.1534,0.0,-1.208,-1.3207,-1.326,-1.0003,-0.818,-1.0201,0.0,0.0,0.0,0.0,0.0,0.0,0.0,0.0,0.0,0.0,0.0,0.0,0.0,0.0,0.0,0.0,0.0,0.0,0.0,0.0,0.0,0.0,0.0,0.0,0.0,0.0,0.0,0.0,0.0,0.0,0.0,0.0,0.0,0.0,0.0,0.0,0.0,0.0,0.0,0.0,0.0,0.0,0.0,0.0,0.0,0.0,0.0,0.0,0.0,0.0,0.0,0.0,0.0,0.0,0.0,0.0,0.0,0.0,0.0,0.0,0.0,0.0,0.0,0.0,0.0,0.0,0.0,0.0,0.0,0.0,0.0,0.0,0.0,0.0,0.0,0.0,0.0,0.0,0.0,0.0,0.0,0.0,0.0,0.0,0.0,0.0,0.0,0.0,0.0,0.0,0.0,-1.2546,-1.2389,-1.1528,0.0,0.0,0.0,0.0,0.0,0.0,0.0,0.0,0.0,0.0,-1.14,-1.0924,-0.8583,0.0,0.0,-1.2117,-1.3439,-1.3398,-1.0103,-0.8254,-1.0145,-1.0975,0.0,0.0,0.0,0.0,0.0,0.0,0.0,0.0,0.0,0.0,0.0,0.0,0.0,0.0,0.0,0.0,0.0,0.0,0.0,0.0,0.0,0.0,0.0,0.0,0.0,0.0,0.0,0.0,0.0,0.0,0.0,0.0,0.0,0.0,0.0,0.0,0.0,0.0,0.0,0.0,0.0,0.0,0.0,0.0,0.0,0.0,0.0,0.0,0.0,0.0,0.0,0.0,0.0,0.0,0.0,0.0,0.0,0.0,0.0,0.0,0.0,0.0,0.0,0.0,0.0,0.0,0.0,0.0,0.0,0.0,0.0,0.0,0.0,0.0,0.0,0.0,0.0,0.0,0.0,0.0,0.0,0.0,0.0,0.0,0.0,0.0,0.0,0.0,0.0,0.0,-1.2376,-1.3063,-1.2037,0.0,0.0,0.0,0.0,0.0,0.0,0.0,0.0,0.0,0.0,-1.0267,-1.1168,-0.7616,-0.6275,-1.0666,-1.1328,-1.0969,-0.9598,-0.7047,-0.6696,-1.0727,0.0,0.0,0.0,0.0,0.0,0.0,0.0,0.0,0.0,0.0,0.0,0.0,0.0,0.0,0.0,0.0,0.0,0.0,0.0,0.0,0.0,0.0,0.0,0.0,0.0,0.0,0.0,0.0,0.0,0.0,0.0,0.0,0.0,0.0,0.0,0.0,0.0,0.0,0.0,0.0,0.0,0.0,0.0,0.0,0.0,0.0,0.0,0.0,0.0,0.0,0.0,0.0,0.0,0.0,0.0,0.0,0.0,0.0,0.0,0.0,0.0,0.0,0.0,0.0,0.0,0.0,0.0,0.0,0.0,0.0,0.0,0.0,0.0,0.0,0.0,0.0,0.0,0.0,0.0,0.0,0.0,0.0,0.0,0.0,0.0,0.0,0.0,0.0,0.0,0.0,-0.9193,-1.1611,-1.3037,0.0,0.0,0.0,0.0,0.0,0.0,0.0,0.0,0.0,0.0,-0.9662,-0.8471,-1.2495,-0.9492,-0.8119,-1.2663,-0.9736,-0.5485,-0.148,-0.0658,-0.3127,0.0,0.0,0.0,0.0,0.0,0.0,0.0,0.0,0.0,0.0,0.0,0.0,0.0,0.0,0.0,0.0,0.0,0.0,0.0,0.0,0.0,0.0,0.0,0.0,0.0,0.0,0.0,0.0,0.0,0.0,0.0,0.0,0.0,0.0,0.0,0.0,0.0,0.0,0.0,0.0,0.0,0.0,0.0,0.0,0.0,0.0,0.0,0.0,0.0,0.0,0.0,0.0,0.0,0.0,0.0,0.0,0.0,0.0,0.0,0.0,0.0,0.0,0.0,0.0,0.0,0.0,0.0,0.0,0.0,0.0,0.0,0.0,0.0,0.0,0.0,0.0,0.0,0.0,0.0,0.0,0.0,0.0,0.0,0.0,0.0,0.0,0.0,0.0,0.0,0.0,-0.8597,0.0,0.0,0.0,0.0,0.0,0.0,0.0,0.0,0.0,0.0,0.0,-0.67,-1.2675,-1.213,-0.9574,-0.5219,-0.3352,-0.5025,0.0,0.0,0.0,0.0,0.0,0.0,0.0,0.0,0.0,0.0,0.0,0.0,0.0,0.0,-1.2527,-0.9579,-0.653,-0.6356,-1.2284,0.0,0.0,0.0,0.0,0.0,0.0,0.0,0.0,0.0,0.0,0.0,0.0,0.0,0.0,0.0,0.0,0.0,0.0,0.0,0.0,0.0,0.0,0.0,0.0,0.0,0.0,0.0,0.0,0.0,0.0,0.0,0.0,0.0,0.0,0.0,0.0,0.0,0.0,0.0,0.0,0.0,0.0,0.0,0.0,0.0,0.0,0.0,0.0,0.0,0.0,0.0,0.0,0.0,0.0,0.0,0.0,0.0,0.0,0.0,0.0,0.0,0.0,0.0,0.0,0.0,0.0,0.0,0.0,0.0,0.0,0.0,0.0,0.0,0.0,0.0,0.0,0.0,-0.6738,0.0,0.0,0.0,0.0,0.0,0.0,0.0,0.0,0.0,-0.9054,-0.3681,-0.2178,-0.7921,-0.8773,-0.6573,-0.0842,0.0,0.0,0.0,0.0,0.0,0.0,0.0,-1.1368,-0.5578,-0.4398,-0.44,-0.4405,-0.6802,-0.9729,-1.2841,0.0,0.0,-0.4875,-0.2009,-0.1841,-0.7554,-0.8738,-0.6881,-0.1172,-0.2345,-0.4367,0.0,0.0,0.0,0.0,0.0,0.0,0.0,0.0,0.0,0.0,0.0,0.0,0.0,0.0,0.0,0.0,0.0,0.0,0.0,0.0,0.0,0.0,0.0,0.0,0.0,0.0,0.0,0.0,0.0,0.0,0.0,0.0,0.0,0.0,0.0,0.0,0.0,0.0,0.0,0.0,0.0,0.0,0.0,0.0,0.0,0.0,0.0,0.0,0.0,0.0,0.0,0.0,0.0,0.0,0.0,0.0,0.0,0.0,0.0,0.0,0.0,0.0,0.0,0.0,0.0,0.0,0.0,0.0,0.0,0.0,0.0,0.0,0.0,0.0,0.0,0.0,0.0,0.0,0.0,0.0,0.0,0.0,-0.1342,0.0,0.0,0.0,0.0,0.0,0.0,0.0,0.0,0.0,-0.7398,-1.2843,-1.2843,-1.2809,-1.274,-1.274,0.0,0.0,0.0,0.0,-0.2953,-1.1166,-0.5906,0.0,0.0,0.0,0.0,0.0,0.0,0.0,0.0,0.0,0.0,0.0,0.0,0.0,0.0,0.0,0.0,0.0,0.0,0.0,0.0,0.0,0.0,0.0,0.0,0.0,0.0,0.0,0.0,0.0,0.0,0.0,0.0,0.0,0.0,0.0,0.0,0.0,0.0,0.0,0.0,0.0,0.0,0.0,0.0,0.0,0.0,0.0,0.0,0.0,0.0,0.0,0.0,0.0,0.0,0.0,0.0,0.0,0.0,0.0,0.0,0.0,0.0,0.0,0.0,0.0,0.0,0.0,0.0,0.0,0.0,0.0,0.0,0.0,0.0,0.0,0.0,0.0,0.0,0.0,0.0,0.0,0.0,-0.1007,0.0,0.0,0.0,0.0,0.0,0.0,0.0,0.0,0.0,0.0,0.0,0.0,0.0,0.0,0.0,0.0,0.0,0.0,0.0,-0.2227,0.0,-0.3786,-0.3793,-0.3801,-0.3806,-0.1735,0.0,0.0,0.0,-0.0869,0.0,-0.1738,0.0,0.0,0.0,0.0,0.0,0.0,0.0,0.0,0.0,0.0,0.0,0.0,0.0,0.0,0.0,0.0,0.0,0.0,0.0,0.0,0.0,0.0,0.0,0.0,0.0,0.0,0.0,0.0,0.0,0.0,0.0,0.0,0.0,0.0,0.0,0.0,0.0,0.0,0.0,0.0,0.0,0.0,0.0,0.0,0.0,0.0,0.0,0.0,0.0,0.0,0.0,0.0,0.0,0.0,0.0,0.0,0.0,0.0,0.0,0.0,0.0,0.0,0.0,0.0,0.0,0.0,0.0,0.0,0.0,0.0,0.0,0.0,0.0,0.0,0.0,0.0,0.0,0.0,-0.5224,0.0,0.0,0.0,0.0,0.0,0.0,0.0,0.0,0.0,0.0,-0.7417,-0.3375,0.0,0.0,0.0,0.0,0.0,0.0,0.0,0.0,0.0,0.0,0.0,0.0,0.0,0.0,0.0,0.0,0.0,0.0,0.0,0.0,0.0,0.0,0.0,0.0,0.0,0.0,0.0,0.0,0.0,0.0,0.0,0.0,0.0,0.0,0.0,0.0,0.0,0.0,0.0,0.0,0.0,0.0,0.0,0.0,0.0,0.0,0.0,0.0,0.0,0.0,0.0,0.0,0.0,0.0,0.0,0.0,0.0,0.0,0.0,0.0,0.0,0.0,0.0,0.0,0.0,0.0,0.0,0.0,0.0,0.0,0.0,0.0,0.0,0.0,0.0,0.0,0.0,0.0,0.0,0.0,0.0,0.0,0.0,0.0,0.0,0.0,0.0,0.0,0.0,0.0,0.0,0.0,0.0,0.0,0.0,0.0,0.0,0.0,0.0,0.0,0.0,0.0,-0.489,0.0,0.0,0.0,0.0,0.0,0.0,0.0,0.0,0.0,0.0,0.0,0.0,0.0,0.0,0.0,0.0,0.0,0.0,0.0,0.0,0.0,0.0,0.0,0.0,0.0,0.0,0.0,0.0,0.0,0.0,0.0,0.0,0.0,0.0,0.0,0.0,0.0,0.0,0.0,0.0,0.0,0.0,0.0,0.0,0.0,0.0,0.0,0.0,0.0,0.0,0.0,0.0,0.0,0.0,0.0,0.0,0.0,0.0,0.0,0.0,0.0,0.0,0.0,0.0,0.0,0.0,0.0,0.0,0.0,0.0,0.0,0.0,0.0,0.0,0.0,0.0,0.0,0.0,0.0,0.0,0.0,0.0,0.0,0.0,0.0,0.0,0.0,0.0,0.0,0.0,0.0,0.0,0.0,0.0,0.0,0.0,0.0,0.0,0.0,0.0,0.0,0.0,0.0,0.0,0.0,0.0,0.0,0.0,0.0,0.0,0.0,0.0,-0.0842,0.0,-0.1179,0.0,0.0,0.0,0.0,0.0,0.0,0.0,0.0,0.0,0.0,0.0,0.0,0.0,0.0,0.0,0.0,0.0,0.0,0.0,0.0,0.0,0.0,0.0,0.0,0.0,0.0,0.0,0.0,0.0,0.0,0.0,0.0,0.0,0.0,0.0,0.0,0.0,0.0,0.0,0.0,0.0,0.0,0.0,0.0,0.0,0.0,0.0,0.0,0.0,0.0,0.0,0.0,0.0,0.0,0.0,0.0,0.0,0.0,0.0,0.0,0.0,0.0,0.0,0.0,0.0,0.0,0.0,0.0,0.0,0.0,0.0,0.0,0.0,0.0,0.0,0.0,0.0,0.0,0.0,0.0,0.0,0.0,0.0,0.0,0.0,0.0,0.0,0.0,0.0,0.0,0.0,0.0,0.0,0.0,0.0,0.0,0.0,0.0,0.0,0.0,0.0,0.0,0.0,0.0,0.0,0.0,0.0,0.0,0.0,0.0,0.0,0.0,0.0,0.0,0.0,0.0,0.0,0.0,0.0,0.0,0.0,0.0,0.0,0.0,0.0,0.0,0.0,0.0,0.0,0.0,0.0,0.0,0.0,0.0,0.0,0.0,0.0,0.0,0.0,0.0,0.0,0.0,0.0,0.0,0.0,0.0,0.0,0.0,0.0,0.0,0.0,0.0,0.0,0.0,0.0,0.0,0.0,0.0,0.0,0.0,0.0,0.0,0.0,0.0,0.0,0.0,0.0,0.0,0.0,0.0,0.0,0.0,0.0,0.0,0.0,0.0,0.0,0.0,0.0,0.0,0.0,0.0,0.0,0.0,0.0,0.0,0.0,0.0,0.0,0.0,0.0,0.0,0.0,0.0,0.0,0.0,0.0,0.0,0.0,0.0,0.0,0.0,0.0,0.0,0.0,0.0,0.0,0.0,0.0,0.0,0.0,0.0,0.0,0.0,0.0,0.0,0.0,0.0,0.0,0.0,0.0,0.0,0.0,0.0,0.0,0.0,0.0,0.0,0.0,0.0,0.0,0.0,0.0,0.0,0.0,0.0,0.0,0.0,0.0,0.0,0.0,0.0,0.0,0.0,0.0,0.0,0.0,0.0,0.0,0.0,0.0,0.0,0.0,0.0,0.0,0.0,0.0,0.0,0.0,0.0,0.0,0.0,0.0,0.0,0.0,0.0,0.0,0.0,0.0,0.0,0.0,0.0,0.0,0.0,0.0,0.0,0.0,0.0,0.0,0.0,0.0,0.0,0.0,0.0,0.0,0.0,0.0,0.0,0.0,0.0,0.0,0.0,0.0,0.0,0.0,0.0,0.0,0.0,0.0,0.0,0.0,0.0,0.0,0.0,0.0,0.0,0.0,0.0,0.0,0.0,0.0,0.0,0.0,0.0,0.0,0.0,0.0,0.0,0.0,0.0,0.0,0.0,0.0,0.0,0.0,0.0,0.0,0.0,0.0,0.0,0.0,0.0,0.0,0.0,0.0,0.0,0.0,0.0,0.0,0.0,0.0,0.0,0.0,0.0,0.0,0.0,0.0,0.0,0.0,0.0,0.0,0.0,0.0,0.0,0.0,0.0,0.0,0.0,0.0,0.0,0.0,0.0,0.0,0.0,0.0,0.0,0.0,0.0,0.0,0.0,0.0,0.0,0.0,0.0,0.0,0.0,0.0,0.0,0.0,0.0,0.0,0.0,0.0,0.0,0.0,0.0,0.0,0.0,0.0,0.0,0.0,0.0,0.0,0.0,0.0,0.0,0.0,0.0,0.0,0.0,0.0,0.0,0.0,0.0,0.0,0.0,0.0,0.0,0.0,0.0,0.0,0.0,0.0,0.0,0.0,0.0,0.0,0.0,0.0,0.0,0.0,0.0,0.0,0.0,0.0,0.0,0.0,0.0,0.0,0.0,0.0,0.0,0.0,0.0,0.0,0.0,0.0,0.0,0.0,0.0,0.0,0.0,0.0,0.0,0.0,0.0,0.0,0.0,0.0,0.0,0.0,0.0,0.0,0.0,0.0,0.0,0.0,0.0,0.0,0.0,0.0,0.0,0.0,0.0,0.0,0.0,0.0,0.0,0.0,0.0,0.0,0.0,0.0,0.0,0.0,0.0,0.0,0.0,0.0,0.0,0.0,0.0,0.0,0.0,0.0,0.0,0.0,0.0,0.0,0.0,0.0,0.0,0.0,0.0,0.0,0.0,0.0,0.0,0.0,0.0,0.0,0.0,0.0,0.0,0.0,0.0,0.0,0.0,0.0,0.0,0.0,0.0,0.0,0.0,0.0,0.0,0.0,0.0,0.0,0.0,0.0,0.0,0.0,0.0,0.0,0.0,0.0,0.0,0.0,0.0,0.0,0.0,0.0,0.0,0.0,0.0,0.0,0.0,0.0,0.0,0.0,0.0,0.0,0.0,0.0,0.0,0.0,0.0,0.0,0.0,0.0,0.0,0.0,0.0,0.0,0.0,0.0,0.0,0.0,0.0,0.0,0.0,0.0,0.0,0.0,0.0,0.0,0.0,0.0,0.0,0.0,0.0,0.0,0.0,0.0,0.0,0.0,0.0,0.0,0.0,0.0,0.0,0.0,0.0,0.0,0.0,0.0,0.0,0.0,0.0,0.0,0.0,0.0,0.0,0.0,0.0,0.0,0.0,0.0,0.0,0.0,0.0,0.0,0.0,0.0,0.0,0.0,0.0,0.0,0.0,0.0,0.0,0.0,0.0,0.0,0.0,0.0,0.0,0.0,0.0,0.0,0.0,0.0,0.0,0.0,0.0,0.0,0.0,0.0,0.0,0.0,0.0,0.0,0.0,0.0,0.0,0.0,0.0,0.0,0.0,0.0,0.0,0.0,0.0,0.0,0.0,0.0,0.0,0.0,0.0,0.0,0.0,0.0,0.0,0.0,0.0,0.0,0.0,0.0,0.0,0.0,0.0,0.0,0.0,0.0,0.0,0.0,0.0,0.0,0.0,0.0,0.0,0.0,0.0,0.0,0.0,0.0,0.0,0.0,0.0,0.0,0.0,0.0,0.0,0.0,0.0,0.0,0.0,0.0,0.0,0.0,0.0,0.0,0.0,0.0,0.0,0.0,0.0,0.0,0.0,0.0,0.0,0.0,0.0,0.0,0.0,0.0,0.0,0.0,0.0,0.0,0.0,0.0,0.0,0.0,0.0,0.0,0.0,0.0,0.0,0.0,0.0,0.0,0.0,0.0,0.0,0.0,0.0,0.0,0.0,0.0,0.0,0.0,0.0,0.0,0.0,0.0,0.0,0.0,0.0,0.0,0.0,0.0,0.0,0.0,0.0,0.0,0.0,0.0,0.0,0.0,0.0,0.0,0.0,0.0,0.0,0.0,0.0,0.0,0.0,0.0,0.0,0.0,0.0,0.0,0.0,0.0,0.0,0.0,0.0,0.0,0.0,0.0,0.0,0.0,0.0,0.0,0.0,0.0,0.0,0.0,0.0,0.0,0.0,0.0,0.0,0.0,0.0,0.0,0.0,0.0,0.0,0.0,0.0,0.0,0.0,0.0,0.0,0.0,0.0,0.0,0.0,0.0,0.0,0.0,0.0,0.0,0.0,0.0,0.0,0.0,0.0,0.0,0.0,0.0,0.0,0.0,0.0,0.0,0.0,0.0,0.0,0.0,0.0,0.0,0.0,0.0,0.0,0.0,0.0,0.0,0.0,0.0,0.0,0.0,0.0,0.0,0.0,0.0,0.0,0.0,0.0,0.0,0.0,0.0,0.0,0.0,0.0,0.0,0.0,0.0,0.0899,0.1974,0.0541,0.0,0.0,0.0,0.0,0.0,0.0,0.0,0.0,0.0,0.0,0.0,0.0,0.0,0.0,0.0,0.0,0.0,0.0,0.0,0.0,0.0,0.0,0.0,0.0,0.0,0.0,0.0,0.0,0.0,0.0,0.0,0.0,0.0,0.0,0.0,0.0,0.0,0.0,0.0,0.0,0.0,0.0,0.0,0.0,0.0,0.0,0.0,0.0,0.0,0.0,0.0,0.0,0.0,0.0,0.0,0.0,0.0,0.0,0.0,0.0,0.0,0.0,0.0,0.0,0.0,0.0,0.0,0.0,0.0,0.0,0.0,0.0,0.0,0.0,0.0,0.0,0.0,0.0,0.0,0.0,0.0,0.0,0.0,0.0,0.0,0.0,0.0,0.0,0.0,0.0,0.0,0.0,0.0,0.0,0.0,0.0,0.0,0.0,0.0,0.0,0.0,0.0,0.0,0.0,0.0,0.0,0.0,0.0,0.0,0.0,0.0,0.0,0.3075,0.6668,0.2378,0.0,0.0,0.0,0.0,0.0,0.0,0.0,0.0,0.0,0.0,0.0,0.0,0.0,0.0,0.0,0.0,0.0,0.0,0.0,0.0,0.0,0.0,0.0,0.0,0.0,0.0,0.0,0.0,0.0,0.0,0.0,0.0,0.0,0.0,0.0,0.0,0.0,0.0,0.0,0.0,0.0,0.0,0.0,0.0,0.0,0.0,0.0,0.0,0.0,0.0,0.0,0.0,0.0,0.0,0.0,0.0,0.0,0.0,0.0,0.0,0.0,0.0,0.0,0.0,0.0,0.0,0.0,0.0,0.0,0.0,0.0,0.0,0.0,0.0,0.0,0.0,0.0,0.0,0.0,0.0,0.0,0.0,0.0,0.0,0.0,0.0,0.0,0.0,0.0,0.0,0.0,0.0,0.0,0.0,0.0,0.0,0.0,0.0,0.0,0.0,0.0,0.0,0.0,0.0,0.0,0.0,0.0,0.0,0.0,0.0,0.0,0.0,0.6488,0.8277,0.5982,0.3101,0.0,0.0,0.0,0.0,0.0,0.0,0.0,0.0,0.0,0.0,0.0,0.0,0.0,0.0,0.0,0.0,0.0,0.0,0.0,0.0,0.0,0.0,0.0,0.0,0.0,0.0,0.0,0.0,0.0,0.0,0.0,0.0,0.0,0.0,0.0,0.0,0.0,0.0,0.0,0.0,0.0,0.0,0.0,0.0,0.0,0.0,0.0,0.0,0.0,0.0,0.0,0.0,0.0,0.0,0.0,0.0,0.0,0.0,0.0,0.0,0.0,0.0,0.0,0.0,0.0,0.0,0.0,0.0,0.0,0.0,0.0,0.0,0.0,0.0,0.0,0.0,0.0,0.0,0.0,0.0,0.0,0.0,0.0,0.0,0.0,0.0,0.0,0.0,0.0,0.0,0.0,0.0,0.0,0.0,0.0,0.0,0.0,0.0,0.0,0.0,0.0,0.0,0.0,0.0,0.0,0.0,0.0,0.0,0.0,0.0,0.0,0.8717,0.8701,0.8722,0.6215,0.2211,0.0548,0.0919,0.2051,0.0746,0.0,0.0,0.0,0.0946,0.2056,0.0747,0.0,0.0,0.0,0.0,0.0,0.0,0.0,0.0,0.0,0.0,0.0,0.0,0.0,0.0,0.0,0.0,0.0,0.0,0.0,0.0,0.0,0.0,0.0,0.0,0.0,0.0,0.0,0.0,0.0,0.0,0.0,0.0,0.0,0.0,0.0,0.0,0.0,0.0,0.0,0.0,0.0,0.0,0.0,0.0,0.0,0.0,0.0,0.0,0.0,0.0,0.0,0.0,0.0,0.0,0.0,0.0,0.0,0.0,0.0,0.0,0.0,0.0,0.0,0.0,0.0,0.0,0.0,0.0,0.0,0.0,0.0,0.0,0.0,0.0,0.0,0.0,0.0,0.0,0.0,0.0,0.0,0.0,0.0,0.0,0.0,0.0,0.0,0.0,0.0,0.0,0.0,0.0,0.0,0.0,0.0,0.0,0.0,0.0,0.0,0.0,0.8946,0.8877,0.8772,0.8469,0.7799,0.2461,0.3224,0.7223,0.2658,0.0,0.0,0.0,0.3234,0.7806,0.2853,0.0,0.0,0.0,0.0,0.0,0.0,0.0,0.0,0.0,0.0,0.0,0.0,0.0,0.0,0.0,0.0,0.0,0.0,0.0,0.0,0.0,0.0,0.0,0.0,0.0,0.0,0.0,0.0,0.0,0.0,0.0,0.0,0.0,0.0,0.0,0.0,0.0,0.0,0.0,0.0,0.0,0.0,0.0,0.0,0.0,0.0,0.0,0.0,0.0,0.0,0.0,0.0,0.0,0.0,0.0,0.0,0.0,0.0,0.0,0.0,0.0,0.0,0.0,0.0,0.0,0.0,0.0,0.0,0.0,0.0,0.0,0.0,0.0,0.0,0.0,0.0,0.0,0.0,0.0,0.0,0.0,0.0,0.0,0.0,0.0,0.0,0.0,0.0,0.0,0.0,0.0,0.0,0.0,0.0,0.0,0.0,0.0,0.0,0.0,0.0,0.909,0.8873,0.8909,0.8792,0.8492,0.6553,0.6964,0.858,0.6813,0.5868,0.59,0.5715,0.7055,0.898,0.6874,0.3624,0.0,0.0,0.0,0.0,0.0,0.0,0.0,0.0,0.0,0.0,0.0,0.0,0.0,0.0,0.0,0.0,0.0,0.0,0.0,0.0,0.0,0.0,0.0,0.0,0.0,0.0,0.0,0.0,0.0,0.0,0.0,0.0,0.0,0.0,0.0,0.0,0.0,0.0,0.0,0.0,0.0,0.0,0.0,0.0,0.0,0.0,0.0,0.0,0.0,0.0,0.0,0.0,0.0,0.0,0.0,0.0,0.0,0.0,0.0,0.0,0.0,0.0,0.0,0.0,0.0,0.0,0.0,0.0,0.0,0.0,0.0,0.0,0.0,0.0,0.0,0.0,0.0,0.0,0.0,0.0,0.0,0.0,0.0,0.0,0.0,0.0,0.0,0.0,0.0,0.0,0.0,0.0,0.0,0.0,0.0,0.0,0.0,0.0,0.0,0.9148,0.8958,0.8958,0.8995,0.9044,0.8987,0.9036,0.9146,0.9089,0.9114,0.9,0.9012,0.9032,0.906,0.9064,0.7128,0.2882,0.0,0.0,0.0,0.0,0.0,0.0,0.0,0.0,0.0,0.0,0.0,0.0,0.0,0.0,0.0,0.0,0.0,0.0,0.0,0.0,0.0,0.0,0.0,0.0,0.0,0.0,0.0,0.0,0.0,0.0,0.0,0.0,0.0,0.0,0.0,0.0,0.0,0.0,0.0,0.0,0.0,0.0,0.0,0.0,0.0,0.0,0.0,0.0,0.0,0.0,0.0,0.0,0.0,0.0,0.0,0.0,0.0,0.0,0.0,0.0,0.0,0.0,0.0,0.0,0.0,0.0,0.0,0.0,0.0,0.0,0.0,0.0,0.0,0.0,0.0,0.0,0.0,0.0,0.0,0.0,0.0,0.0,0.0,0.0,0.0,0.0,0.0,0.0,0.0,0.0,0.0,0.0,0.0,0.0,0.0,0.0,0.0,0.0,0.9138,0.9138,0.9142,0.9142,0.9154,0.9146,0.9146,0.9163,0.9158,0.9016,0.9088,0.8707,0.8357,0.9013,0.9208,0.8833,0.7037,0.3084,0.0,0.0,0.0,0.0,0.0,0.0,0.0,0.0,0.0,0.0,0.0,0.0,0.0,0.0,0.0,0.0,0.0,0.0,0.0,0.0,0.0,0.0,0.0,0.0,0.0,0.0,0.0,0.0,0.0,0.0,0.0,0.0,0.0,0.0,0.0,0.0,0.0,0.0,0.0,0.0,0.0,0.0,0.0,0.0,0.0,0.0,0.0,0.0,0.0,0.0,0.0,0.0,0.0,0.0,0.0,0.0,0.0,0.0,0.0,0.0,0.0,0.0,0.0,0.0,0.0,0.0,0.0,0.0,0.0,0.0,0.0,0.0,0.0,0.0,0.0,0.0,0.0,0.0,0.0,0.0,0.0,0.0,0.0,0.0,0.0,0.0,0.0,0.0,0.0,0.0,0.0,0.0,0.0,0.0,0.0,0.0,0.0,0.9179,0.9236,0.9236,0.9273,0.9124,0.9128,0.9128,0.9128,0.9128,0.9144,0.8387,0.4673,0.5271,0.8833,0.9432,0.8249,0.6278,0.5853,0.4093,0.0,0.0,0.0,0.0,0.0,0.0,0.0,0.0,0.0,0.0,0.0,0.0,0.0,0.0,0.0,0.0,0.0,0.0,0.0,0.0,0.0,0.0,0.0,0.0,0.0,0.0,0.0,0.0,0.0,0.0,0.0,0.0,0.0,0.0,0.0,0.0,0.0,0.0,0.0,0.0,0.0,0.0,0.0,0.0,0.0,0.0,0.0,0.0,0.0,0.0,0.0,0.0,0.0,0.0,0.0,0.0,0.0,0.0,0.0,0.0,0.0,0.0,0.0,0.0,0.0,0.0,0.0,0.0,0.0,0.0,0.0,0.0,0.0,0.0,0.0,0.0,0.0,0.0,0.0,0.0,0.0,0.0,0.0,0.0,0.0,0.0,0.0,0.0,0.0,0.0,0.0,0.0,0.0,0.0,0.0,0.0,0.9273,0.9326,0.9326,0.9354,0.9208,0.9212,0.9212,0.9408,0.9408,0.9428,0.8464,0.5506,0.572,0.9123,0.9728,0.8533,0.694,0.8537,0.7342,0.3369,0.079,0.0,0.0,0.0,0.0,0.0,0.0,0.0,0.0,0.0,0.0,0.0,0.0,0.0,0.0,0.0,0.0,0.0,0.0,0.0,0.0,0.0,0.0,0.0,0.0,0.0,0.0,0.0,0.0,0.0,0.0,0.0,0.0,0.0,0.0,0.0,0.0,0.0,0.0,0.0,0.0,0.0,0.0,0.0,0.0,0.0,0.0,0.0,0.0,0.0,0.0,0.0,0.0,0.0,0.0,0.0,0.0,0.0,0.0,0.0,0.0,0.0,0.0,0.0,0.0,0.0,0.0,0.0,0.0,0.0,0.0,0.0,0.0,0.0,0.0,0.0,0.0,0.0,0.0,0.0,0.0,0.0,0.0,0.0,0.0,0.0,0.0,0.0,0.0,0.0,0.0,0.0,0.0,0.0,0.0,0.9408,0.9416,0.9416,0.9424,0.9436,0.9436,0.9444,0.9632,0.9632,0.9686,0.9546,0.8956,0.9201,0.9677,0.9665,0.9464,0.9693,0.9472,0.9468,0.7433,0.3999,0.0,0.0,0.0,0.0,0.0,0.0,0.0,0.0,0.0,0.0,0.0,0.0,0.0,0.0,0.0,0.0,0.0,0.0,0.0,0.0,0.0,0.0,0.0,0.0,0.0,0.0,0.0,0.0,0.0,0.0,0.0,0.0,0.0,0.0,0.0,0.0,0.0,0.0,0.0,0.0,0.0,0.0,0.0,0.0,0.0,0.0,0.0,0.0,0.0,0.0,0.0,0.0,0.0,0.0,0.0,0.0,0.0,0.0,0.0,0.0,0.0,0.0,0.0,0.0,0.0,0.0,0.0,0.0,0.0,0.0,0.0,0.0,0.0,0.0,0.0,0.0,0.0,0.0,0.0,0.0,0.0,0.0,0.0,0.0,0.0,0.0,0.0,0.0,0.0,0.0,0.0,0.0,0.0,0.0,0.9644,0.9506,0.951,0.9546,0.9604,0.9608,0.9608,0.9608,0.9803,0.9612,0.9644,0.9648,0.9657,0.9685,0.9685,0.9685,0.9689,0.9685,0.9689,0.9488,0.8256,0.4222,0.2014,0.4841,0.444,0.1413,0.444,0.4641,0.0,0.0,0.0,0.0,0.0,0.0,0.0,0.0,0.0,0.0,0.0,0.0,0.0,0.0,0.0,0.0,0.0,0.0,0.0,0.0,0.0,0.0,0.0,0.0,0.0,0.0,0.0,0.0,0.0,0.0,0.0,0.0,0.0,0.0,0.0,0.0,0.0,0.0,0.0,0.0,0.0,0.0,0.0,0.0,0.0,0.0,0.0,0.0,0.0,0.0,0.0,0.0,0.0,0.0,0.0,0.0,0.0,0.0,0.0,0.0,0.0,0.0,0.0,0.0,0.0,0.0,0.0,0.0,0.0,0.0,0.0,0.0,0.0,0.0,0.0,0.0,0.0,0.0,0.0,0.0,0.0,0.0,0.0,0.0,0.0,0.0,0.0,0.9753,0.9599,0.9599,0.9632,0.9677,0.9681,0.9681,0.9681,0.9681,0.9681,0.9681,0.9681,0.9681,0.9681,0.9681,0.9681,0.9681,0.9681,0.9681,0.9685,0.948,0.7459,0.5843,0.8277,0.7673,0.5043,0.7874,0.727,0.0,0.4031,0.4031,0.0,0.121,0.0,0.0,0.0,0.0,0.0,0.0,0.0,0.0,0.0,0.0,0.0,0.0,0.0,0.0,0.0,0.0,0.0,0.0,0.0,0.0,0.0,0.0,0.0,0.0,0.0,0.0,0.0,0.0,0.0,0.0,0.0,0.0,0.0,0.0,0.0,0.0,0.0,0.0,0.0,0.0,0.0,0.0,0.0,0.0,0.0,0.0,0.0,0.0,0.0,0.0,0.0,0.0,0.0,0.0,0.0,0.0,0.0,0.0,0.0,0.0,0.0,0.0,0.0,0.0,0.0,0.0,0.0,0.0,0.0,0.0,0.0,0.0,0.0,0.0,0.0,0.0,0.0,0.0,0.0,0.0,0.0,0.0,0.9681,0.9681,0.9681,0.9681,0.9681,0.9681,0.9681,0.9681,0.9681,0.9681,0.9681,0.9681,0.9681,0.9681,0.9681,0.9681,0.9681,0.9681,0.9681,0.9681,0.9681,0.9074,0.8877,0.9086,0.9291,0.8881,0.9496,0.9496,0.8683,0.9086,0.9295,0.7874,0.3627,0.1611,0.0,0.0,0.0,0.0,0.0,0.0,0.0,0.0,0.0,0.0,0.0,0.0,0.0,0.0,0.0,0.0,0.0,0.0,0.0,0.0,0.0,0.0,0.0,0.0,0.0,0.0,0.0,0.0,0.0,0.0,0.0,0.0,0.0,0.0,0.0,0.0,0.0,0.0,0.0,0.0,0.0,0.0,0.0,0.0,0.0,0.0,0.0,0.0,0.0,0.0,0.0,0.0,0.0,0.0,0.0,0.0,0.0,0.0,0.0,0.0,0.0,0.0,0.0,0.0,0.0,0.0,0.0,0.0,0.0,0.0,0.0,0.0,0.0,0.0,0.0,0.0,0.0,0.0,0.0,0.0,0.0,0.9681,0.9681,0.9681,0.9681,0.9681,0.9681,0.9681,0.9681,0.9681,0.9681,0.9681,0.9681,0.9681,0.9681,0.9681,0.9681,0.9681,0.9681,0.9681,0.9681,0.9681,0.9681,0.9681,0.9685,0.9689,0.9689,0.9685,0.9689,0.9689,0.9689,0.9689,0.9287,0.8069,0.7462,0.7264,0.6659,0.4839,0.0,0.0,0.0,0.6461,0.6875,0.4651,0.0,0.0,0.0,0.0,0.0,0.0,0.0,0.0,0.0,0.0,0.0,0.0,0.0,0.0,0.0,0.0,0.0,0.0,0.0,0.0,0.0,0.0,0.0,0.0,0.0,0.0,0.0,0.0,0.0,0.0,0.0,0.0,0.0,0.0,0.0,0.0,0.0,0.0,0.0,0.0,0.0,0.0,0.0,0.0,0.0,0.0,0.0,0.0,0.0,0.0,0.0,0.0,0.0,0.0,0.0,0.0,0.0,0.0,0.0,0.0,0.0,0.0,0.0,0.0,0.0,0.0,0.0,0.0,0.0,0.0,0.0,0.0,0.9681,0.9681,0.9681,0.9681,0.9681,0.9681,0.9681,0.9681,0.9681,0.9681,0.9681,0.9681,0.9681,0.9681,0.9681,0.9681,0.9681,0.9681,0.9681,0.9681,0.9681,0.9681,0.9681,0.9681,0.9681,0.9685,0.9681,0.9681,0.9685,0.9685,0.9681,0.9685,0.9685,0.9279,0.9693,0.9693,0.7871,0.5642,0.4634,0.6452,0.9093,0.9548,0.6529,0.0,0.0,0.0,0.0,0.0,0.0,0.0,0.0,0.0,0.0,0.0,0.0,0.0,0.0,0.0,0.0,0.0,0.0,0.0,0.0,0.0,0.0,0.0,0.0,0.0,0.0,0.0,0.0,0.0,0.0,0.0,0.0,0.0,0.0,0.0,0.0,0.0,0.0,0.0,0.0,0.0,0.0,0.0,0.0,0.0,0.0,0.0,0.0,0.0,0.0,0.0,0.0,0.0,0.0,0.0,0.0,0.0,0.0,0.0,0.0,0.0,0.0,0.0,0.0,0.0,0.0,0.0,0.0,0.0,0.0,0.0,0.0,0.9681,0.9681,0.9681,0.9681,0.9681,0.9681,0.9681,0.9681,0.9681,0.9681,0.9681,0.9681,0.9681,0.9681,0.9681,0.9681,0.9681,0.9681,0.9681,0.9681,0.9681,0.9681,0.9681,0.9681,0.9681,0.9681,0.9681,0.9681,0.9681,0.9681,0.9681,0.9681,0.9681,0.9681,0.9681,0.9685,0.9283,0.8672,0.8672,0.8877,0.9496,0.9556,0.6344,0.0,0.0,0.0,0.0,0.0,0.0,0.0,0.0,0.0,0.0,0.0,0.0,0.0,0.0,0.0,0.0,0.0,0.0,0.0,0.0,0.0,0.0,0.0,0.0,0.0,0.0,0.0,0.0,0.0,0.0,0.0,0.0,0.0,0.0,0.0,0.0,0.0,0.0,0.0,0.0,0.0,0.0,0.0,0.0,0.0,0.0,0.0,0.0,0.0,0.0,0.0,0.0,0.0,0.0,0.0,0.0,0.0,0.0,0.0,0.0,0.0,0.0,0.0,0.0,0.0,0.0,0.0,0.0,0.0,0.0,0.0,0.0,0.9681,0.9681,0.9681,0.9681,0.9681,0.9681,0.9681,0.9681,0.9681,0.9681,0.9681,0.9681,0.9681,0.9681,0.9681,0.9681,0.9681,0.9681,0.9681,0.9681,0.9681,0.9681,0.9681,0.9681,0.9681,0.9681,0.9681,0.9681,0.9681,0.9681,0.9681,0.9681,0.9681,0.9681,0.9681,0.9681,0.9685,0.9685,0.9681,0.9681,0.9693,0.9318,0.7131,0.0,0.0,0.0,0.0,0.0,0.0,0.0,0.0,0.0,0.0,0.0,0.0,0.0,0.0,0.0,0.0,0.0,0.0,0.0,0.0,0.0,0.0,0.0,0.0,0.0,0.0,0.0,0.0,0.0,0.0,0.0,0.0,0.0,0.0,0.0,0.0,0.0,0.0,0.0,0.0,0.0,0.0,0.0,0.0,0.0,0.0,0.0,0.0,0.0,0.0,0.0,0.0,0.0,0.0,0.0,0.0,0.0,0.0,0.0,0.0,0.0,0.0,0.0,0.0,0.0,0.0,0.0,0.0,0.0,0.0,0.0,0.0,0.9681,0.9681,0.9681,0.9681,0.9681,0.9681,0.9681,0.9681,0.9681,0.9681,0.9681,0.9681,0.9681,0.9681,0.9681,0.9681,0.9681,0.9681,0.9681,0.9681,0.9681,0.9681,0.9681,0.9681,0.9681,0.9681,0.9681,0.9681,0.9681,0.9681,0.9681,0.9681,0.9681,0.9681,0.9681,0.9681,0.9681,0.9681,0.9681,0.9681,0.9689,0.9722,0.7349,0.5346,0.0,0.0,0.0,0.0,0.0,0.0,0.0,0.0,0.0,0.0,0.0,0.0,0.0,0.0,0.0,0.0,0.0,0.0,0.0,0.0,0.0,0.0,0.0,0.0,0.0,0.0,0.0,0.0,0.0,0.0,0.0,0.0,0.0,0.0,0.0,0.0,0.0,0.0,0.0,0.0,0.0,0.0,0.0,0.0,0.0,0.0,0.0,0.0,0.0,0.0,0.0,0.0,0.0,0.0,0.0,0.0,0.0,0.0,0.0,0.0,0.0,0.0,0.0,0.0,0.0,0.0,0.0,0.0,0.0,0.0,0.0,0.9681,0.9681,0.9681,0.9681,0.9681,0.9681,0.9681,0.9681,0.9681,0.9681,0.9681,0.9681,0.9681,0.9681,0.9681,0.9681,0.9681,0.9681,0.9681,0.9681,0.9681,0.9681,0.9681,0.9681,0.9681,0.9681,0.9681,0.9681,0.9681,0.9681,0.9681,0.9681,0.9681,0.9681,0.9681,0.9681,0.9681,0.9681,0.9681,0.9681,0.9702,0.9755,0.964,0.9518,0.458,0.0,0.0,0.0,0.0,0.0,0.0,0.0,0.0,0.0,0.0,0.0,0.0,0.0,0.0,0.0,0.0,0.0,0.0,0.0,0.0,0.0,0.0,0.0,0.0,0.0,0.0,0.0,0.0,0.0,0.0,0.0,0.0,0.0,0.0,0.0,0.0,0.0,0.0,0.0,0.0,0.0,0.0,0.0,0.0,0.0,0.0,0.0,0.0,0.0,0.0,0.0,0.0,0.0,0.0,0.0,0.0,0.0,0.0,0.0,0.0,0.0,0.0,0.0,0.0,0.0,0.0,0.0,0.0,0.0,0.0,0.9681,0.9681,0.9681,0.9681,0.9681,0.9681,0.9681,0.9681,0.9681,0.9681,0.9681,0.9681,0.9681,0.9681,0.9681,0.9681,0.9681,0.9681,0.9681,0.9681,0.9681,0.9681,0.9681,0.9681,0.9681,0.9681,0.9681,0.9681,0.9681,0.9681,0.9681,0.9681,0.9681,0.9681,0.9681,0.9681,0.9681,0.9681,0.9681,0.9681,0.9685,0.9697,0.9759,0.9408,0.8222,0.5788,0.1672,0.0,0.0,0.0,0.0,0.0,0.0,0.0,0.0,0.0,0.0,0.0,0.0,0.0,0.0,0.0,0.0,0.0,0.0,0.0,0.0,0.0,0.0,0.0,0.0,0.0,0.0,0.0,0.0,0.0,0.0,0.0,0.0,0.0,0.0,0.0,0.0,0.0,0.0,0.0,0.0,0.0,0.0,0.0,0.0,0.0,0.0,0.0,0.0,0.0,0.0,0.0,0.0,0.0,0.0,0.0,0.0,0.0,0.0,0.0,0.0,0.0,0.0,0.0,0.0,0.0,0.0,0.0,0.0,0.9681,0.9681,0.9681,0.9681,0.9681,0.9681,0.9681,0.9681,0.9681,0.9681,0.9681,0.9681,0.9681,0.9681,0.9681,0.9681,0.9681,0.9681,0.9681,0.9681,0.9681,0.9681,0.9681,0.9681,0.9681,0.9681,0.9681,0.9681,0.9681,0.9681,0.9681,0.9681,0.9681,0.9681,0.9681,0.9681,0.9681,0.9681,0.9681,0.9681,0.9681,0.9685,0.9702,0.9746,0.9795,0.7809,0.5579,0.0,0.0,0.0,0.0,0.0,0.0,0.0,0.0,0.0,0.0,0.0,0.0,0.0,0.0,0.0,0.0,0.0,0.0,0.0,0.0,0.0,0.0,0.0,0.0,0.0,0.0,0.0,0.0,0.0,0.0,0.0,0.0,0.0,0.0,0.0,0.0,0.0,0.0,0.0,0.0,0.0,0.0,0.0,0.0,0.0,0.0,0.0,0.0,0.0,0.0,0.0,0.0,0.0,0.0,0.0,0.0,0.0,0.0,0.0,0.0,0.0,0.0,0.0,0.0,0.0,0.0,0.0,0.0,0.9681,0.9681,0.9681,0.9681,0.9681,0.9681,0.9681,0.9681,0.9681,0.9681,0.9681,0.9681,0.9681,0.9681,0.9681,0.9681,0.9681,0.9681,0.9681,0.9681,0.9681,0.9681,0.9681,0.9681,0.9681,0.9681,0.9681,0.9681,0.9681,0.9681,0.9681,0.9681,0.9681,0.9681,0.9681,0.9681,0.9681,0.9681,0.9681,0.9681,0.9681,0.9681,0.9681,0.9706,0.9746,0.98,0.9008,0.5757,0.0,0.0,0.0,0.0,0.0,0.0,0.0,0.0,0.0,0.0,0.0,0.0,0.0,0.0,0.0,0.0,0.0,0.0,0.0,0.0,0.0,0.0,0.0,0.0,0.0,0.0,0.0,0.0,0.0,0.0,0.0,0.0,0.0,0.0,0.0,0.0,0.0,0.0,0.0,0.0,0.0,0.0,0.0,0.0,0.0,0.0,0.0,0.0,0.0,0.0,0.0,0.0,0.0,0.0,0.0,0.0,0.0,0.0,0.0,0.0,0.0,0.0,0.0,0.0,0.0,0.0,0.0,0.9681,0.9681,0.9681,0.9681,0.9681,0.9681,0.9681,0.9681,0.9681,0.9681,0.9681,0.9681,0.9681,0.9681,0.9681,0.9681,0.9681,0.9681,0.9681,0.9681,0.9681,0.9681,0.9681,0.9681,0.9685,0.9693,0.9702,0.9697,0.9693,0.973,0.9706,0.9681,0.971,0.9693,0.9697,0.9722,0.9722,0.9722,0.9722,0.9714,0.971,0.9706,0.9706,0.9702,0.9706,0.973,0.9616,0.8413,0.7825,0.7673,0.7704,0.585,0.0,0.0,0.0,0.0,0.0,0.0,0.0,0.0,0.0,0.0,0.0,0.0,0.0,0.0,0.0,0.0,0.0,0.0,0.0,0.0,0.0,0.0,0.0,0.0,0.0,0.0,0.0,0.0,0.0,0.0,0.0,0.0,0.0,0.0,0.0,0.0,0.0,0.0,0.0,0.0,0.0,0.0,0.0,0.0,0.0,0.0,0.0,0.0,0.0,0.0,0.0,0.0,0.0,0.0,0.0,0.0,0.0,0.0,0.0,0.0,0.0,0.0,0.0,0.9681,0.9681,0.9681,0.9681,0.9681,0.9681,0.9681,0.9681,0.9681,0.9681,0.9681,0.9681,0.9681,0.9681,0.9681,0.9681,0.9681,0.9681,0.9681,0.9681,0.9681,0.9681,0.9681,0.9693,0.9706,0.9751,0.9767,0.9804,0.9853,0.9828,0.964,0.9632,0.9791,0.9771,0.9775,0.9808,0.9628,0.9632,0.9636,0.964,0.9644,0.964,0.964,0.9644,0.9644,0.9656,0.9696,0.97,0.972,0.9756,0.9804,0.7954,0.5463,0.2531,0.0,0.0,0.0,0.0,0.0,0.0,0.0,0.0,0.0,0.0,0.0,0.0,0.0,0.0,0.0,0.0,0.0,0.0,0.0,0.0,0.0,0.0,0.0,0.0,0.0,0.0,0.0,0.0,0.0,0.0,0.0,0.0,0.0,0.0,0.0,0.0,0.0,0.0,0.0,0.0,0.0,0.0,0.0,0.0,0.0,0.0,0.0,0.0,0.0,0.0,0.0,0.0,0.0,0.0,0.0,0.0,0.0,0.0,0.0,0.0,0.0,0.9681,0.9681,0.9681,0.9681,0.9681,0.9681,0.9681,0.9681,0.9681,0.9681,0.9681,0.9681,0.9681,0.9681,0.9681,0.9681,0.9681,0.9681,0.9681,0.9681,0.9681,0.9697,0.9714,0.9738,0.9775,0.9836,0.9861,0.9898,0.9934,0.974,0.9728,0.9716,0.9918,0.9893,0.9873,0.9914,0.9955,0.9951,0.9744,0.9744,0.9947,0.9942,0.9942,0.9938,0.9934,0.9934,0.9938,0.9942,0.9942,0.9971,1.0008,1.0065,0.8209,0.5705,0.2335,0.0,0.0,0.0,0.0,0.0,0.0,0.0,0.0,0.0,0.0,0.0,0.0,0.0,0.0,0.0,0.0,0.0,0.0,0.0,0.0,0.0,0.0,0.0,0.0,0.0,0.0,0.0,0.0,0.0,0.0,0.0,0.0,0.0,0.0,0.0,0.0,0.0,0.0,0.0,0.0,0.0,0.0,0.0,0.0,0.0,0.0,0.0,0.0,0.0,0.0,0.0,0.0,0.0,0.0,0.0,0.0,0.0,0.0,0.0,0.0,0.9681,0.9681,0.9681,0.9681,0.9681,0.9681,0.9681,0.9681,0.9681,0.9681,0.9681,0.9681,0.9681,0.9681,0.9681,0.9681,0.9681,0.9681,0.9689,0.9697,0.971,0.9738,0.9787,0.9824,0.9861,0.9724,0.9955,1.017,1.0186,1.0,0.9987,1.0,1.0028,1.0028,1.017,1.0165,1.017,1.017,1.0182,1.019,1.0199,1.0203,1.0203,1.0,1.0,1.0008,1.0008,1.0008,1.0012,1.0016,1.0224,1.0065,0.9698,0.9071,0.6135,0.0,0.0,0.0,0.0,0.0,0.0,0.0,0.0,0.0,0.0,0.0,0.0,0.0,0.0,0.0,0.0,0.0,0.0,0.0,0.0,0.0,0.0,0.0,0.0,0.0,0.0,0.0,0.0,0.0,0.0,0.0,0.0,0.0,0.0,0.0,0.0,0.0,0.0,0.0,0.0,0.0,0.0,0.0,0.0,0.0,0.0,0.0,0.0,0.0,0.0,0.0,0.0,0.0,0.0,0.0,0.0,0.0,0.0,0.0,0.0,0.9681,0.9681,0.9681,0.9681,0.9681,0.9681,0.9681,0.9681,0.9681,0.9681,0.9681,0.9681,0.9681,0.9681,0.9681,0.9681,0.9685,0.9685,0.9697,0.9767,0.9771,0.9624,0.9676,0.9918,0.9955,1.0016,1.0249,1.0286,1.0134,1.011,1.0118,1.0143,1.0134,1.0155,1.0134,1.013,1.013,1.013,1.013,1.013,1.0126,1.0122,1.0118,1.0118,1.0114,1.0114,1.011,1.0106,1.0106,1.0106,1.0106,1.0134,1.0171,0.9964,0.8918,0.66,0.6395,0.426,0.0,0.0,0.0,0.0,0.0,0.0,0.0,0.0,0.0,0.0,0.0,0.0,0.0,0.0,0.0,0.0,0.0,0.0,0.0,0.0,0.0,0.0,0.0,0.0,0.0,0.0,0.0,0.0,0.0,0.0,0.0,0.0,0.0,0.0,0.0,0.0,0.0,0.0,0.0,0.0,0.0,0.0,0.0,0.0,0.0,0.0,0.0,0.0,0.0,0.0,0.0,0.0,0.0,0.0,0.0,0.0,0.0,0.9681,0.9681,0.9681,0.9681,0.9681,0.9681,0.9681,0.9681,0.9681,0.9681,0.9681,0.9681,0.9681,0.9681,0.9681,0.971,0.9722,0.973,0.9779,0.9648,0.9865,0.9922,0.9971,1.0004,1.0049,1.0102,1.0134,1.0163,1.0196,1.0212,1.0204,1.02,1.0216,1.0204,1.0204,1.02,1.0204,1.0196,1.0192,1.0196,1.02,1.0204,1.0208,1.0204,1.0204,1.0208,1.0212,1.0216,1.0216,1.0216,1.0216,1.022,1.0224,1.0224,1.0228,1.0236,0.9599,0.703,0.0,0.0,0.0,0.0,0.0,0.0,0.0,0.0,0.0,0.0,0.0,0.0,0.0,0.0,0.0,0.0,0.0,0.0,0.0,0.0,0.0,0.0,0.0,0.0,0.0,0.0,0.0,0.0,0.0,0.0,0.0,0.0,0.0,0.0,0.0,0.0,0.0,0.0,0.0,0.0,0.0,0.0,0.0,0.0,0.0,0.0,0.0,0.0,0.0,0.0,0.0,0.0,0.0,0.0,0.0,0.0,0.0,0.9681,0.9681,0.9681,0.9681,0.9681,0.9681,0.9681,0.9681,0.9681,0.9681,0.9681,0.9681,0.9681,0.9685,0.9685,0.9734,0.98,0.9812,0.9672,0.9728,0.9955,1.0016,1.0061,1.0089,1.013,1.0179,1.0204,1.0192,1.0216,1.0216,1.0216,1.0216,1.0216,1.0216,1.0216,1.0216,1.0216,1.0216,1.0216,1.0216,1.0216,1.0216,1.0216,1.0216,1.0216,1.0216,1.0216,1.0216,1.0216,1.0216,1.0216,1.0216,1.0216,1.0216,1.0216,1.022,1.0224,0.809,0.6387,0.7674,0.6392,0.2981,0.0,0.0,0.0,0.0,0.0,0.0,0.0,0.0,0.0,0.0,0.0,0.0,0.0,0.0,0.0,0.0,0.0,0.0,0.0,0.0,0.0,0.0,0.0,0.0,0.0,0.0,0.0,0.0,0.0,0.0,0.0,0.0,0.0,0.0,0.0,0.0,0.0,0.0,0.0,0.0,0.0,0.0,0.0,0.0,0.0,0.0,0.0,0.0,0.0,0.0,0.0,0.0,0.0,0.9681,0.9681,0.9681,0.9681,0.9681,0.9681,0.9681,0.9681,0.9681,0.9681,0.9681,0.9681,0.9685,0.9685,0.9746,0.9787,0.9836,0.9889,0.9756,1.0012,1.0049,1.0106,1.0143,1.0171,1.0196,1.0208,1.0216,1.0216,1.0216,1.0216,1.0216,1.0216,1.0216,1.0216,1.0216,1.0216,1.0216,1.0216,1.0216,1.0216,1.0216,1.0216,1.0216,1.0216,1.0216,1.0216,1.0216,1.0216,1.0216,1.0216,1.0216,1.0216,1.0216,1.0216,1.0216,1.0216,1.022,0.9583,0.9159,0.9603,0.8748,0.682,0.64,0.3837,0.0,0.0,0.0,0.0,0.0,0.0,0.0,0.0,0.0,0.0,0.0,0.0,0.0,0.0,0.0,0.0,0.0,0.0,0.0,0.0,0.0,0.0,0.0,0.0,0.0,0.0,0.0,0.0,0.0,0.0,0.0,0.0,0.0,0.0,0.0,0.0,0.0,0.0,0.0,0.0,0.0,0.0,0.0,0.0,0.0,0.0,0.0,0.0,0.0,0.0,0.0,0.9681,0.9681,0.9681,0.9681,0.9681,0.9681,0.9681,0.9681,0.9681,0.9681,0.9681,0.9681,0.9697,0.9742,0.9795,0.9853,0.9934,0.9979,0.984,1.0118,1.013,1.0163,1.0204,1.0216,1.0212,1.0216,1.0216,1.0216,1.0216,1.0216,1.0216,1.0216,1.0216,1.0216,1.0216,1.0216,1.0216,1.0216,1.0216,1.0216,1.0216,1.0216,1.0216,1.0216,1.0216,1.0216,1.0216,1.0216,1.0216,1.0216,1.0216,1.0216,1.0216,1.0216,1.0216,1.0216,1.022,1.022,0.9796,1.0016,0.9382,0.8741,0.8319,0.5111,0.0,0.0,0.0,0.0,0.0,0.0,0.0,0.0,0.0,0.0,0.0,0.0,0.0,0.0,0.0,0.0,0.0,0.0,0.0,0.0,0.0,0.0,0.0,0.0,0.0,0.0,0.0,0.0,0.0,0.0,0.0,0.0,0.0,0.0,0.0,0.0,0.0,0.0,0.0,0.0,0.0,0.0,0.0,0.0,0.0,0.0,0.0,0.0,0.0,0.0,0.0,0.9681,0.9681,0.9681,0.9681,0.9681,0.9681,0.9681,0.9681,0.9681,0.9681,0.9681,0.9693,0.9742,0.98,0.9857,0.9942,1.0016,1.0073,1.0122,1.0212,1.0196,1.0208,1.0208,1.0216,1.0216,1.0216,1.0216,1.0216,1.0216,1.0216,1.0216,1.0216,1.0216,1.0216,1.0216,1.0216,1.0216,1.0216,1.0216,1.0216,1.0216,1.0216,1.0216,1.0216,1.0216,1.0216,1.0216,1.0216,1.0216,1.0216,1.0216,1.0216,1.0216,1.0216,1.0216,1.0216,1.0216,1.0216,1.022,1.0224,0.8724,0.7228,0.5523,0.5105,0.0,0.0,0.0,0.0,0.0,0.0,0.0,0.0,0.0,0.0,0.0,0.0,0.0,0.0,0.0,0.0,0.0,0.0,0.0,0.0,0.0,0.0,0.0,0.0,0.0,0.0,0.0,0.0,0.0,0.0,0.0,0.0,0.0,0.0,0.0,0.0,0.0,0.0,0.0,0.0,0.0,0.0,0.0,0.0,0.0,0.0,0.0,0.0,0.0,0.0,0.0,0.9681,0.9681,0.9681,0.9681,0.9681,0.9681,0.9681,0.9681,0.9681,0.9681,0.9693,0.9751,0.9795,0.9832,0.9951,1.004,1.0081,1.0143,1.0192,1.0208,1.0216,1.0216,1.0216,1.0216,1.0216,1.0216,1.0216,1.0216,1.0216,1.0216,1.0216,1.0216,1.0216,1.0216,1.0216,1.0216,1.0216,1.0216,1.0216,1.0216,1.0216,1.0216,1.0216,1.0216,1.0216,1.0216,1.0216,1.0216,1.0216,1.0216,1.0216,1.0216,1.0216,1.0216,1.0216,1.0216,1.0216,1.0216,1.0216,1.022,0.9364,0.9367,0.873,0.8525,0.0,0.2555,0.0,0.0,0.0,0.0,0.0,0.0,0.0,0.0,0.0,0.0,0.0,0.0,0.0,0.0,0.0,0.0,0.0,0.0,0.0,0.0,0.0,0.0,0.0,0.0,0.0,0.0,0.0,0.0,0.0,0.0,0.0,0.0,0.0,0.0,0.0,0.0,0.0,0.0,0.0,0.0,0.0,0.0,0.0,0.0,0.0,0.0,0.0,0.0,0.0,0.9681,0.9681,0.9681,0.9681,0.9681,0.9681,0.9681,0.9681,0.9681,0.9702,0.9742,0.9795,0.9836,1.0086,1.0232,1.0114,1.0138,1.0187,1.0208,1.0216,1.0216,1.0216,1.0216,1.0216,1.0216,1.0216,1.0216,1.0216,1.0216,1.0216,1.0216,1.0216,1.0216,1.0216,1.0216,1.0216,1.0216,1.0216,1.0216,1.0216,1.0216,1.0216,1.0216,1.0216,1.0216,1.0216,1.0216,1.0216,1.0216,1.0216,1.0216,1.0216,1.0216,1.0216,1.0216,1.0216,1.0216,1.0216,1.0216,1.022,1.022,1.0224,1.0224,0.9375,0.8309,0.0,0.0,0.0,0.0,0.0,0.0,0.0,0.0,0.0,0.0,0.0,0.0,0.0,0.0,0.0,0.0,0.0,0.0,0.0,0.0,0.0,0.0,0.0,0.0,0.0,0.0,0.0,0.0,0.0,0.0,0.0,0.0,0.0,0.0,0.0,0.0,0.0,0.0,0.0,0.0,0.0,0.0,0.0,0.0,0.0,0.0,0.0,0.0,0.0,0.0,0.9681,0.9681,0.9681,0.9681,0.9681,0.9681,0.9681,0.9681,0.9681,0.973,0.9808,0.9828,0.9889,1.0182,1.027,1.0138,1.0192,1.0208,1.0216,1.0216,1.0216,1.0216,1.0216,1.0216,1.0216,1.0216,1.0216,1.0216,1.0216,1.0216,1.0216,1.0216,1.0216,1.0216,1.0216,1.0216,1.0216,1.0216,1.0216,1.0216,1.0216,1.0216,1.0216,1.0216,1.0216,1.0216,1.0216,1.0216,1.0216,1.0216,1.0216,1.0216,1.0216,1.0216,1.0216,1.0216,1.0216,1.0216,1.0216,1.0216,1.0216,1.0216,1.0216,0.9576,0.8511,0.0,0.0,0.0,0.0,0.0,0.0,0.0,0.0,0.0,0.0,0.0,0.0,0.0,0.0,0.0,0.0,0.0,0.0,0.0,0.0,0.0,0.0,0.0,0.0,0.0,0.0,0.0,0.0,0.0,0.0,0.0,0.0,0.0,0.0,0.0,0.0,0.0,0.0,0.0,0.0,0.0,0.0,0.0,0.0,0.0,0.0,0.0,0.0,0.0,0.0,0.9681,0.9681,0.9681,0.9681,0.9681,0.9681,0.9681,0.9681,0.9685,0.973,0.9824,0.9906,1.0182,1.0274,1.0151,1.0208,1.0204,1.0216,1.0216,1.0216,1.0216,1.0216,1.0216,1.0216,1.0216,1.0216,1.0216,1.0216,1.0216,1.0216,1.0216,1.0216,1.0216,1.0216,1.0216,1.0216,1.0216,1.0216,1.0216,1.0216,1.0216,1.0216,1.0216,1.0216,1.0216,1.0216,1.0216,1.0216,1.0216,1.0216,1.0216,1.0216,1.0216,1.0216,1.0216,1.0216,1.0216,1.0216,1.0216,1.0216,1.0216,1.0216,1.0216,1.0216,0.958,0.0,0.0,0.0,0.0,0.0,0.0,0.0,0.0,0.0,0.0,0.0,0.0,0.0,0.0,0.0,0.0,0.0,0.0,0.0,0.0,0.0,0.0,0.0,0.0,0.0,0.0,0.0,0.0,0.0,0.0,0.0,0.0,0.0,0.0,0.0,0.0,0.0,0.0,0.0,0.0,0.0,0.0,0.0,0.0,0.0,0.0,0.0,0.0,0.0,0.0]}]]